     2              OBSERVATION DATA    GPS                 RINEX VERSION / TYPE
teqc 1997Sep10 19970910 19:06:28UTC                         PGM / RUN BY / DATE
                                                            COMMENT
BIT 2 OF LLI FLAGS DATA COLLECTED UNDER A-S CONDITION       COMMENT
BIT 2 OF LLI FLAGS DATA COLLECTED UNDER A-S CONDITION       COMMENT
Original Marker Name: unknown                               COMMENT
Campaign Name: Southern California GPS Survey March - A     COMMENT
4-Character Station Name: WIDE                              COMMENT
6-Character Antenna Code: TI4100                            COMMENT
Vertical Measurement Point: PAE                             COMMENT
Vertical Offset to Rinex Ref. Point: 0.0000                 COMMENT
Radial Measurement Point: RRP                               COMMENT
Radial Offset to Rinex Ref. Point: 0.0000                   COMMENT
Antenna Height from Field Measurement: 1.6621 m             COMMENT
Original XYZ: 0.0000 0.0000 0.0000                          COMMENT
New XYZ position is based on association with SCEC monument COMMENT
E1D0U3V0+0011. Position of that monument is believed to be  COMMENT
valid to within 1 m horizontally; vertical accuracy         COMMENT
should be no worse than 3-times this value.                 COMMENT
                                                            COMMENT
Revised Rinex header created by UCSD GPS archive for        COMMENT
GSAC on 14-Apr-1999 (1999:104) 01:11:20 GMT                 COMMENT
For assistance contact dagnew@ucsd.edu or hjohnson@ucsd.edu COMMENT
                                                            COMMENT
WIDE                                                        MARKER NAME
unknown NATIONAL GEODETIC SURVEY                            OBSERVER / AGENCY
0005 TI 4100 GSI TI4100                                     REC # / TYPE / VERS
4021 TI 4100                                                ANT # / TYPE
 -2356149.0000 -4745123.0000  3540396.0000                  APPROX POSITION XYZ
        1.6621        0.0000        0.0000                  ANTENNA: DELTA H/E/N
     1     1     0                                          WAVELENGTH FACT L1/2
     6    L1    L2    P1    P2    D1    D2                  # / TYPES OF OBSERV
     0                                                      INTERVAL
  1988     3    26     4    36   26.000000                  TIME OF FIRST OBS
  1988     3    26     5    36   44.000000                  TIME OF LAST OBS
     0                                                      # OF SATELLITES
                                                            END OF HEADER
 88  3 26  4 36 26.0800000  0  4G 6G 9G11G13
  37988410.760 9 -65045310.746 9  15207416.225    15207420.185        -394.380
      -304.792
  21204370.949 9 -65712610.326 9  15850098.885    15850100.691        2279.550
      1772.588
  25637387.834 8 -62293684.958 8  15455858.668    15455861.719         360.186
       265.341
   4517046.798 8 -18303194.336 8  17598247.747    17598252.178        3204.160
      2486.203
 88  3 26  4 36 29.0800000  0  4G 6G 9G11G13
  37989615.559 9 -65044371.939 9  15207645.860    15207648.083        -394.125
      -310.341
  21197548.224 9 -65717926.737 8  15848800.278    15848802.607        2275.722
      1774.365
  25636323.040 8 -62294514.663 7  15455655.733    15455659.016         351.262
       278.937
   4507506.298 9 -18310628.487 8  17596431.950    17596436.217        3163.068
      2485.862
 88  3 26  4 36 32.0800000  0  4G 6G 9G11G13
  37990825.631 9 -65043429.023 8  15207876.147    15207878.572        -400.735
      -323.987
  21190728.902 9 -65723240.501 9  15847502.838    15847505.567        2268.633
      1767.206
  25635263.486 8 -62295340.289 8  15455455.129    15455458.367         355.226
       270.380
   4497969.199 8 -18318059.991 9  17594616.618    17594620.234        3182.885
      2480.474
 88  3 26  4 36 35.0800000  0  4G 6G 9G11G13
  37992041.018 9 -65042481.971 9  15208107.245    15208110.898        -416.022
      -317.705
  21183912.961 8 -65728551.623 8  15846206.351    15846208.048        2279.438
      1759.688
  25634209.204 8 -62296161.813 8  15455253.468    15455255.919         360.919
       269.939
   4488435.450 8 -18325488.874 8  17592801.755    17592807.087        3186.952
      2471.781
 88  3 26  4 36 38.0800000  0  4G 6G 9G11G13
  37993261.666 9 -65041530.823 8  15208339.083    15208342.237        -412.880
      -323.925
  21177100.427 9 -65733860.089 8  15844909.542    15844911.040        2287.197
      1776.850
  25633160.175 8 -62296979.230 9  15455054.954    15455057.562         362.586
       274.879
   4478905.073 8 -18332915.133 8  17590988.074    17590992.829        3175.556
      2480.586
 88  3 26  4 36 41.0800000  0  4G 6G 9G11G13
  37994487.620 9 -65040575.535 8  15208572.712    15208576.029        -395.743
      -317.176
  21170291.317 9 -65739165.893 9  15843614.217    15843616.212        2265.068
      1780.187
  25632116.404 8 -62297792.553 8  15454855.181    15454859.236         352.179
       279.993
   4469378.070 9 -18340338.767 7  17589176.306    17589179.895        3179.727
      2488.148
 88  3 26  4 36 44.0800000  0  4G 6G 9G11G13
  37995718.904 9 -65039616.094 9  15208807.740    15208810.351        -405.648
      -318.773
  21163485.622 9 -65744469.036 8  15842318.464    15842320.729        2271.894
      1768.058
  25631077.865 9 -62298601.796 8  15454658.531    15454660.649         361.557
       250.291
   4459854.466 9 -18347759.749 8  17587362.370    17587367.595        3166.561
      2487.515
 88  3 26  4 36 47.0800000  0  4G 6G 9G11G13
  37996955.467 9 -65038652.522 8  15209042.556    15209045.572        -408.455
      -325.845
  21156683.358 9 -65749769.499 9  15841023.905    15841026.670        2274.167
      1773.557
  25630044.602 9 -62299406.944 7  15454460.569    15454464.839         334.468
       264.092
   4450334.297 8 -18355178.058 8  17585552.695    17585556.445        3175.883
      2484.352
 88  3 26  4 36 50.0800000  0  4G 6G 9G11G13
  37998197.342 9 -65037684.834 9  15209279.384    15209281.529        -423.319
      -325.695
  21149884.510 8 -65755067.305 8  15839730.695    15839732.671        2265.578
      1750.603
  25629016.581 8 -62300207.987 8  15454264.820    15454268.604         332.156
       263.862
   4440817.545 8 -18362593.704 8  17583741.053    17583745.264        3174.185
      2452.382
 88  3 26  4 36 53.0800000  0  4G 6G 9G11G13
  37999444.506 9 -65036713.027 9  15209516.817    15209518.787        -405.329
      -313.616
  21143089.101 9 -65760362.442 7  15838438.626    15838440.260        2270.467
      1758.377
  25627993.819 8 -62301004.950 8  15454072.301    15454074.222         354.085
       259.494
   4431304.188 9 -18370006.703 8  17581930.457    17581934.623        3170.437
      2480.996
 88  3 26  4 36 56.0800000  0  4G 6G 9G11G13
  38000696.967 9 -65035737.084 8  15209754.048    15209756.936        -416.676
      -310.795
  21136297.095 9 -65765654.909 8  15837146.495    15837147.796        2253.689
      1768.580
  25626976.307 8 -62301797.811 8  15453876.768    15453880.677         349.668
       260.923
   4421794.214 8 -18377417.072 8  17580120.310    17580124.242        3181.593
      2480.909
 88  3 26  4 36 59.0800000  0  4G 6G 9G11G13
  38001954.723 9 -65034757.006 8  15209993.387    15209996.489        -416.230
      -333.015
  21129508.578 9 -65770944.660 9  15835853.259    15835856.024        2257.652
      1762.770
  25625964.041 8 -62302586.584 8  15453684.926    15453687.621         341.478
       277.284
   4412287.654 8 -18384824.777 8  17578310.895    17578315.397        3179.001
      2466.270
 88  3 26  4 37  2.0800000  0  4G 6G 9G11G13
  38003217.795 9 -65033772.810 8  15210234.126    15210237.838        -407.633
      -319.674
  21122723.479 9 -65776231.743 9  15834562.243    15834563.749        2257.253
      1761.620
  25624957.024 8 -62303371.281 9  15453492.571    15453496.039         326.662
       256.698
   4402784.503 9 -18392229.818 8  17576503.405    17576508.407        3172.909
      2475.547
 88  3 26  4 37  5.0800000  0  4G 6G 9G11G13
  38004486.148 9 -65032784.474 9  15210475.537    15210478.655        -421.907
      -326.634
  21115941.829 9 -65781516.159 8  15833271.002    15833273.340        2247.660
      1760.017
  25623955.235 9 -62304151.883 7  15453302.564    15453306.705         321.973
       262.750
   4393284.748 8 -18399632.217 8  17574694.545    17574700.449        3183.387
      2482.966
 88  3 26  4 37  8.0800000  0  4G 6G 9G11G13
  38005759.821 9 -65031792.011 9  15210718.298    15210720.334        -428.422
      -326.677
  21109163.602 9 -65786797.877 9  15831981.925    15831983.588        2255.172
      1759.508
  25622958.679 9 -62304928.417 9  15453113.252    15453115.502         330.409
       259.133
   4383788.384 9 -18407031.972 9  17572888.070    17572893.400        3166.968
      2470.657
 88  3 26  4 37 11.0800000  0  4G 6G 9G11G13
  38007038.802 9 -65030795.399 9  15210961.012    15210965.130        -421.700
      -318.693
  21102388.841 9 -65792076.911 8  15830692.804    15830695.455        2256.432
      1762.465
  25621967.374 8 -62305700.860 8  15452924.006    15452928.388         325.513
       244.034
   4374295.427 8 -18414429.082 9  17571081.641    17571085.889        3177.008
      2462.168
 88  3 26  4 37 14.0800000  0  4G 6G 9G11G13
  38008323.120 9 -65029794.625 9  15211205.570    15211208.307        -411.915
      -335.010
  21095617.495 9 -65797353.275 8  15829404.195    15829405.992        2256.854
      1747.024
  25620981.304 9 -62306469.230 8  15452736.626    15452741.167         330.011
       263.297
   4364805.889 9 -18421823.521 8  17569276.339    17569280.129        3165.516
      2476.858
 88  3 26  4 37 17.0800000  0  4G 6G 9G11G13
  38009612.728 9 -65028789.742 9  15211450.836    15211454.480        -429.762
      -334.128
  21088849.612 9 -65802626.955 8  15828116.010    15828117.811        2243.139
      1759.961
  25620000.466 8 -62307233.510 8  15452549.378    15452553.231         352.243
       267.969
   4355319.744 9 -18429215.316 8  17567470.724    17567475.505        3159.033
      2443.968
 88  3 26  4 37 20.0800000  0  4G 6G 9G11G13
  38010907.605 9 -65027780.741 9  15211697.223    15211699.798        -420.823
      -343.268
  21082085.176 9 -65807897.933 9  15826829.553    15826831.616        2260.475
      1752.865
  25619024.876 9 -62307993.708 8  15452364.848    15452367.688         318.440
       251.969
   4345837.021 9 -18436604.450 9  17565665.152    17565670.638        3159.576
      2452.854
 88  3 26  4 37 23.0800000  0  4G 6G 9G11G13
  38012207.792 9 -65026767.610 8  15211945.931    15211947.324        -430.815
      -338.135
  21075324.207 9 -65813166.229 9  15825543.091    15825544.248        2248.633
      1759.197
  25618054.519 8 -62308749.827 8  15452179.421    15452183.162         312.930
       259.457
   4336357.705 8 -18443990.922 8  17563861.340    17563867.299        3158.140
      2449.306
 88  3 26  4 37 26.0800000  0  4G 6G 9G11G13
  38013513.320 9 -65025750.316 9  15212193.478    15212196.179        -431.564
      -344.461
  21068566.657 9 -65818431.851 8  15824256.824    15824258.274        2244.686
      1758.681
  25617089.401 9 -62309501.867 8  15451995.076    15451999.943         324.827
       238.709
   4326881.796 8 -18451374.731 9  17562058.606    17562064.573        3156.896
      2468.078
 88  3 26  4 37 29.0800000  0  4G 6G 9G11G13
  38014824.150 9 -65024728.893 9  15212443.021    15212445.109        -436.133
      -339.447
  21061812.542 9 -65823694.796 9  15822971.562    15822972.570        2249.231
      1762.677
  25616129.505 9 -62310249.836 7  15451812.985    15451816.952         327.961
       251.366
   4317409.315 8 -18458755.879 9  17560256.726    17560261.490        3168.874
      2466.226
 88  3 26  4 37 32.0800000  0  4G 6G 9G11G13
  38016140.295 9 -65023703.333 8  15212693.224    15212696.349        -440.735
      -346.033
  21055061.903 9 -65828955.020 8  15821687.049    15821688.547        2249.558
      1746.496
  25615174.832 8 -62310993.733 8  15451632.044    15451635.196         316.016
       240.405
   4307940.263 9 -18466134.367 8  17558455.372    17558459.435        3144.951
      2463.517
 88  3 26  4 37 35.0800000  0  4G 6G 9G11G13
  38017461.730 9 -65022673.649 8  15212945.204    15212948.291        -442.760
      -343.995
  21048314.771 9 -65834212.533 8  15820401.848    15820403.687        2263.601
      1746.378
  25614225.394 8 -62311733.554 8  15451451.186    15451454.409         320.521
       235.310
   4298474.621 9 -18473510.174 8  17556653.622    17556658.688        3165.955
      2477.094
 88  3 26  4 37 38.0800000  0  4G 6G 9G11G13
  38018788.443 9 -65021639.843 9  15213198.001    15213199.573        -434.164
      -348.469
  21041571.060 8 -65839467.371 8  15819120.281    15819121.245        2223.426
      1753.803
  25613281.174 8 -62312469.308 9  15451270.869    15451274.169         294.533
       249.788
   4289012.381 9 -18480883.352 8  17554852.978    17554857.730        3152.965
      2464.287
 88  3 26  4 37 41.0800000  0  4G 6G 9G11G13
  38020120.461 9 -65020601.898 9  15213451.024    15213453.407        -428.263
      -345.598
  21034830.799 9 -65844719.530 7  15817836.710    15817839.036        2258.705
      1741.152
  25612342.165 9 -62313200.997 8  15451091.448    15451095.389         306.279
       244.711
   4279553.539 8 -18488253.872 8  17553052.173    17553057.298        3148.300
      2447.448
 88  3 26  4 37 44.0800000  0  4G 6G 9G11G13
  38021457.783 9 -65019559.829 8  15213706.826    15213707.240        -440.280
      -341.435
  21028093.994 9 -65849968.980 8  15816555.138    15816556.448        2227.150
      1763.174
  25611408.393 8 -62313928.618 8  15450914.114    15450918.322         331.239
       239.939
   4270098.101 8 -18495621.739 8  17551252.512    17551258.194        3165.094
      2447.715
 88  3 26  4 37 47.0800000  0  4G 6G 9G11G13
  38022800.398 9 -65018513.651 9  15213961.543    15213963.211        -450.942
      -360.542
  21021360.634 9 -65855215.748 7  15815273.437    15815276.402        2259.805
      1758.377
  25610479.826 8 -62314652.169 8  15450738.164    15450742.431         303.480
       221.851
   4260646.048 9 -18502986.964 8  17549454.214    17549460.589        3156.920
      2461.584
 88  3 26  4 37 50.0800000  0  4G 6G 9G11G13
  38024148.314 9 -65017463.317 8  15214217.465    15214218.985        -439.435
      -356.398
  21014630.747 8 -65860459.820 8  15813993.419    15813993.859        2248.912
      1760.135
  25609556.462 8 -62315371.665 8  15450561.747    15450565.432         299.908
       257.717
   4251197.418 9 -18510349.534 8  17547657.448    17547661.557        3145.900
      2445.895
 88  3 26  4 37 53.0800000  0  4G 6G 9G11G13
  38025501.539 9 -65016408.862 8  15214474.775    15214477.692        -454.897
      -341.628
  21007904.287 8 -65865701.219 8  15812712.836    15812714.552        2255.906
      1732.453
  25608638.311 8 -62316087.106 8  15450388.288    15450391.141         322.467
       252.584
   4241752.203 9 -18517709.448 8  17545860.342    17545864.729        3144.249
      2454.892
 88  3 26  4 37 56.0800000  0  4G 6G 9G11G13
  38026860.055 9 -65015350.280 9  15214733.667    15214735.204        -472.784
      -351.501
  21001181.302 8 -65870939.906 8  15811433.392    15811435.320        2250.595
      1747.273
  25607725.389 7 -62316798.480 7  15450214.914    15450217.339         290.793
       242.779
   4232310.411 9 -18525066.678 9  17544063.836    17544068.130        3153.419
      2439.283
 88  3 26  4 37 59.0800000  0  4G 6G 9G11G13
  38028223.861 9 -65014287.567 8  15214993.740    15214995.450        -456.022
      -346.120
  20994461.798 8 -65876175.880 7  15810155.288    15810156.607        2238.163
      1736.765
  25606817.672 8 -62317505.786 9  15450041.997    15450044.937         292.707
       242.046
   4222872.045 8 -18532421.247 8  17542266.526    17542271.828        3160.309
      2465.536
 88  3 26  4 38  2.0800000  0  4G 6G 9G11G13
  38029592.989 9 -65013220.722 8  15215254.035    15215255.398        -467.648
      -359.641
  20987745.769 8 -65881409.148 8  15808876.974    15808878.307        2245.555
      1748.727
  25605915.152 8 -62318209.052 8  15449869.727    15449872.222         308.958
       243.083
   4213437.075 9 -18539773.162 9  17540470.637    17540476.716        3163.252
      2449.760
 88  3 26  4 38  5.0800000  0  4G 6G 9G11G13
  38030967.413 9 -65012149.741 8  15215515.172    15215516.769        -450.543
      -350.942
  20981033.203 9 -65886639.722 8  15807599.419    15807601.705        2239.175
      1749.752
  25605017.827 8 -62318908.263 7  15449699.490    15449701.971         297.300
       241.008
   4204005.537 9 -18547122.402 8  17538676.664    17538680.958        3136.131
      2454.936
 88  3 26  4 38  8.0800000  0  4G 6G 9G11G13
  38032347.161 9 -65011074.612 8  15215777.556    15215779.838        -464.961
      -351.781
  20974324.083 9 -65891867.596 9  15806322.879    15806325.016        2235.467
      1755.978
  25604125.711 8 -62319603.410 8  15449529.320    15449532.203         283.321
       236.236
   4194577.437 8 -18554468.967 8  17536881.481    17536887.901        3149.879
      2440.806
 88  3 26  4 38 11.0800000  0  4G 6G 9G11G13
  38033732.235 9 -65009995.342 9  15216041.590    15216042.705        -458.589
      -365.855
  20967618.480 9 -65897092.740 9  15805046.824    15805048.917        2230.220
      1742.196
  25603238.816 8 -62320294.504 9  15449360.413    15449363.610         297.228
       237.895
   4185152.746 9 -18561812.876 8  17535088.986    17535092.836        3150.341
      2435.493
 88  3 26  4 38 14.0800000  0  4G 6G 9G11G13
  38035122.591 9 -65008911.943 8  15216305.914    15216307.987        -461.923
      -376.922
  20960916.369 8 -65902315.162 8  15803770.860    15803772.827        2216.600
      1747.353
  25602357.105 8 -62320981.539 8  15449192.062    15449196.019         271.391
       231.631
   4175731.483 9 -18569154.117 8  17533296.376    17533300.529        3148.244
      2447.858
 88  3 26  4 38 17.0800000  0  4G 6G 9G11G13
  38036518.261 9 -65007824.409 8  15216571.197    15216573.028        -461.588
      -355.907
  20954217.760 9 -65907534.858 8  15802496.247    15802498.136        2205.260
      1740.866
  25601480.604 8 -62321664.535 8  15449024.989    15449029.569         309.780
       220.074
   4166313.629 9 -18576492.708 8  17531503.803    17531508.092        3140.333
      2447.324
 88  3 26  4 38 20.0800000  0  4G 6G 9G11G13
  38037919.217 9 -65006732.755 8  15216837.509    15216840.098        -470.184
      -364.494
  20947522.628 8 -65912751.838 9  15801222.882    15801224.034        2241.161
      1730.756
  25600609.314 8 -62322343.458 8  15448859.409    15448863.694         285.378
       226.629
   4156899.240 9 -18583828.583 9  17529713.233    17529717.041        3115.477
      2437.090
 88  3 26  4 38 23.0800000  0  4G 6G 9G11G13
  38039325.480 9 -65005636.959 9  15217105.294    15217108.396        -467.377
      -373.778
  20940830.965 9 -65917966.127 8  15799949.521    15799951.131        2239.869
      1733.472
  25599743.215 8 -62323018.328 8  15448694.928    15448699.826         286.479
       226.853
   4147488.259 8 -18591161.806 9  17527921.059    17527926.692        3161.992
      2440.346
 88  3 26  4 38 26.0800000  0  4G 6G 9G11G13
  38040737.057 9 -65004537.038 8  15217374.534    15217376.002        -467.840
      -364.376
  20934142.795 9 -65923177.681 8  15798676.305    15798678.842        2227.900
      1738.219
  25598882.326 8 -62323689.153 8  15448531.600    15448535.382         287.125
       227.095
   4138080.712 8 -18598492.353 8  17526130.517    17526136.698        3148.316
      2450.984
 88  3 26  4 38 29.0800000  0  4G 6G 9G11G13
  38042153.941 9 -65003432.975 8  15217644.451    15217645.520        -475.264
      -370.627
  20927458.095 9 -65928386.541 8  15797404.103    15797406.231        2231.273
      1737.927
  25598026.628 9 -62324355.931 9  15448367.324    15448370.221         272.635
       220.260
   4128676.574 8 -18605820.260 8  17524341.312    17524347.181        3131.035
      2447.840
 88  3 26  4 38 32.0800000  0  4G 6G 9G11G13
  38043576.132 9 -65002324.777 9  15217914.447    15217916.533        -461.835
      -378.631
  20920776.880 9 -65933592.667 8  15796133.086    15796135.598        2226.536
      1724.139
  25597176.126 9 -62325018.648 8  15448207.402    15448210.442         278.776
       223.429
   4119275.875 9 -18613145.467 9  17522552.735    17522556.926        3144.671
      2449.070
 88  3 26  4 38 35.0800000  0  4G 6G 9G11G13
  38045003.659 9 -65001212.417 8  15218186.427    15218188.616        -473.541
      -364.575
  20914099.191 9 -65938796.068 8  15794861.801    15794864.668        2221.129
      1739.058
  25596330.843 9 -62325677.308 8  15448044.794    15448049.064         273.887
       228.338
   4109878.633 9 -18620467.989 8  17520764.898    17520769.523        3146.386
      2446.125
 88  3 26  4 38 38.0800000  0  4G 6G 9G11G13
  38046436.511 9 -65000095.900 8  15218457.943    15218460.769        -461.899
      -371.392
  20907425.050 9 -65943996.698 9  15793592.527    15793594.326        2218.075
      1722.312
  25595490.794 8 -62326331.899 8  15447886.287    15447888.252         290.873
       222.888
   4100484.829 9 -18627787.837 8  17518977.342    17518982.151        3121.929
      2440.706
 88  3 26  4 38 41.0800000  0  4G 6G 9G11G13
  38047874.683 9 -64998975.251 9  15218732.135    15218734.166        -484.259
      -372.156
  20900754.371 9 -65949194.622 8  15792322.218    15792324.769        2233.729
      1751.492
  25594655.934 8 -62326982.424 8  15447726.968    15447730.648         282.045
       211.604
   4091094.454 8 -18635105.013 8  17517190.573    17517194.613        3142.566
      2439.507
 88  3 26  4 38 44.0800000  0  4G 6G 9G11G13
  38049318.184 9 -64997850.461 9  15219006.326    15219009.462        -477.672
      -378.115
  20894087.260 9 -65954389.769 9  15791054.022    15791056.614        2226.759
      1726.711
  25593826.307 8 -62327628.892 8  15447569.034    15447572.874         273.257
       217.439
   4081707.530 9 -18642419.483 9  17515404.007    17515408.546        3114.752
      2448.343
 88  3 26  4 38 47.0800000  0  4G 6G 9G11G13
  38050767.009 9 -64996721.496 8  15219283.163    15219284.354        -470.152
      -381.657
  20887423.687 9 -65959582.164 8  15789785.538    15789788.281        2230.380
      1731.894
  25593001.880 8 -62328271.305 8  15447411.313    15447415.667         274.206
       208.472
   4072324.117 8 -18649731.224 7  17513617.656    17513622.805        3131.219
      2449.940
 88  3 26  4 38 50.0800000  0  4G 6G 9G11G13
  38052221.156 9 -64995588.392 9  15219559.958    15219561.511        -499.187
      -380.427
  20880763.628 9 -65964771.821 8  15788518.772    15788520.753        2208.897
      1734.826
  25592182.684 8 -62328909.637 7  15447256.689    15447259.957         272.013
       218.265
   4062944.178 9 -18657040.265 8  17511832.884    17511838.421        3111.203
      2434.797
 88  3 26  4 38 53.0800000  0  4G 6G 9G11G13
  38053680.660 9 -64994451.124 8  15219838.080    15219839.812        -488.924
      -366.346
  20874107.113 8 -65969958.722 8  15787251.163    15787253.821        2235.324
      1742.824
  25591368.698 8 -62329543.907 7  15447101.216    15447103.671         244.494
       217.942
   4053567.719 8 -18664346.585 8  17510049.090    17510053.363        3147.470
      2441.060
 88  3 26  4 38 56.0800000  0  4G 6G 9G11G13
  38055145.525 9 -64993309.665 8  15220115.391    15220117.518        -489.602
      -382.825
  20867454.139 9 -65975142.857 9  15785986.341    15785988.497        2224.542
      1720.889
  25590559.918 9 -62330174.113 8  15446947.666    15446950.733         273.871
       214.059
   4044194.727 8 -18671650.218 8  17508265.985    17508270.036        3110.876
      2433.846
 88  3 26  4 38 59.0800000  0  4G 6G 9G11G13
  38056615.744 9 -64992164.038 8  15220396.204    15220398.999        -483.278
      -379.084
  20860804.733 9 -65980324.202 9  15784720.619    15784722.719        2218.291
      1736.007
  25589756.368 9 -62330800.259 8  15446794.041    15446798.248         293.520
       202.091
   4034825.227 9 -18678951.127 8  17506483.476    17506487.159        3129.600
      2429.012
 88  3 26  4 39  2.0800000  0  4G 6G 9G11G13
  38058091.337 9 -64991014.231 9  15220676.938    15220677.831        -490.574
      -404.977
  20854158.902 9 -65985502.767 8  15783456.209    15783458.085        2212.756
      1715.912
  25588958.053 8 -62331422.322 8  15446642.459    15446645.597         277.133
       215.022
   4025459.201 9 -18686249.322 8  17504700.720    17504704.716        3103.013
      2425.743
 88  3 26  4 39  5.0800000  0  4G 6G 9G11G13
  38059572.262 9 -64989860.276 9  15220958.246    15220960.391        -495.447
      -394.911
  20847516.645 9 -65990678.555 8  15782192.205    15782194.128        2211.050
      1732.024
  25588164.954 8 -62332040.323 8  15446491.906    15446495.746         264.238
       207.273
   4016096.657 8 -18693544.811 8  17502919.310    17502923.509        3105.964
      2413.092
 88  3 26  4 39  8.0800000  0  4G 6G 9G11G13
  38061058.545 9 -64988702.127 8  15221240.796    15221243.349        -494.841
      -388.691
  20840877.961 9 -65995851.549 8  15780928.797    15780931.315        2192.613
      1725.605
  25587377.077 8 -62332654.251 8  15446342.287    15446344.926         255.937
       209.199
   4006737.579 9 -18700837.590 9  17501137.912    17501142.594        3113.340
      2448.007
 88  3 26  4 39 11.0800000  0  4G 6G 9G11G13
  38062550.163 9 -64987539.810 8  15221524.774    15221526.355        -499.019
      -380.818
  20834242.830 9 -66001021.779 9  15779666.225    15779668.738        2218.283
      1719.224
  25586594.411 8 -62333264.116 8  15446192.081    15446195.880         247.229
       207.136
   3997381.972 9 -18708127.662 9  17499357.824    17499362.141        3120.174
      2429.720
 88  3 26  4 39 14.0800000  0  4G 6G 9G11G13
  38064047.138 9 -64986373.348 8  15221810.475    15221812.749        -495.399
      -381.700
  20827611.235 8 -66006189.260 8  15778404.360    15778405.943        2211.608
      1719.429
  25585816.970 9 -62333869.910 8  15446043.380    15446048.920         261.774
       187.576
   3988029.851 9 -18715415.024 8  17497578.125    17497582.472        3110.127
      2425.196
 88  3 26  4 39 17.0800000  0  4G 6G 9G11G13
  38065549.450 9 -64985202.719 9  15222096.503    15222097.565        -500.072
      -384.876
  20820983.196 9 -66011353.954 8  15777142.685    15777144.348        2215.388
      1718.894
  25585044.728 9 -62334471.663 8  15445897.632    15445900.383         258.592
       183.642
   3978681.209 9 -18722699.684 9  17495799.474    17495803.954        3100.876
      2438.724
 88  3 26  4 39 20.0800000  0  4G 6G 9G11G13
  38067057.089 8 -64984027.942 8  15222383.046    15222384.767        -508.134
      -391.773
  20814358.706 8 -66016515.889 8  15775882.447    15775884.237        2219.925
      1722.442
  25584277.679 9 -62335069.358 8  15445751.451    15445755.434         266.359
       205.881
   3969336.026 8 -18729981.636 8  17494021.649    17494024.713        3116.020
      2435.611
 88  3 26  4 39 23.0800000  0  4G 6G 9G11G13
  38068570.092 9 -64982848.972 8  15222671.057    15222673.012        -489.697
      -383.018
  20807737.785 9 -66021675.045 9  15774621.655    15774625.113        2207.533
      1715.334
  25583515.832 9 -62335662.997 8  15445606.468    15445610.479         264.685
       199.257
   3959994.299 9 -18737260.905 8  17492242.707    17492247.652        3110.310
      2428.061
 88  3 26  4 39 26.0800000  0  4G 6G 9G11G13
  38070088.449 9 -64981665.842 8  15222960.137    15222962.457        -507.193
      -401.062
  20801120.411 9 -66026831.440 9  15773363.539    15773365.361        2200.396
      1723.766
  25582759.178 8 -62336252.593 8  15445462.485    15445465.524         251.838
       195.088
   3950656.037 9 -18744537.461 8  17490465.911    17490470.532        3113.420
      2424.544
 88  3 26  4 39 29.0800000  0  4G 6G 9G11G13
  38071612.130 9 -64980478.558 8  15223250.243    15223250.793        -502.983
      -394.258
  20794506.608 9 -66031985.059 9  15772104.747    15772106.368        2214.638
      1723.343
  25582007.723 9 -62336838.145 8  15445319.633    15445323.087         247.867
       193.945
   3941321.289 9 -18751811.286 9  17488688.482    17488694.122        3118.061
      2423.693
 88  3 26  4 39 32.0800000  0  4G 6G 9G11G13
  38073141.159 9 -64979287.106 9  15223540.716    15223542.979        -507.448
      -399.758
  20787896.402 9 -66037135.867 8  15770846.689    15770848.746        2193.538
      1716.197
  25581261.469 9 -62337419.636 9  15445177.814    15445181.279         258.983
       177.584
   3931990.040 9 -18759082.378 9  17486913.590    17486918.503        3109.887
      2430.509
 88  3 26  4 39 35.0800000  0  4G 6G 9G11G13
  38074675.534 9 -64978091.494 8  15223832.049    15223834.754        -509.585
      -401.622
  20781289.751 9 -66042283.909 9  15769589.601    15769592.724        2200.372
      1717.291
  25580520.404 8 -62337997.085 8  15445036.625    15445040.163         246.447
       188.501
   3922662.299 8 -18766350.744 8  17485138.817    17485144.022        3103.675
      2417.802
 88  3 26  4 39 38.0800000  0  4G 6G 9G11G13
  38076215.271 9 -64976891.699 9  15224125.815    15224127.811        -511.324
      -389.306
  20774686.669 8 -66047429.158 8  15768333.182    15768334.765        2198.897
      1706.125
  25579784.551 8 -62338570.477 8  15444896.358    15444899.984         239.095
       187.718
   3913338.042 9 -18773616.400 8  17483365.324    17483369.200        3104.887
      2429.472
 88  3 26  4 39 41.0800000  0  4G 6G 9G11G13
  38077760.358 9 -64975687.732 9  15224420.154    15224421.834        -506.228
      -395.532
  20768087.260 8 -66052571.556 9  15767076.556    15767079.176        2209.598
      1706.417
  25579053.887 8 -62339139.823 7  15444757.705    15444761.329         252.580
       191.646
   3904017.296 8 -18780879.316 8  17481591.486    17481594.586        3103.564
      2405.343
 88  3 26  4 39 44.0800000  0  4G 6G 9G11G13
  38079310.788 9 -64974479.606 9  15224715.293    15224716.690        -509.872
      -398.161
  20761491.349 8 -66057711.229 8  15765821.329    15765824.851        2202.222
      1707.753
  25578328.401 9 -62339705.132 9  15444619.003    15444623.070         243.752
       183.313
   3894700.032 9 -18788139.518 8  17479817.859    17479822.345        3095.781
      2416.677
 88  3 26  4 39 47.0800000  0  4G 6G 9G11G13
  38080866.559 9 -64973267.320 8  15225010.435    15225012.857        -509.545
      -411.042
  20754899.015 9 -66062848.118 8  15764566.611    15764569.839        2206.441
      1706.063
  25577608.113 8 -62340266.402 8  15444482.786    15444487.041         240.227
       184.481
   3885386.275 9 -18795396.981 8  17478045.006    17478050.831        3119.632
      2413.005
 88  3 26  4 39 50.0800000  0  4G 6G 9G11G13
  38082427.681 9 -64972050.856 8  15225308.349    15225310.253        -515.080
      -386.566
  20748310.269 9 -66067982.197 8  15763313.267    15763315.740        2177.302
      1708.579
  25576893.001 8 -62340823.625 8  15444346.905    15444350.417         240.507
       192.596
   3876076.022 9 -18802651.717 9  17476272.329    17476279.102        3104.473
      2424.382
 88  3 26  4 39 53.0800000  0  4G 6G 9G11G13
  38083994.150 9 -64970830.246 9  15225606.029    15225608.418        -517.592
      -400.391
  20741725.100 9 -66073113.487 9  15762060.302    15762062.696        2191.903
      1710.220
  25576183.079 8 -62341376.798 8  15444211.455    15444214.652         233.074
       190.210
   3866769.243 9 -18809903.751 8  17474502.132    17474507.481        3083.476
      2414.857
 88  3 26  4 39 56.0800000  0  4G 6G 9G11G13
  38085565.967 9 -64969605.442 9  15225905.048    15225907.883        -527.767
      -417.113
  20735143.543 8 -66078241.974 9  15760808.268    15760809.610        2191.800
      1705.205
  25575478.382 9 -62341925.920 9  15444078.015    15444080.769         229.055
       186.084
   3857465.973 8 -18817153.050 8  17472732.507    17472737.612        3089.521
      2421.487
 88  3 26  4 39 59.0800000  0  4G 6G 9G11G13
  38087143.160 9 -64968376.469 9  15226204.762    15226207.599        -507.169
      -407.904
  20728565.552 9 -66083367.682 9  15759556.050    15759558.916        2201.409
      1718.273
  25574778.827 9 -62342471.018 8  15443943.141    15443948.068         240.738
       190.825
   3848166.172 8 -18824399.640 8  17470962.518    17470967.698        3111.387
      2422.699
 88  3 26  4 40  2.0800000  0  4G 6G 9G11G13
  38088725.728 9 -64967143.306 8  15226506.527    15226507.774        -516.212
      -408.954
  20721991.172 8 -66088490.571 8  15758304.414    15758307.710        2187.820
      1706.666
  25574084.510 9 -62343012.054 8  15443812.548    15443815.785         241.041
       176.913
   3838869.901 9 -18831643.486 7  17469193.457    17469197.049        3099.433
      2413.191
 88  3 26  4 40  5.0800000  0  4G 6G 9G11G13
  38090313.650 9 -64965905.957 8  15226808.693    15226810.903        -535.151
      -407.407
  20715420.490 7 -66093610.575 9  15757054.488    15757056.621        2193.084
      1695.810
  25573395.368 8 -62343549.042 7  15443680.232    15443684.573         225.132
       181.126
   3829577.107 9 -18838884.607 7  17467425.514    17467429.734        3106.706
      2417.460
 88  3 26  4 40  8.0800000  0  4G 6G 9G11G13
  38091906.953 9 -64964664.422 9  15227112.021    15227113.597        -532.535
      -408.755
  20708853.334 9 -66098727.837 9  15755804.426    15755806.783        2192.079
      1708.803
  25572711.436 8 -62344081.966 8  15443550.644    15443555.187         222.875
       186.146
   3820287.827 8 -18846123.000 9  17465655.834    17465662.082        3106.841
      2421.785
 88  3 26  4 40 11.0800000  0  4G 6G 9G11G13
  38093505.608 9 -64963418.724 8  15227415.865    15227417.444        -527.280
      -392.699
  20702289.791 8 -66103842.277 8  15754555.261    15754558.211        2196.249
      1710.667
  25572032.668 9 -62344610.877 8  15443421.743    15443425.084         222.827
       185.568
   3811002.080 8 -18853358.650 9  17463890.181    17463895.979        3101.411
      2408.345
 88  3 26  4 40 14.0800000  0  4G 6G 9G11G13
  38095109.610 9 -64962168.844 8  15227721.413    15227723.207        -533.357
      -396.607
  20695729.845 9 -66108953.918 8  15753307.602    15753310.002        2186.194
      1698.327
  25571359.085 8 -62345135.745 9  15443293.568    15443297.206         229.103
       163.037
   3801719.851 8 -18860591.546 8  17462123.389    17462128.575        3090.916
      2415.124
 88  3 26  4 40 17.0800000  0  4G 6G 9G11G13
  38096718.969 9 -64960914.803 9  15228027.778    15228029.306        -529.425
      -419.138
  20689173.510 8 -66114062.754 8  15752059.108    15752062.781        2195.667
      1710.543
  25570690.685 9 -62345656.574 8  15443165.704    15443170.549         211.592
       187.600
   3792441.159 9 -18867821.696 8  17460359.139    17460362.904        3082.176
      2409.333
 88  3 26  4 40 20.0800000  0  4G 6G 9G11G13
  38098333.701 9 -64959656.576 9  15228334.024    15228336.397        -524.609
      -417.976
  20682620.830 8 -66119168.730 9  15750812.204    15750816.190        2171.824
      1718.664
  25570027.434 8 -62346173.384 8  15443040.696    15443043.364         220.499
       187.109
   3783165.951 9 -18875049.121 9  17458593.728    17458597.561        3083.771
      2415.720
 88  3 26  4 40 23.0800000  0  4G 6G 9G11G13
  38099953.777 9 -64958394.166 9  15228643.112    15228645.120        -547.854
      -430.199
  20676071.713 8 -66124271.944 8  15749566.746    15749569.316        2182.837
      1688.341
  25569369.350 8 -62346686.181 8  15442915.257    15442917.782         205.882
       171.016
   3773894.233 9 -18882273.831 8  17456829.754    17456832.923        3089.162
      2409.059
 88  3 26  4 40 26.0800000  0  4G 6G 9G11G13
  38101579.195 9 -64957127.614 8  15228952.469    15228953.450        -547.886
      -438.637
  20669526.255 8 -66129372.296 8  15748320.661    15748323.833        2196.377
      1701.228
  25568716.437 8 -62347194.941 8  15442789.996    15442793.806         227.429
       173.924
   3764626.046 9 -18889495.795 9  17455065.157    17455069.977        3090.358
      2418.013
 88  3 26  4 40 29.0800000  0  4G 6G 9G11G13
  38103209.965 9 -64955856.892 9  15229262.895    15229264.278        -541.586
      -424.625
  20662984.396 8 -66134469.833 8  15747076.068    15747079.413        2168.419
      1701.949
  25568068.695 8 -62347699.682 9  15442667.143    15442670.798         202.860
       165.411
   3755361.375 9 -18896715.016 9  17453302.246    17453307.237        3077.089
      2398.235
 88  3 26  4 40 32.0800000  0  4G 6G 9G11G13
  38104846.091 9 -64954581.989 9  15229574.229    15229575.434        -547.408
      -419.741
  20656446.137 9 -66139564.582 9  15745831.867    15745834.507        2192.007
      1685.762
  25567426.105 8 -62348200.385 8  15442544.141    15442549.169         202.062
       162.609
   3746100.218 9 -18903931.487 8  17451539.455    17451545.212        3084.417
      2408.488
 88  3 26  4 40 35.0800000  0  4G 6G 9G11G13
  38106487.566 8 -64953302.922 8  15229885.591    15229888.342        -528.708
      -425.682
  20649911.470 8 -66144656.527 9  15744588.335    15744590.178        2166.760
      1695.704
  25566788.687 8 -62348697.071 8  15442423.299    15442425.765         219.853
       174.396
   3736842.591 9 -18911145.220 8  17449777.611    17449782.846        3085.462
      2389.983
 88  3 26  4 40 38.0800000  0  4G 6G 9G11G13
  38108134.402 9 -64952019.671 9  15230198.823    15230201.662        -547.288
      -428.490
  20643380.435 8 -66149745.643 9  15743345.686    15743348.303        2168.212
      1705.299
  25566156.442 8 -62349189.739 8  15442302.282    15442306.709         202.453
       160.782
   3727588.499 9 -18918356.195 8  17448017.457    17448021.605        3084.625
      2415.043
 88  3 26  4 40 41.0800000  0  4G 6G 9G11G13
  38109786.593 9 -64950732.246 7  15230513.919    15230517.103        -541.188
      -433.467
  20636853.067 8 -66154831.901 9  15742103.452    15742106.118        2176.457
      1703.919
  25565529.389 8 -62349678.347 8  15442183.642    15442187.798         196.951
       163.913
   3718337.920 9 -18925564.429 8  17446258.031    17446261.539        3079.473
      2409.358
 88  3 26  4 40 44.0800000  0  4G 6G 9G11G13
  38111444.149 9 -64949440.647 8  15230829.372    15230831.284        -547.639
      -427.546
  20630329.302 8 -66159915.349 8  15740862.779    15740864.725        2164.472
      1704.037
  25564907.469 8 -62350162.947 8  15442065.634    15442069.747         202.437
       166.971
   3709090.869 9 -18932769.930 8  17444498.502    17444502.177        3088.197
      2417.119
 88  3 26  4 40 47.0800000  0  4G 6G 9G11G13
  38113107.061 9 -64948144.874 8  15231145.969    15231148.088        -551.706
      -433.983
  20623809.162 8 -66164995.981 8  15739622.179    15739624.567        2172.741
      1702.229
  25564290.734 8 -62350643.530 8  15441948.440    15441951.064         194.319
       162.012
   3699847.334 9 -18939972.670 8  17442737.927    17442742.796        3091.172
      2416.379
 88  3 26  4 40 50.0800000  0  4G 6G 9G11G13
  38114775.352 9 -64946844.910 9  15231462.906    15231466.017        -558.061
      -439.041
  20617292.630 9 -66170073.789 9  15738382.130    15738384.673        2167.598
      1689.714
  25563679.176 8 -62351120.056 8  15441832.605    15441835.930         205.188
       165.237
   3690607.318 8 -18947172.683 8  17440979.955    17440984.692        3096.148
      2395.184
 88  3 26  4 40 53.0800000  0  4G 6G 9G11G13
  38116449.001 8 -64945540.770 9  15231781.842    15231783.638        -552.495
      -440.433
  20610779.743 9 -66175148.768 9  15737142.093    15737144.073        2172.087
      1705.858
  25563072.792 8 -62351592.567 8  15441716.885    15441720.742         200.978
       180.628
   3681370.812 9 -18954369.944 8  17439221.475    17439227.163        3079.282
      2404.772
 88  3 26  4 40 56.0800000  0  4G 6G 9G11G13
  38118128.004 9 -64944232.450 8  15232100.676    15232104.123        -554.904
      -429.907
  20604270.490 8 -66180220.914 9  15735904.453    15735906.094        2172.510
      1693.331
  25562471.585 8 -62352061.043 9  15441601.635    15441605.486         209.351
       148.690
   3672137.858 9 -18961564.460 8  17437464.529    17437469.902        3084.505
      2394.128
 88  3 26  4 40 59.0800000  0  4G 6G 9G11G13
  38119812.373 9 -64942919.954 9  15232421.570    15232424.141        -578.619
      -450.916
  20597764.900 9 -66185290.203 8  15734666.042    15734668.899        2174.208
      1683.351
  25561875.521 9 -62352525.511 8  15441489.273    15441492.698         195.021
       151.051
   3662908.397 9 -18968756.236 9  17435709.379    17435713.007        3073.955
      2397.222
 88  3 26  4 41  2.0800000  0  4G 6G 9G11G13
  38121502.122 9 -64941603.274 9  15232742.975    15232745.893        -559.481
      -433.523
  20591262.950 9 -66190356.653 9  15733429.109    15733431.579        2171.505
      1680.586
  25561284.603 8 -62352985.957 8  15441375.254    15441379.168         193.219
       169.854
   3653682.438 8 -18975945.288 9  17433954.757    17433958.095        3066.435
      2395.464
 88  3 26  4 41  5.0800000  0  4G 6G 9G11G13
  38123197.224 9 -64940282.410 9  15233066.114    15233068.695        -575.621
      -451.344
  20584764.671 9 -66195420.244 8  15732192.074    15732194.329        2187.366
      1685.054
  25560698.844 8 -62353442.399 8  15441265.674    15441268.409         215.148
       145.260
   3644460.008 9 -18983131.599 9  17432198.920    17432202.796        3066.834
      2399.689
 88  3 26  4 41  8.0800000  0  4G 6G 9G11G13
  38124897.660 9 -64938957.402 8  15233389.835    15233392.212        -559.632
      -440.930
  20578270.028 9 -66200481.016 8  15730956.592    15730958.512        2177.183
      1690.392
  25560118.236 8 -62353894.820 7  15441153.516    15441157.140         199.837
       150.815
   3635241.091 8 -18990315.176 8  17430444.079    17430448.590        3083.341
      2398.254
 88  3 26  4 41 11.0800000  0  4G 6G 9G11G13
  38126603.455 9 -64937628.205 8  15233714.351    15233716.664        -570.493
      -442.508
  20571779.012 8 -66205538.944 8  15729720.384    15729722.782        2180.325
      1680.133
  25559542.800 9 -62354343.202 8  15441043.932    15441048.389         177.174
       157.109
   3626025.711 9 -18997495.978 8  17428689.021    17428694.908        3065.917
      2394.712
 88  3 26  4 41 14.0800000  0  4G 6G 9G11G13
  38128314.610 9 -64936294.841 9  15234040.128    15234042.364        -561.658
      -439.631
  20565291.614 8 -66210594.052 9  15728486.458    15728489.615        2160.094
      1677.635
  25558972.508 7 -62354787.582 9  15440936.170    15440940.094         203.115
       153.878
   3616813.863 8 -19004674.027 7  17426937.433    17426942.356        3078.436
      2406.257
 88  3 26  4 41 17.0800000  0  4G 6G 9G11G13
  38130031.137 9 -64934957.283 8  15234365.757    15234367.477        -576.666
      -445.255
  20558807.899 9 -66215646.300 8  15727253.039    15727254.547        2156.178
      1689.509
  25558407.353 8 -62355227.969 8  15440828.647    15440831.486         176.401
       148.714
   3607605.527 9 -19011849.350 8  17425184.898    17425189.759        3079.704
      2402.019
 88  3 26  4 41 20.0800000  0  4G 6G 9G11G13
  38131753.017 9 -64933615.565 9  15234693.901    15234696.479        -567.471
      -446.106
  20552327.820 9 -66220695.713 8  15726019.421    15726021.521        2162.159
      1685.421
  25557847.333 8 -62355664.354 8  15440721.880    15440724.502         194.694
       140.028
   3598400.713 8 -19019021.926 8  17423434.390    17423438.808        3061.714
      2387.417
 88  3 26  4 41 23.0800000  0  4G 6G 9G11G13
  38133480.285 9 -64932269.646 8  15235022.713    15235025.676        -576.642
      -455.191
  20545851.403 8 -66225742.268 9  15724786.395    15724789.159        2168.905
      1679.679
  25557292.471 8 -62356096.713 7  15440616.058    15440620.556         165.715
       128.122
   3589199.433 8 -19026191.745 9  17421683.646    17421688.301        3081.842
      2379.140
 88  3 26  4 41 26.0800000  0  4G 6G 9G11G13
  38135212.948 9 -64930919.518 8  15235352.599    15235354.610        -577.862
      -461.467
  20539378.654 8 -66230785.968 8  15723555.037    15723558.186        2173.746
      1681.152
  25556742.749 8 -62356525.058 8  15440511.144    15440514.610         191.408
       132.689
   3580001.693 9 -19033358.820 8  17419933.475    17419936.458        3052.448
      2394.463
 88  3 26  4 41 29.0800000  0  4G 6G 9G11G13
  38136950.940 9 -64929565.239 9  15235682.744    15235685.699        -571.331
      -455.197
  20532909.619 8 -66235826.771 9  15722323.534    15722326.908        2166.800
      1690.075
  25556198.179 8 -62356949.397 8  15440407.932    15440411.642         191.903
       145.676
   3570807.513 9 -19040523.109 8  17418182.436    17418187.185        3083.955
      2388.237
 88  3 26  4 41 32.0800000  0  4G 6G 9G11G13
  38138694.338 9 -64928206.748 9  15236015.220    15236017.488        -580.262
      -445.224
  20526444.243 8 -66240864.718 8  15721093.410    15721096.174        2175.835
      1687.272
  25555658.765 8 -62357369.713 8  15440305.563    15440309.073         169.742
       137.555
   3561616.905 8 -19047684.625 9  17416433.255    17416438.706        3070.303
      2387.789
 88  3 26  4 41 35.0800000  0  4G 6G 9G11G13
  38140443.084 9 -64926844.096 9  15236347.458    15236349.988        -572.551
      -456.160
  20519982.552 8 -66245899.806 9  15719863.927    15719867.244        2150.548
      1681.543
  25555124.528 9 -62357785.998 8  15440202.630    15440206.928         174.878
       139.897
   3552429.871 8 -19054843.337 8  17414684.778    17414690.806        3062.432
      2380.992
 88  3 26  4 41 38.0800000  0  4G 6G 9G11G13
  38142197.235 9 -64925477.226 8  15236682.245    15236683.247        -591.745
      -447.169
  20513524.561 9 -66250932.012 9  15718635.085    15718637.844        2154.416
      1681.226
  25554595.470 8 -62358198.247 8  15440102.738    15440107.164         170.332
       134.205
   3543246.426 8 -19061999.269 9  17412938.541    17412942.857        3056.523
      2395.290
 88  3 26  4 41 41.0800000  0  4G 6G 9G11G13
  38143956.798 9 -64924106.136 8  15237016.144    15237018.716        -583.938
      -463.095
  20507070.265 8 -66255961.327 9  15717406.175    15717410.420        2171.011
      1679.903
  25554071.568 7 -62358606.490 7  15440003.151    15440006.420         146.481
       123.828
   3534066.547 9 -19069152.412 8  17411192.003    17411196.051        3062.918
      2384.266
 88  3 26  4 41 44.0800000  0  4G 6G 9G11G13
  38145721.739 9 -64922730.852 8  15237352.182    15237354.348        -582.024
      -455.713
  20500619.670 8 -66260987.763 9  15716179.186    15716181.787        2145.915
      1671.085
  25553552.818 8 -62359010.705 8  15439905.623    15439907.773         168.905
       124.251
   3524890.235 9 -19076302.776 8  17409445.213    17409450.027        3073.612
      2385.093
 88  3 26  4 41 47.0800000  0  4G 6G 9G11G13
  38147492.101 9 -64921351.353 9  15237689.915    15237690.857        -602.351
      -467.513
  20494172.816 8 -66266011.272 8  15714952.549    15714955.199        2150.788
      1667.481
  25553039.230 8 -62359410.894 8  15439807.192    15439810.356         199.941
       137.101
   3515717.493 9 -19083450.375 8  17407699.761    17407703.718        3060.494
      2388.548
 88  3 26  4 41 50.0800000  0  4G 6G 9G11G13
  38149267.851 9 -64919967.657 8  15238027.900    15238029.187        -597.542
      -462.299
  20487729.675 8 -66271031.894 9  15713726.225    15713729.768        2155.620
      1674.857
  25552530.825 8 -62359807.052 8  15439710.306    15439713.188         164.423
       130.701
   3506548.304 9 -19090595.187 8  17405954.376    17405960.081        3062.855
      2387.255
 88  3 26  4 41 53.0800000  0  4G 6G 9G11G13
  38151049.012 9 -64918579.741 8  15238367.018    15238367.863        -604.265
      -456.670
  20481290.273 9 -66276049.633 9  15712501.132    15712503.463        2151.362
      1682.481
  25552027.592 8 -62360199.183 8  15439614.308    15439617.831         190.515
       132.024
   3497382.716 9 -19097737.200 9  17404209.682    17404215.123        3054.194
      2386.161
 88  3 26  4 41 56.0800000  0  4G 6G 9G11G13
  38152835.593 9 -64917187.604 8  15238705.963    15238708.748        -588.452
      -459.770
  20474854.579 8 -66281064.440 8  15711276.356    15711279.557        2157.215
      1674.957
  25551529.511 8 -62360587.295 8  15439519.379    15439522.584         190.157
       116.701
   3488220.685 9 -19104876.444 8  17402467.501    17402471.659        3046.898
      2378.438
 88  3 26  4 41 59.0800000  0  4G 6G 9G11G13
  38154627.589 9 -64915791.239 9  15239046.764    15239049.627        -601.091
      -453.153
  20468422.595 8 -66286076.379 9  15710052.495    15710055.245        2149.065
      1665.189
  25551036.604 8 -62360971.384 8  15439426.290    15439429.973         161.967
       124.431
   3479062.245 8 -19112012.881 8  17400725.442    17400728.877        3052.592
      2375.797
 88  3 26  4 42  2.0800000  0  4G 6G 9G11G13
  38156424.949 9 -64914390.706 9  15239388.611    15239390.963        -595.007
      -447.827
  20461994.319 9 -66291085.410 8  15708829.518    15708832.133        2125.126
      1656.551
  25550548.827 8 -62361351.459 8  15439332.692    15439336.474         176.568
       130.173
   3469907.384 9 -19119146.533 8  17398982.274    17398986.617        3066.666
      2365.507
 88  3 26  4 42  5.0800000  0  4G 6G 9G11G13
  38158227.734 9 -64912985.933 8  15239732.325    15239734.065        -592.535
      -461.355
  20455569.793 8 -66296091.539 8  15707606.737    15707609.140        2128.978
      1671.601
  25550066.227 9 -62361727.508 8  15439240.954    15439244.697         155.667
       140.854
   3460756.155 9 -19126277.359 9  17397241.420    17397244.631        3050.861
      2368.266
 88  3 26  4 42  8.0800000  0  4G 6G 9G11G13
  38160035.931 9 -64911576.955 8  15240075.829    15240078.248        -591.745
      -467.009
  20449149.060 8 -66301094.708 8  15706385.281    15706387.023        2138.228
      1665.145
  25549588.783 8 -62362099.535 7  15439150.920    15439155.091         141.138
       130.632
   3451608.515 9 -19133405.387 9  17395499.882    17395504.984        3073.588
      2382.036
 88  3 26  4 42 11.0800000  0  4G 6G 9G11G13
  38161849.512 9 -64910163.771 8  15240421.738    15240424.309        -592.949
      -462.871
  20442731.975 8 -66306095.024 8  15705163.463    15705166.620        2149.193
      1663.971
  25549116.508 8 -62362467.542 8  15439061.126    15439064.310         143.905
       127.196
   3442464.439 9 -19140530.622 9  17393759.900    17393765.377        3042.568
      2357.106
 88  3 26  4 42 14.0800000  0  4G 6G 9G11G13
  38163668.508 9 -64908746.376 8  15240767.835    15240769.408        -627.965
      -466.668
  20436318.658 9 -66311092.416 8  15703943.036    15703945.864        2140.269
      1663.635
  25548649.394 8 -62362831.534 8  15438970.832    15438974.701         158.953
       123.263
   3433323.954 9 -19147653.087 8  17392020.904    17392025.059        3040.311
      2373.156
 88  3 26  4 42 17.0800000  0  4G 6G 9G11G13
  38165492.898 9 -64907324.773 9  15241114.387    15241116.510        -591.777
      -463.020
  20429909.057 8 -66316086.907 8  15702722.708    15702727.215        2156.864
      1653.718
  25548187.419 9 -62363191.509 8  15438884.604    15438888.042         158.179
       121.274
   3424187.030 9 -19154772.759 7  17390281.894    17390287.020        3027.026
      2381.439
 88  3 26  4 42 20.0800000  0  4G 6G 9G11G13
  38167322.712 9 -64905898.948 9  15241463.231    15241465.532        -604.632
      -479.126
  20423503.190 8 -66321078.483 9  15701504.189    15701507.320        2131.322
      1665.400
  25547730.612 8 -62363547.466 8  15438797.928    15438800.208         142.119
       111.363
   3415053.716 9 -19161889.618 8  17388544.269    17388548.210        3040.040
      2387.162
 88  3 26  4 42 23.0800000  0  4G 6G 9G11G13
  38169157.910 9 -64904468.924 9  15241812.410    15241813.940        -622.127
      -481.090
  20417101.067 8 -66326067.140 8  15700287.112    15700289.809        2123.140
      1673.838
  25547278.937 8 -62363899.413 8  15438710.583    15438714.352         157.254
       128.221
   3405923.998 9 -19169003.681 8  17386806.572    17386810.679        3065.733
      2370.795
 88  3 26  4 42 26.0800000  0  4G 6G 9G11G13
  38170998.508 9 -64903034.692 9  15242162.507    15242164.188        -612.909
      -469.470
  20410702.675 9 -66331052.905 8  15699068.268    15699071.954        2147.095
      1656.769
  25546832.417 9 -62364247.346 8  15438626.583    15438629.067         134.304
       127.594
   3396797.892 9 -19176114.925 9  17385069.495    17385074.847        3031.555
      2371.714
 88  3 26  4 42 29.0800000  0  4G 6G 9G11G13
  38172844.536 9 -64901596.229 9  15242513.510    15242515.890        -614.576
      -481.556
  20404307.993 9 -66336035.761 9  15697851.036    15697854.492        2132.933
      1645.056
  25546391.029 9 -62364591.272 8  15438541.849    15438545.845         141.609
       111.059
   3387675.378 9 -19183223.376 8  17383334.265    17383338.187        3031.125
      2371.590
 88  3 26  4 42 32.0800000  0  4G 6G 9G11G13
  38174695.956 9 -64900153.570 9  15242865.800    15242867.694        -616.394
      -482.183
  20397917.059 8 -66341015.712 9  15696635.610    15696638.685        2112.933
      1657.173
  25545954.794 9 -62364931.199 9  15438458.502    15438463.270         148.754
        97.246
   3378556.451 8 -19190329.035 9  17381598.051    17381602.969        3046.651
      2388.927
 88  3 26  4 42 35.0800000  0  4G 6G 9G11G13
  38176552.767 9 -64898706.702 8  15243219.733    15243221.139        -604.632
      -485.607
  20391529.859 9 -66345992.743 9  15695420.992    15695422.789        2129.576
      1648.728
  25545523.703 8 -62365267.120 7  15438376.840    15438379.992         159.774
       115.881
   3369441.140 9 -19197431.875 8  17379864.269    17379868.318        3031.874
      2387.435
 88  3 26  4 42 38.0800000  0  4G 6G 9G11G13
  38178414.969 9 -64897255.628 8  15243573.924    15243575.121        -622.414
      -484.930
  20385146.411 9 -66350966.864 8  15694205.623    15694207.454        2124.169
      1666.835
  25545097.748 8 -62365599.036 8  15438295.985    15438299.800         128.874
       118.068
   3360329.411 9 -19204531.909 8  17378129.565    17378133.831        3036.125
      2359.666
 88  3 26  4 42 41.0800000  0  4G 6G 9G11G13
  38180282.591 9 -64895800.350 9  15243928.530    15243931.442        -625.955
      -498.078
  20378766.759 8 -66355938.017 9  15692991.835    15692994.149        2142.678
      1661.678
  25544676.917 8 -62365926.951 8  15438215.983    15438219.635         139.264
        99.476
   3351221.288 9 -19211629.155 9  17376397.051    17376401.618        3035.654
      2373.417
 88  3 26  4 42 44.0800000  0  4G 6G 9G11G13
  38182155.624 9 -64894340.848 9  15244285.407    15244286.626        -618.882
      -476.380
  20372390.828 9 -66360906.269 8  15691778.989    15691781.254        2117.176
      1652.655
  25544261.242 8 -62366250.846 8  15438137.499    15438139.562         143.634
       104.584
   3342116.775 9 -19218723.576 8  17374664.276    17374669.148        3041.986
      2362.642
 88  3 26  4 42 47.0800000  0  4G 6G 9G11G13
  38184034.056 9 -64892877.134 9  15244643.875    15244645.274        -621.107
      -494.002
  20366018.677 8 -66365871.579 9  15690565.363    15690569.088        2131.992
      1664.679
  25543850.710 8 -62366570.742 8  15438058.091    15438061.774         132.342
       112.022
   3333015.840 9 -19225815.200 8  17372933.366    17372937.326        3031.252
      2362.189
 88  3 26  4 42 50.0800000  0  4G 6G 9G11G13
  38185917.879 9 -64891409.212 8  15245000.763    15245003.013        -632.701
      -488.950
  20359650.308 9 -66370833.943 8  15689354.625    15689355.838        2120.461
      1650.549
  25543445.310 8 -62366886.634 8  15437981.349    15437985.276         128.387
       112.501
   3323918.529 9 -19232904.011 8  17371201.137    17371205.195        3038.389
      2357.845
 88  3 26  4 42 53.0800000  0  4G 6G 9G11G13
  38187807.117 9 -64889937.080 8  15245361.238    15245362.306        -633.658
      -492.250
  20353285.684 9 -66375793.385 9  15688142.848    15688145.962        2115.684
      1636.661
  25543045.069 8 -62367198.510 8  15437905.631    15437908.769         140.867
        94.331
   3314824.834 9 -19239989.992 8  17369470.526    17369474.995        3026.348
      2361.400
 88  3 26  4 42 56.0800000  0  4G 6G 9G11G13
  38189701.779 9 -64888460.736 9  15245722.183    15245723.177        -643.778
      -483.613
  20346924.806 9 -66380749.913 8  15686932.457    15686934.807        2132.614
      1654.625
  25542649.952 7 -62367506.389 8  15437829.938    15437833.935         132.781
       105.808
   3305734.775 9 -19247073.167 9  17367741.020    17367745.035        3025.774
      2360.878
 88  3 26  4 42 59.0800000  0  4G 6G 9G11G13
  38191601.858 9 -64886980.146 9  15246082.778    15246085.500        -618.419
      -495.506
  20340567.692 8 -66385703.518 9  15685723.671    15685724.543        2107.399
      1658.850
  25542259.969 7 -62367810.268 9  15437755.154    15437760.128         127.215
       117.329
   3296648.335 9 -19254153.498 9  17366012.493    17366016.983        3036.316
      2366.284
 88  3 26  4 43  2.0800000  0  4G 6G 9G11G13
  38193507.394 9 -64885495.320 9  15246445.270    15246447.803        -628.204
      -487.608
  20334214.351 9 -66390654.182 8  15684513.605    15684516.126        2128.866
      1645.130
  25541875.131 8 -62368110.143 9  15437682.591    15437686.114         129.735
        88.130
   3287565.532 8 -19261231.007 8  17364283.908    17364287.942        3011.189
      2356.130
 88  3 26  4 43  5.0800000  0  4G 6G 9G11G13
  38195418.302 9 -64884006.290 9  15246809.096    15246811.080        -632.518
      -494.468
  20327864.763 9 -66395601.901 9  15683305.274    15683307.709        2116.059
      1645.174
  25541495.411 9 -62368406.024 9  15437610.553    15437613.649         112.981
        95.748
   3278486.364 9 -19268305.682 9  17362556.457    17362560.398        3023.661
      2346.940
 88  3 26  4 43  8.0800000  0  4G 6G 9G11G13
  38197334.635 9 -64882513.057 9  15247174.426    15247176.379        -642.342
      -491.044
  20321519.012 8 -66400546.641 8  15682098.418    15682099.773        2126.793
      1646.473
  25541120.817 8 -62368697.902 9  15437539.168    15437543.166         117.351
       103.627
   3269410.790 9 -19275377.542 8  17360828.745    17360833.487        3038.740
      2360.797
 88  3 26  4 43 11.0800000  0  4G 6G 9G11G13
  38199256.358 9 -64881015.590 8  15247540.333    15247541.894        -649.902
      -490.442
  20315177.031 9 -66405488.449 8  15680891.885    15680892.168        2110.740
      1650.387
  25540751.341 9 -62368985.812 8  15437468.532    15437472.016         127.542
       116.136
   3260338.817 8 -19282446.615 7  17359102.124    17359106.145        3010.168
      2367.452
 88  3 26  4 43 14.0800000  0  4G 6G 9G11G13
  38201183.508 9 -64879513.924 9  15247905.951    15247909.154        -628.571
      -498.060
  20308838.793 8 -66410427.336 9  15679684.482    15679687.212        2120.421
      1651.475
  25540387.003 9 -62369269.710 8  15437399.773    15437402.384         116.242
        99.868
   3251270.440 9 -19289512.868 8  17357376.009    17357382.165        3033.198
      2368.179
 88  3 26  4 43 17.0800000  0  4G 6G 9G11G13
  38203116.038 9 -64878008.066 9  15248274.332    15248276.577        -652.095
      -505.429
  20302504.340 9 -66415363.279 9  15678479.789    15678481.835        2110.286
      1656.110
  25540027.786 7 -62369549.623 8  15437331.253    15437334.404         137.621
        85.396
   3242205.685 9 -19296576.316 8  17355652.085    17355656.374        3014.777
      2347.934
 88  3 26  4 43 20.0800000  0  4G 6G 9G11G13
  38205053.938 9 -64876498.012 8  15248642.940    15248645.041        -646.832
      -513.961
  20296173.663 9 -66420296.260 9  15677274.793    15677276.607        2120.381
      1650.437
  25539673.669 8 -62369825.555 8  15437264.711    15437266.896          91.147
        99.905
   3233144.490 9 -19303636.983 8  17353928.202    17353931.648        3028.023
      2345.567
 88  3 26  4 43 23.0800000  0  4G 6G 9G11G13
  38206997.260 9 -64874983.732 9  15249012.521    15249015.255        -645.054
      -507.971
  20289846.741 9 -66425226.333 9  15676070.156    15676072.828        2120.525
      1649.207
  25539324.649 8 -62370097.504 7  15437196.815    15437200.557         110.062
       101.104
   3224086.912 9 -19310694.825 9  17352203.737    17352209.071        3008.493
      2346.486
 88  3 26  4 43 26.0800000  0  4G 6G 9G11G13
  38208945.986 9 -64873465.249 8  15249383.438    15249385.469        -648.770
      -501.446
  20283523.599 9 -66430153.458 9  15674868.420    15674869.453        2114.640
      1644.615
  25538980.729 7 -62370365.492 7  15437131.178    15437135.246         122.191
        87.235
   3215032.952 9 -19317749.860 9  17350480.365    17350486.079        3014.650
      2354.341
 88  3 26  4 43 29.0800000  0  4G 6G 9G11G13
  38210900.115 9 -64871942.550 8  15249754.800    15249757.700        -638.323
      -516.254
  20277204.218 9 -66435077.641 9  15673664.655    15673667.391        2109.831
      1642.999
  25538641.911 8 -62370629.517 8  15437066.923    15437070.963         123.164
        85.968
   3205982.613 9 -19324802.068 9  17348759.072    17348763.928        3014.713
      2354.521
 88  3 26  4 43 32.0800000  0  4G 6G 9G11G13
  38212859.671 9 -64870415.622 8  15250128.335    15250129.641        -658.570
      -495.549
  20270888.606 8 -66439998.898 8  15672462.569    15672464.755        2100.764
      1642.788
  25538308.186 8 -62370889.557 8  15437003.130    15437007.256         113.363
        85.328
   3196935.885 9 -19331851.462 8  17347036.456    17347042.706        3028.055
      2346.598
 88  3 26  4 43 35.0800000  0  4G 6G 9G11G13
  38214824.586 9 -64868884.521 8  15250502.687    15250503.889        -657.972
      -499.458
  20264576.797 8 -66444917.195 8  15671262.084    15671264.515        2093.819
      1641.290
  25537979.571 9 -62371145.620 8  15436941.428    15436944.580         123.315
        84.271
   3187892.794 9 -19338898.033 9  17345316.225    17345321.408        3022.831
      2346.953
 88  3 26  4 43 38.0800000  0  4G 6G 9G11G13
  38216794.929 9 -64867349.200 9  15250876.989    15250879.693        -651.593
      -506.336
  20258268.768 9 -66449832.539 8  15670062.029    15670064.200        2110.086
      1638.370
  25537656.047 8 -62371397.709 8  15436880.022    15436882.991         109.041
        92.728
   3178853.265 9 -19345941.804 8  17343596.389    17343600.610        3008.007
      2341.957
 88  3 26  4 43 41.0800000  0  4G 6G 9G11G13
  38218770.629 9 -64865809.687 8  15251253.129    15251255.073        -645.963
      -511.059
  20251964.565 8 -66454744.899 8  15668862.127    15668865.333        2118.946
      1631.410
  25537337.612 8 -62371645.839 7  15436818.734    15436823.349          90.525
        93.256
   3169817.398 9 -19352982.741 8  17341876.787    17341882.633        3009.044
      2347.655
 88  3 26  4 43 44.0800000  0  4G 6G 9G11G13
  38220751.762 9 -64864265.942 9  15251629.880    15251631.951        -659.097
      -502.857
  20245664.157 8 -66459654.304 9  15667661.735    15667665.112        2086.658
      1648.299
  25537024.308 8 -62371889.978 8  15436759.681    15436762.304         102.008
        79.748
   3160785.162 9 -19360020.845 7  17340158.513    17340162.616        2993.677
      2333.518
 88  3 26  4 43 47.0800000  0  4G 6G 9G11G13
  38222738.311 9 -64862717.992 8  15252008.110    15252010.212        -665.516
      -507.343
  20239367.525 9 -66464560.779 8  15666465.174    15666467.547        2091.722
      1630.901
  25536716.096 9 -62372130.136 8  15436700.365    15436703.805         100.006
        87.503
   3151756.531 8 -19367056.125 8  17338438.925    17338445.065        3017.026
      2346.592
 88  3 26  4 43 50.0800000  0  4G 6G 9G11G13
  38224730.287 9 -64861165.796 9  15252386.763    15252389.782        -668.474
      -516.981
  20233074.679 8 -66469464.292 8  15665267.710    15665269.245        2104.576
      1637.531
  25536412.998 8 -62372366.326 8  15436643.566    15436645.990         110.979
        91.299
   3142731.519 8 -19374088.607 8  17336721.932    17336728.029        3002.337
      2347.686
 88  3 26  4 43 53.0800000  0  4G 6G 9G11G13
  38226727.666 9 -64859609.406 9  15252767.388    15252768.327        -668.594
      -521.479
  20226785.659 8 -66474364.829 8  15664070.679    15664073.410        2088.237
      1637.972
  25536114.992 8 -62372598.532 9  15436586.196    15436588.890          97.805
        71.925
   3133710.094 9 -19381118.280 8  17335006.129    17335010.445        3009.961
      2332.934
 88  3 26  4 43 56.0800000  0  4G 6G 9G11G13
  38228730.403 9 -64858048.825 9  15253147.957    15253149.858        -665.604
      -515.707
  20220500.430 8 -66479262.411 8  15662874.404    15662876.964        2091.769
      1649.089
  25535822.075 8 -62372826.780 8  15436530.750    15436534.286         110.453
        64.953
   3124692.303 9 -19388145.113 7  17333290.438    17333293.226        3004.387
      2354.490
 88  3 26  4 43 59.0800000  0  4G 6G 9G11G13
  38230738.566 9 -64856484.025 8  15253529.930    15253532.675        -659.168
      -523.561
  20214219.015 9 -66484157.019 9  15661678.786    15661681.045        2084.353
      1637.276
  25535534.233 9 -62373051.062 8  15436476.658    15436480.739         110.572
        73.074
   3115678.161 9 -19395169.130 8  17331575.206    17331579.100        3014.857
      2343.578
 88  3 26  4 44  2.0800000  0  4G 6G 9G11G13
  38232752.127 9 -64854915.021 8  15253914.112    15253915.549        -673.395
      -530.042
  20207941.395 9 -66489048.660 9  15660484.958    15660487.293        2094.672
      1630.460
  25535251.477 9 -62373271.390 8  15436421.693    15436426.306          85.254
        73.360
   3106667.633 8 -19402190.311 9  17329859.828    17329864.389        2997.792
      2347.120
 88  3 26  4 44  5.0800000  0  4G 6G 9G11G13
  38234771.095 9 -64853341.788 9  15254298.335    15254300.048        -659.798
      -522.890
  20201667.609 9 -66493937.323 8  15659290.597    15659292.847        2089.265
      1623.941
  25534973.820 8 -62373487.749 8  15436369.675    15436372.756          96.466
        76.392
   3097660.744 9 -19409208.668 8  17328146.261    17328150.775        3027.839
      2335.967
 88  3 26  4 44  8.0800000  0  4G 6G 9G11G13
  38236795.514 9 -64851764.331 8  15254683.869    15254685.378        -668.028
      -510.077
  20195397.623 9 -66498823.024 9  15658097.124    15658099.615        2092.854
      1614.615
  25534701.252 8 -62373700.138 7  15436317.429    15436320.555          93.340
        79.275
   3088657.494 9 -19416224.176 8  17326431.736    17326436.905        2995.623
      2328.988
 88  3 26  4 44 11.0800000  0  4G 6G 9G11G13
  38238825.339 9 -64850182.650 8  15255070.010    15255070.833        -670.013
      -534.087
  20189131.455 8 -66503705.758 8  15656905.940    15656907.845        2069.521
      1641.464
  25534433.794 8 -62373908.540 8  15436267.314    15436270.068          86.139
        78.890
   3079657.900 9 -19423236.843 8  17324719.846    17324724.421        2998.996
      2335.538
 88  3 26  4 44 14.0800000  0  4G 6G 9G11G13
  38240860.608 9 -64848596.728 9  15255456.392    15255458.192        -669.120
      -529.787
  20182869.116 9 -66508585.498 9  15655713.342    15655715.779        2081.857
      1623.898
  25534171.458 8 -62374112.965 8  15436217.300    15436220.727          72.862
        71.626
   3070661.953 8 -19430246.667 9  17323008.488    17323012.686        2979.690
      2338.725
 88  3 26  4 44 17.0800000  0  4G 6G 9G11G13
  38242901.305 9 -64847006.579 8  15255845.210    15255846.736        -684.973
      -535.790
  20176610.634 8 -66513462.243 9  15654522.390    15654524.506        2083.492
      1635.077
  25533914.220 8 -62374313.398 8  15436168.362    15436171.813          88.531
        56.713
   3061669.631 8 -19437253.671 7  17321296.963    17321301.673        3002.449
      2333.139
 88  3 26  4 44 20.0800000  0  4G 6G 9G11G13
  38244947.417 9 -64845412.196 8  15256234.275    15256236.735        -684.989
      -530.465
  20170356.011 9 -66518335.970 8  15653332.402    15653335.396        2083.396
      1627.079
  25533662.110 8 -62374509.857 8  15436120.164    15436122.816          80.214
        58.136
   3052680.976 9 -19444257.803 8  17319587.387    17319591.346        2994.658
      2333.145
 88  3 26  4 44 23.0800000  0  4G 6G 9G11G13
  38246998.970 9 -64843813.597 9  15256625.242    15256627.174        -699.726
      -533.199
  20164105.213 8 -66523206.726 9  15652141.794    15652144.437        2092.240
      1623.687
  25533415.102 8 -62374702.322 8  15436072.602    15436076.340          79.345
        60.087
   3043695.960 9 -19451259.115 8  17317877.058    17317881.229        3006.037
      2346.356
 88  3 26  4 44 26.0800000  0  4G 6G 9G11G13
  38249055.946 9 -64842210.750 9  15257016.027    15257017.862        -698.641
      -538.971
  20157858.290 9 -66528074.449 8  15650954.111    15650956.742        2074.824
      1622.556
  25533173.200 9 -62374890.814 8  15436027.233    15436029.917          73.747
        73.484
   3034714.615 9 -19458257.573 7  17316168.203    17316173.182        2995.806
      2343.920
 88  3 26  4 44 29.0800000  0  4G 6G 9G11G13
  38251118.378 9 -64840603.666 9  15257408.770    15257410.449        -684.718
      -537.399
  20151615.228 8 -66532939.176 8  15649765.826    15649768.835        2082.551
      1625.277
  25532936.409 8 -62375075.318 8  15435981.633    15435985.099          76.362
        61.436
   3025736.917 9 -19465253.169 8  17314458.581    17314463.211        2992.194
      2333.537
 88  3 26  4 44 32.0800000  0  4G 6G 9G11G13
  38253186.267 9 -64838992.334 8  15257802.517    15257803.826        -696.432
      -535.715
  20145376.046 9 -66537800.878 9  15648578.573    15648580.250        2089.624
      1623.805
  25532704.734 8 -62375255.848 9  15435937.896    15435940.303          84.488
        53.544
   3016762.878 9 -19472245.920 8  17312751.786    17312756.156        2993.725
      2323.831
 88  3 26  4 44 35.0800000  0  4G 6G 9G11G13
  38255259.578 9 -64837376.752 9  15258197.263    15258198.430        -689.192
      -536.566
  20139140.793 9 -66542659.500 9  15647392.590    15647394.834        2072.479
      1628.111
  25532478.157 9 -62375432.396 8  15435894.453    15435898.322          75.493
        67.109
   3007792.502 8 -19479235.818 8  17311044.932    17311049.021        2989.235
      2331.636
 88  3 26  4 44 38.0800000  0  4G 6G 9G11G13
  38257338.359 9 -64835756.925 8  15258593.097    15258594.451        -701.257
      -544.949
  20132909.327 8 -66547515.205 9  15646206.639    15646207.459        2076.275
      1620.922
  25532256.693 9 -62375604.969 8  15435852.307    15435855.674          71.650
        47.983
   2998825.800 9 -19486222.858 8  17309338.123    17309342.507        2989.156
      2321.973
 88  3 26  4 44 41.0800000  0  4G 6G 9G11G13
  38259422.553 9 -64834132.880 9  15258989.700    15258991.378        -689.909
      -550.964
  20126681.717 7 -66552367.870 8  15645021.509    15645023.437        2089.090
      1628.018
  25532040.322 8 -62375773.570 8  15435811.937    15435813.829          68.938
        38.774
   2989862.743 8 -19493207.051 9  17307633.404    17307637.929        2982.928
      2317.860
 88  3 26  4 44 44.0800000  0  4G 6G 9G11G13
  38261512.180 9 -64832504.604 8  15259386.444    15259388.520        -707.644
      -536.703
  20120457.995 8 -66557217.531 8  15643836.718    15643839.212        2069.369
      1620.424
  25531829.058 8 -62375938.192 8  15435771.583    15435774.736          75.629
        64.101
   2980903.377 9 -19500188.381 9  17305927.588    17305932.518        2978.701
      2324.042
 88  3 26  4 44 47.0800000  0  4G 6G 9G11G13
  38263607.266 9 -64830872.073 7  15259785.195    15259786.953        -692.493
      -548.012
  20114238.216 9 -66562064.119 8  15642652.939    15642655.402        2086.522
      1609.886
  25531622.873 8 -62376098.839 8  15435732.174    15435734.956          63.069
        56.788
   2971947.650 8 -19507166.860 8  17304223.788    17304227.329        2989.530
      2332.835
 88  3 26  4 44 50.0800000  0  4G 6G 9G11G13
  38265707.797 9 -64829235.296 8  15260185.083    15260186.801        -693.362
      -545.651
  20108022.264 9 -66566907.712 8  15641470.296    15641471.438        2067.527
      1616.945
  25531421.798 8 -62376255.529 8  15435693.260    15435697.972          73.396
        46.622
   2962995.601 9 -19514142.472 8  17302520.091    17302524.361        2999.690
      2327.255
 88  3 26  4 44 53.0800000  0  4G 6G 9G11G13
  38267813.763 9 -64827594.289 8  15260585.931    15260587.001        -699.008
      -565.355
  20101810.184 9 -66571748.295 8  15640288.744    15640290.737        2064.888
      1607.984
  25531225.816 8 -62376408.235 7  15435656.789    15435659.455          70.477
        53.004
   2954047.233 9 -19521115.224 9  17300816.875    17300821.294        2977.274
      2331.058
 88  3 26  4 44 56.0800000  0  4G 6G 9G11G13
  38269925.153 9 -64825949.036 8  15260988.105    15260988.973        -704.311
      -536.473
  20095601.957 9 -66576585.862 8  15639108.039    15639108.452        2056.132
      1618.548
  25531034.904 8 -62376556.988 8  15435620.039    15435623.048          60.470
        46.144
   2945102.524 9 -19528085.120 8  17299115.117    17299119.429        2978.071
      2312.012
 88  3 26  4 44 59.0800000  0  4G 6G 9G11G13
  38272042.003 9 -64824299.552 9  15261390.941    15261393.017        -696.369
      -549.044
  20089397.590 9 -66581420.435 8  15637927.050    15637929.011        2052.615
      1620.828
  25530849.082 8 -62376701.794 8  15435583.872    15435588.757          59.784
        46.305
   2936161.502 9 -19535052.151 9  17297414.512    17297417.217        2966.867
      2321.066
 88  3 26  4 45  2.0800000  0  4G 6G 9G11G13
  38274164.259 9 -64822645.845 9  15261793.806    15261795.798        -690.141
      -551.697
  20083197.132 9 -66586251.967 8  15636746.574    15636748.523        2068.660
      1608.767
  25530668.348 8 -62376842.621 8  15435550.519    15435554.187          55.581
        45.727
   2927224.165 9 -19542016.306 9  17295712.916    17295717.878        2973.191
      2317.151
 88  3 26  4 45  5.0800000  0  4G 6G 9G11G13
  38276291.990 9 -64820987.882 8  15262199.925    15262201.913        -715.069
      -568.145
  20077000.587 8 -66591080.440 8  15635568.301    15635570.272        2061.850
      1605.971
  25530492.697 9 -62376979.493 8  15435516.319    15435519.500          70.980
        49.822
   2918290.501 9 -19548977.602 8  17294012.811    17294016.500        2974.411
      2318.058
 88  3 26  4 45  8.0800000  0  4G 6G 9G11G13
  38278425.151 9 -64819325.681 8  15262605.053    15262607.494        -709.494
      -544.849
  20070807.927 9 -66595905.884 8  15634390.059    15634390.591        2068.979
      1605.145
  25530322.096 8 -62377112.433 8  15435483.929    15435487.640          60.095
        41.676
   2909360.501 9 -19555936.040 9  17292313.297    17292318.081        2963.079
      2315.386
 88  3 26  4 45 11.0800000  0  4G 6G 9G11G13
  38280563.730 9 -64817659.248 8  15263012.591    15263014.125        -700.467
      -539.636
  20064619.098 8 -66600728.345 7  15633211.599    15633214.180        2053.548
      1608.805
  25530156.560 9 -62377241.408 8  15435453.703    15435456.471          42.679
        39.252
   2900434.228 9 -19562891.589 8  17290614.300    17290620.436        2994.594
      2308.439
 88  3 26  4 45 14.0800000  0  4G 6G 9G11G13
  38282707.735 9 -64815988.596 8  15263419.555    15263422.420        -694.830
      -554.562
  20058434.167 9 -66605547.765 8  15632034.350    15632035.747        2071.387
      1602.355
  25529996.093 8 -62377366.450 8  15435422.848    15435425.504          36.945
        52.177
   2891511.602 9 -19569844.265 7  17288916.363    17288922.202        2965.416
      2318.624
 88  3 26  4 45 17.0800000  0  4G 6G 9G11G13
  38284857.171 9 -64814313.697 8  15263829.007    15263831.491        -710.619
      -556.600
  20052253.146 9 -66610364.155 8  15630858.972    15630860.265        2067.567
      1611.943
  25529840.698 8 -62377487.542 8  15435392.814    15435396.772          55.462
        67.463
   2882592.646 9 -19576794.106 7  17287219.711    17287224.427        2974.515
      2321.812
 88  3 26  4 45 20.0800000  0  4G 6G 9G11G13
  38287012.054 9 -64812634.582 7  15264239.604    15264241.177        -721.966
      -560.483
  20046075.995 9 -66615177.512 7  15629683.142    15629684.829        2047.807
      1607.506
  25529690.367 8 -62377604.685 9  15435363.518    15435367.747          41.594
        49.946
   2873677.393 9 -19583741.049 8  17285523.230    17285528.300        2962.721
      2315.001
 88  3 26  4 45 23.0800000  0  4G 6G 9G11G13
  38289172.390 9 -64810951.209 9  15264650.607    15264652.074        -712.963
      -567.238
  20039902.764 9 -66619987.819 8  15628508.526    15628509.512        2051.156
      1610.582
  25529545.095 8 -62377717.877 8  15435335.799    15435339.984          39.672
        39.358
   2864765.798 9 -19590685.137 9  17283826.531    17283832.081        2986.309
      2313.752
 88  3 26  4 45 26.0800000  0  4G 6G 9G11G13
  38291338.159 9 -64809263.597 9  15265061.723    15265063.821        -722.716
      -563.230
  20033733.415 9 -66624795.097 8  15627334.679    15627336.485        2066.371
      1602.523
  25529404.897 8 -62377827.117 8  15435309.971    15435312.737          49.042
        34.232
   2855857.887 8 -19597626.369 8  17282131.566    17282136.493        2958.000
      2310.863
 88  3 26  4 45 29.0800000  0  4G 6G 9G11G13
  38293509.333 9 -64807571.767 9  15265475.332    15265477.508        -708.043
      -559.489
  20027567.963 9 -66629599.355 8  15626160.611    15626163.263        2058.157
      1600.248
  25529269.790 8 -62377932.403 9  15435284.655    15435286.977          47.934
        28.055
   2846953.677 8 -19604564.709 9  17280438.290    17280441.148        2945.998
      2320.351
 88  3 26  4 45 32.0800000  0  4G 6G 9G11G13
  38295685.978 9 -64805875.678 9  15265889.802    15265891.206        -718.091
      -562.708
  20021406.413 9 -66634400.553 8  15624988.462    15624990.258        2061.754
      1584.279
  25529139.740 8 -62378033.740 8  15435258.966    15435262.675          50.573
        26.148
   2838053.160 8 -19611500.165 8  17278743.972    17278748.357        2962.593
      2325.117
 88  3 26  4 45 35.0800000  0  4G 6G 9G11G13
  38297868.048 9 -64804175.369 8  15266304.877    15266307.773        -718.753
      -565.417
  20015248.840 9 -66639198.666 8  15623816.333    15623817.467        2050.957
      1593.854
  25529014.756 8 -62378131.118 8  15435236.139    15435239.236          47.695
        41.073
   2829156.337 9 -19618432.764 8  17277050.338    17277055.664        2974.156
      2312.969
 88  3 26  4 45 38.0800000  0  4G 6G 9G11G13
  38300055.588 9 -64802470.793 8  15266721.623    15266722.909        -714.558
      -554.009
  20009095.137 9 -66643993.757 9  15622646.078    15622648.249        2060.023
      1598.042
  25528894.856 9 -62378224.547 8  15435213.671    15435215.996          62.160
        56.061
   2820263.178 9 -19625362.485 8  17275359.350    17275363.038        2963.183
      2324.527
 88  3 26  4 45 41.0800000  0  4G 6G 9G11G13
  38302248.560 9 -64800761.984 8  15267138.412    15267139.730        -725.467
      -569.860
  20002945.361 9 -66648785.790 9  15621475.663    15621476.477        2043.381
      1603.809
  25528780.011 8 -62378314.036 8  15435191.151    15435193.987          62.304
        35.506
   2811373.680 9 -19632289.366 8  17273667.797    17273671.826        2965.815
      2299.467
 88  3 26  4 45 44.0800000  0  4G 6G 9G11G13
  38304446.979 9 -64799048.920 8  15267556.886    15267559.294        -737.724
      -556.854
  19996799.538 9 -66653574.730 8  15620305.413    15620307.965        2040.710
      1596.781
  25528670.238 8 -62378399.576 7  15435170.465    15435173.545          29.712
        15.491
   2802487.881 9 -19639213.358 9  17271975.986    17271981.279        2957.019
      2314.678
 88  3 26  4 45 47.0800000  0  4G 6G 9G11G13
  38306650.855 9 -64797331.629 8  15267976.324    15267978.408        -725.850
      -568.319
  19990657.612 8 -66658360.650 8  15619137.064    15619138.064        2044.776
      1597.272
  25528565.551 8 -62378481.144 8  15435149.772    15435153.799          34.617
        35.325
   2793605.777 9 -19646134.472 7  17270285.403    17270290.352        2955.344
      2315.865
 88  3 26  4 45 50.0800000  0  4G 6G 9G11G13
  38308860.183 9 -64795610.062 9  15268397.104    15268398.835        -726.376
      -573.806
  19984519.592 9 -66663143.524 9  15617968.120    15617970.054        2062.089
      1599.055
  25528465.958 8 -62378558.740 9  15435130.709    15435133.133          36.076
        35.369
   2784727.394 9 -19653052.691 8  17268596.531    17268599.999        2958.909
      2308.937
 88  3 26  4 45 53.0800000  0  4G 6G 9G11G13
  38311074.971 9 -64793884.260 9  15268817.556    15268820.227        -731.049
      -568.524
  19978385.474 9 -66667923.355 7  15616802.016    15616803.768        2028.509
      1595.339
  25528371.424 9 -62378632.408 7  15435113.503    15435115.469          35.111
        28.708
   2775852.698 8 -19659968.030 8  17266906.943    17266911.843        2955.169
      2292.153
 88  3 26  4 45 56.0800000  0  4G 6G 9G11G13
  38313295.196 9 -64792154.223 9  15269240.040    15269242.585        -735.842
      -580.113
  19972255.293 9 -66672700.122 8  15615635.683    15615637.201        2052.711
      1589.871
  25528281.960 8 -62378702.115 8  15435097.559    15435100.154          28.261
        17.921
   2766981.745 9 -19666880.464 8  17265219.994    17265223.647        2954.037
      2307.327
 88  3 26  4 45 59.0800000  0  4G 6G 9G11G13
  38315520.889 9 -64790419.916 8  15269664.077    15269666.258        -736.799
      -575.440
  19966129.092 9 -66677473.783 9  15614469.768    15614471.717        2041.268
      1585.944
  25528197.574 8 -62378767.872 9  15435080.028    15435083.210          23.245
        25.744
   2758114.507 8 -19673789.991 8  17263532.048    17263536.711        2963.087
      2295.397
 88  3 26  4 46  2.0800000  0  4G 6G 9G11G13
  38317752.058 9 -64788681.348 9  15270088.469    15270090.678        -752.133
      -570.003
  19960006.839 9 -66682244.361 8  15613305.086    15613307.007        2043.660
      1596.371
  25528118.248 8 -62378829.677 8  15435064.386    15435067.643          19.210
        43.751
   2749250.975 9 -19680696.631 8  17261845.483    17261850.385        2950.544
      2302.356
 88  3 26  4 46  5.0800000  0  4G 6G 9G11G13
  38319988.681 9 -64786938.518 8  15270514.664    15270515.131        -746.145
      -580.896
  19953888.518 9 -66687011.889 8  15612140.235    15612142.348        2050.374
      1592.239
  25528044.001 7 -62378887.522 8  15435050.330    15435054.358          11.507
        26.707
   2740391.146 9 -19687600.393 8  17260159.190    17260164.196        2947.832
      2283.578
 88  3 26  4 46  8.0800000  0  4G 6G 9G11G13
  38322230.771 9 -64785191.445 8  15270940.747    15270943.048        -730.148
      -579.392
  19947774.146 8 -66691776.337 9  15610976.450    15610978.756        2031.164
      1575.455
  25527974.818 8 -62378941.438 8  15435038.796    15435040.615          35.199
        11.054
   2731535.006 9 -19694501.279 8  17258474.301    17258479.481        2958.255
      2287.163
 88  3 26  4 46 11.0800000  0  4G 6G 9G11G13
  38324478.304 9 -64783440.117 8  15271369.288    15271370.189        -750.778
      -581.498
  19941663.737 9 -66696537.697 8  15609813.516    15609815.213        2038.676
      1570.403
  25527910.701 8 -62378991.402 8  15435024.938    15435028.106          19.792
        17.063
   2722682.594 9 -19701399.255 8  17256789.286    17256794.687        2963.789
      2301.300
 88  3 26  4 46 14.0800000  0  4G 6G 9G11G13
  38326731.266 9 -64781684.554 8  15271796.773    15271800.049        -735.012
      -569.450
  19935557.279 9 -66701295.972 9  15608651.793    15608653.205        2033.206
      1578.829
  25527851.671 8 -62379037.389 8  15435014.434    15435017.200          29.433
        18.741
   2713833.925 9 -19708294.326 9  17255106.117    17255110.773        2935.408
      2305.003
 88  3 26  4 46 17.0800000  0  4G 6G 9G11G13
  38328989.706 8 -64779924.735 8  15272227.044    15272228.501        -743.553
      -586.929
  19929454.758 8 -66706051.185 8  15607490.590    15607493.297        2031.834
      1575.673
  25527797.667 8 -62379079.459 8  15435004.144    15435008.211          17.440
        -1.255
   2704988.928 9 -19715186.529 8  17253422.691    17253426.525        2955.225
      2289.804
 88  3 26  4 46 20.0800000  0  4G 6G 9G11G13
  38331253.612 9 -64778160.655 8  15272658.006    15272660.237        -747.931
      -578.951
  19923356.206 8 -66710803.289 8  15606329.438    15606331.989        2025.646
      1586.280
  25527748.736 9 -62379117.598 8  15434994.347    15434997.962           8.708
        23.022
   2696147.639 9 -19722075.837 9  17251739.768    17251744.141        2951.596
      2304.369
 88  3 26  4 46 23.0800000  0  4G 6G 9G11G13
  38333522.954 9 -64776392.334 9  15273089.667    15273091.850        -756.966
      -602.377
  19917261.607 8 -66715552.331 8  15605170.334    15605172.068        2028.190
      1578.295
  25527704.833 9 -62379151.799 9  15434986.049    15434989.489           8.357
         9.992
   2687310.042 8 -19728962.264 9  17250058.864    17250063.328        2947.179
      2291.768
 88  3 26  4 46 26.0800000  0  4G 6G 9G11G13
  38335797.761 8 -64774619.766 8  15273522.651    15273524.198        -768.704
      -604.918
  19911170.937 8 -66720298.301 8  15604011.048    15604012.303        2026.627
      1574.610
  25527665.945 8 -62379182.089 8  15434979.155    15434982.078          23.126
        11.856
   2678476.111 9 -19735845.837 9  17248377.018    17248382.415        2947.123
      2300.430
 88  3 26  4 46 29.0800000  0  4G 6G 9G11G13
  38338077.998 9 -64772842.953 9  15273956.408    15273959.654        -756.902
      -586.134
  19905084.206 8 -66725041.226 8  15602854.055    15602854.879        2028.748
      1564.016
  25527632.114 8 -62379208.464 9  15434972.536    15434975.175           2.974
        16.504
   2669645.928 9 -19742726.497 8  17246697.263    17246701.833        2941.628
      2310.030
 88  3 26  4 46 32.0800000  0  4G 6G 9G11G13
  38340363.719 9 -64771061.878 8  15274391.566    15274392.641        -762.604
      -578.907
  19899001.435 8 -66729781.037 7  15601695.158    15601696.529        2022.337
      1581.681
  25527603.333 8 -62379230.891 8  15434966.482    15434969.734          22.360
        14.851
   2660819.470 9 -19749604.261 8  17245018.000    17245022.315        2936.908
      2292.743
 88  3 26  4 46 35.0800000  0  4G 6G 9G11G13
  38342654.866 9 -64769276.566 8  15274827.724    15274828.854        -777.667
      -582.374
  19892922.676 8 -66734517.736 8  15600538.371    15600539.883        2036.555
      1581.694
  25527579.587 8 -62379249.382 8  15434962.442    15434964.866          -1.627
        11.452
   2651996.742 9 -19756479.112 9  17243339.138    17243343.913        2935.536
      2301.449
 88  3 26  4 46 38.0800000  0  4G 6G 9G11G13
  38344951.451 9 -64767487.030 8  15275264.255    15275266.580        -757.628
      -593.149
  19886847.877 9 -66739251.343 8  15599382.781    15599384.037        2021.300
      1579.140
  25527560.878 8 -62379263.965 7  15434959.308    15434962.572          24.832
        -1.976
   2643177.726 9 -19763351.069 8  17241660.335    17241665.050        2932.570
      2285.859
 88  3 26  4 46 41.0800000  0  4G 6G 9G11G13
  38347253.488 9 -64765693.231 9  15275702.262    15275704.232        -761.974
      -614.208
  19880777.010 8 -66743981.897 8  15598226.914    15598228.812        2029.697
      1570.174
  25527547.193 8 -62379274.630 8  15434956.969    15434959.366          11.946
        21.984
   2634362.429 9 -19770220.114 8  17239983.673    17239986.987        2945.392
      2297.926
 88  3 26  4 46 44.0800000  0  4G 6G 9G11G13
  38349560.988 9 -64763895.174 9  15276141.829    15276144.222        -768.967
      -592.018
  19874710.104 8 -66748709.350 8  15597072.088    15597074.817        2035.965
      1585.018
  25527538.554 8 -62379281.351 9  15434955.040    15434958.707           7.791
         8.643
   2625550.861 9 -19777086.279 8  17238306.159    17238310.440        2942.115
      2287.648
 88  3 26  4 46 47.0800000  0  4G 6G 9G11G13
  38351873.945 9 -64762092.873 9  15276581.066    15276584.139        -770.028
      -606.807
  19868647.218 8 -66753433.679 7  15595919.709    15595920.570        2023.979
      1575.797
  25527534.967 8 -62379284.147 8  15434953.828    15434956.953           2.727
         7.755
   2616743.047 9 -19783949.503 8  17236629.959    17236634.019        2938.295
      2288.120
 88  3 26  4 46 50.0800000  0  4G 6G 9G11G13
  38354192.392 9 -64760286.297 9  15277022.847    15277025.041        -769.430
      -601.581
  19862588.295 9 -66758154.914 8  15594765.080    15594768.217        2022.193
      1571.019
  25527536.449 8 -62379282.993 8  15434953.755    15434957.606          20.103
        -3.927
   2607938.958 9 -19790809.815 9  17234955.212    17234961.615        2942.721
      2283.006
 88  3 26  4 46 53.0800000  0  4G 6G 9G11G13
  38356516.282 9 -64758475.475 8  15277465.388    15277467.314        -778.194
      -595.032
  19856533.364 9 -66762873.045 7  15593613.330    15593616.379        2035.622
      1570.820
  25527542.974 8 -62379277.910 8  15434955.053    15434958.777           1.300
       -11.520
   2599138.596 9 -19797667.248 8  17233281.325    17233284.484        2927.753
      2281.459
 88  3 26  4 46 56.0800000  0  4G 6G 9G11G13
  38358845.641 9 -64756660.384 8  15277908.055    15277910.861        -783.943
      -616.550
  19850482.425 9 -66767588.071 9  15592462.476    15592463.302        2001.978
      1561.505
  25527554.544 9 -62379268.899 8  15434957.110    15434961.550           9.713
         2.430
   2590342.003 9 -19804521.727 8  17231606.417    17231610.967        2924.157
      2299.827
 88  3 26  4 46 59.0800000  0  4G 6G 9G11G13
  38361180.503 9 -64754841.015 8  15278353.110    15278355.091        -770.969
      -615.109
  19844435.455 9 -66772299.986 8  15591310.853    15591313.460        2025.215
      1575.760
  25527571.167 9 -62379255.939 7  15434960.309    15434964.006         -12.488
       -13.086
   2581549.208 9 -19811373.250 8  17229933.745    17229936.964        2940.297
      2288.475
 88  3 26  4 47  2.0800000  0  4G 6G 9G11G13
  38363520.868 8 -64753017.361 9  15278797.855    15278800.206        -780.044
      -602.824
  19838392.506 8 -66777008.782 7  15590161.103    15590164.006        1997.241
      1569.683
  25527592.829 8 -62379239.056 8  15434964.943    15434966.297         -20.024
         9.992
   2572760.174 9 -19818221.845 8  17228260.631    17228265.644        2925.576
      2285.629
 88  3 26  4 47  5.0800000  0  4G 6G 9G11G13
  38365866.688 9 -64751189.446 8  15279244.483    15279246.676        -773.656
      -616.047
  19832353.602 9 -66781714.419 8  15589012.619    15589013.850        2002.337
      1582.669
  25527619.557 8 -62379218.229 8  15434969.635    15434974.304         -12.113
       -13.826
   2563974.902 9 -19825067.505 8  17226588.939    17226592.291        2927.107
      2259.531
 88  3 26  4 47  8.0800000  0  4G 6G 9G11G13
  38368217.969 9 -64749357.281 8  15279691.291    15279694.226        -781.543
      -613.506
  19826318.678 9 -66786416.952 7  15587863.165    15587866.911        2004.307
      1568.459
  25527651.296 9 -62379193.490 9  15434976.468    15434979.079         -29.473
        -9.669
   2555193.341 9 -19831910.281 8  17224917.918    17224922.090        2923.909
      2281.981
 88  3 26  4 47 11.0800000  0  4G 6G 9G11G13
  38370574.673 9 -64747520.892 8  15280139.446    15280143.770        -784.079
      -616.003
  19820287.744 8 -66791116.384 8  15586716.082    15586718.052        2014.107
      1552.073
  25527688.064 9 -62379164.849 8  15434983.047    15434986.315          -6.906
        -7.929
   2546415.523 9 -19838750.132 7  17223247.305    17223252.074        2929.555
      2262.190
 88  3 26  4 47 14.0800000  0  4G 6G 9G11G13
  38372936.855 9 -64745680.222 8  15280589.446    15280592.416        -785.394
      -623.224
  19814260.881 9 -66795812.631 8  15585570.216    15585571.870        2021.220
      1556.795
  25527729.874 8 -62379132.262 8  15434991.087    15434994.697         -20.805
       -20.729
   2537641.469 9 -19845587.055 9  17221579.072    17221581.943        2930.185
      2271.188
 88  3 26  4 47 17.0800000  0  4G 6G 9G11G13
  38375304.531 9 -64743835.284 8  15281041.141    15281042.524        -798.767
      -621.528
  19808237.987 9 -66800505.796 8  15584423.934    15584425.132        2008.812
      1565.780
  25527776.752 8 -62379095.737 9  15435000.243    15435003.482         -14.394
       -13.801
   2528871.166 9 -19852421.052 8  17219908.796    17219913.094        2927.944
      2288.071
 88  3 26  4 47 20.0800000  0  4G 6G 9G11G13
  38377677.690 9 -64741986.068 8  15281492.054    15281494.338        -797.882
      -602.600
  19802219.090 9 -66805195.844 8  15583278.303    15583280.296        2009.681
      1569.235
  25527828.640 8 -62379055.312 8  15435009.497    15435012.981         -15.111
        -2.212
   2520104.590 9 -19859252.144 8  17218240.589    17218245.593        2916.134
      2271.716
 88  3 26  4 47 23.0800000  0  4G 6G 9G11G13
  38380056.290 9 -64740132.615 9  15281944.904    15281947.008        -806.247
      -613.928
  19796204.213 8 -66809882.763 8  15582134.576    15582135.407        2006.938
      1543.001
  25527885.561 9 -62379010.951 8  15435020.727    15435024.194         -13.939
       -19.586
   2511341.752 9 -19866080.329 8  17216572.815    17216576.989        2926.294
      2294.906
 88  3 26  4 47 26.0800000  0  4G 6G 9G11G13
  38382440.404 9 -64738274.871 8  15282397.716    15282400.779        -790.211
      -621.863
  19790193.351 8 -66814566.553 8  15580990.230    15580991.572        2000.678
      1561.164
  25527947.505 9 -62378962.693 8  15435032.558    15435035.983          -0.064
        -0.199
   2502582.674 9 -19872905.577 9  17214906.091    17214910.536        2922.299
      2291.811
 88  3 26  4 47 29.0800000  0  4G 6G 9G11G13
  38384829.919 9 -64736412.915 9  15282853.148    15282855.377        -794.310
      -627.828
  19784186.488 9 -66819247.220 8  15579846.740    15579848.321        2029.609
      1557.715
  25528014.435 9 -62378910.521 8  15435045.651    15435048.347         -26.929
        -6.897
   2493827.324 9 -19879727.917 9  17213239.524    17213244.692        2933.343
      2282.180
 88  3 26  4 47 32.0800000  0  4G 6G 9G11G13
  38387224.922 9 -64734546.673 9  15283309.040    15283310.950        -791.798
      -629.152
  19778183.613 8 -66823924.782 8  15578704.109    15578706.159        1998.342
      1553.527
  25528086.414 8 -62378854.440 8  15435059.198    15435062.164         -24.752
       -24.128
   2485075.730 9 -19886547.344 9  17211575.618    17211578.724        2915.672
      2281.130
 88  3 26  4 47 35.0800000  0  4G 6G 9G11G13
  38389625.396 9 -64732676.183 9  15283766.233    15283767.320        -799.565
      -618.501
  19772184.732 9 -66828599.238 8  15577563.000    15577564.753        2023.740
      1559.424
  25528163.389 8 -62378794.448 9  15435074.586    15435076.467         -23.572
       -17.100
   2476327.874 9 -19893363.853 8  17209910.520    17209914.975        2911.756
      2259.848
 88  3 26  4 47 38.0800000  0  4G 6G 9G11G13
  38392031.299 9 -64730801.443 8  15284222.576    15284225.002        -781.583
      -641.325
  19766189.887 9 -66833270.547 8  15576422.990    15576423.925        2007.169
      1560.716
  25528245.380 8 -62378730.566 9  15435089.580    15435091.949         -40.797
       -10.669
   2467583.800 9 -19900177.413 8  17208245.990    17208250.110        2914.021
      2268.510
 88  3 26  4 47 41.0800000  0  4G 6G 9G11G13
  38394442.658 9 -64728922.463 9  15284681.828    15284684.905        -792.683
      -634.682
  19760199.027 8 -66837938.739 8  15575281.833    15575283.654        1978.438
      1545.393
  25528332.370 8 -62378662.790 8  15435106.488    15435108.513         -30.637
       -14.323
   2458843.444 8 -19906988.074 8  17206582.360    17206586.938        2921.485
      2273.854
 88  3 26  4 47 44.0800000  0  4G 6G 9G11G13
  38396859.485 9 -64727039.232 9  15285142.444    15285144.226        -813.073
      -625.914
  19754212.267 8 -66842603.759 7  15574142.241    15574144.098        1992.688
      1554.304
  25528424.368 9 -62378591.090 8  15435124.106    15435126.485         -28.971
       -24.843
   2450106.853 9 -19913795.806 8  17204920.472    17204924.116        2923.224
      2265.192
 88  3 26  4 47 47.0800000  0  4G 6G 9G11G13
  38399281.736 9 -64725151.764 8  15285602.616    15285605.409        -820.234
      -626.890
  19748229.518 8 -66847265.640 8  15573004.919    15573006.741        1998.701
      1565.724
  25528521.369 9 -62378515.512 8  15435142.431    15435145.768         -30.119
       -34.940
   2441373.991 9 -19920600.639 7  17203259.474    17203262.324        2919.707
      2269.336
 88  3 26  4 47 50.0800000  0  4G 6G 9G11G13
  38401709.454 9 -64723260.038 9  15286065.134    15286067.310        -809.182
      -616.271
  19742250.734 8 -66851924.413 7  15571867.035    15571868.982        1990.272
      1542.796
  25528623.370 9 -62378436.020 9  15435160.500    15435164.225         -20.709
       -22.749
   2432644.853 9 -19927402.552 8  17201598.345    17201601.263        2912.953
      2279.595
 88  3 26  4 47 53.0800000  0  4G 6G 9G11G13
  38404142.638 9 -64721364.041 9  15286527.937    15286529.423        -794.230
      -627.530
  19736275.994 9 -66856580.070 8  15570729.088    15570731.731        2001.619
      1555.248
  25528730.376 9 -62378352.636 8  15435181.587    15435184.797         -35.414
       -28.695
   2423919.467 9 -19934201.549 9  17199936.628    17199941.340        2907.578
      2271.399
 88  3 26  4 47 56.0800000  0  4G 6G 9G11G13
  38406581.280 9 -64719463.805 8  15286991.828    15286994.396        -810.896
      -622.273
  19730305.266 8 -66861232.580 7  15569592.865    15569596.467        1997.257
      1551.215
  25528842.354 9 -62378265.386 9  15435202.746    15435205.739         -25.781
       -37.065
   2415197.843 9 -19940997.615 9  17198276.942    17198281.397        2914.173
      2250.819
 88  3 26  4 47 59.0800000  0  4G 6G 9G11G13
  38409025.374 9 -64717559.314 8  15287457.457    15287459.896        -830.386
      -638.622
  19724338.603 9 -66865881.926 8  15568458.433    15568460.413        1987.521
      1555.938
  25528959.363 8 -62378174.213 8  15435224.635    15435228.431         -32.918
       -26.601
   2406479.971 8 -19947790.764 8  17196617.840    17196622.950        2933.686
      2254.877
 88  3 26  4 48  2.0800000  0  4G 6G 9G11G13
  38411474.942 9 -64715650.556 9  15287923.587    15287925.659        -831.630
      -637.311
  19718375.992 9 -66870528.121 8  15567323.546    15567324.564        1993.773
      1545.530
  25529081.355 8 -62378079.157 8  15435247.458    15435251.353         -27.799
       -33.238
   2397765.855 9 -19954580.979 8  17194960.052    17194964.393        2914.101
      2278.153
 88  3 26  4 48  5.0800000  0  4G 6G 9G11G13
  38413929.998 9 -64713737.536 9  15288389.839    15288392.115        -799.150
      -640.480
  19712417.364 8 -66875171.196 8  15566189.586    15566190.951        1991.484
      1560.772
  25529208.360 8 -62377980.189 8  15435272.491    15435274.759         -42.200
       -24.868
   2389055.511 9 -19961368.253 8  17193303.113    17193306.975        2900.943
      2258.611
 88  3 26  4 48  8.0800000  0  4G 6G 9G11G13
  38416390.527 8 -64711820.232 8  15288858.629    15288860.811        -811.279
      -643.934
  19706462.804 8 -66879811.119 7  15565056.385    15565057.164        1980.160
      1561.580
  25529340.378 9 -62377877.305 8  15435297.506    15435300.720         -64.808
       -22.836
   2380348.973 9 -19968152.567 8  17191645.990    17191650.033        2904.954
      2265.919
 88  3 26  4 48 11.0800000  0  4G 6G 9G11G13
  38418856.530 9 -64709898.684 8  15289327.872    15289330.386        -817.675
      -636.751
  19700512.296 9 -66884447.872 8  15563923.378    15563925.602        1981.779
      1553.384
  25529477.397 8 -62377770.543 8  15435322.512    15435326.296         -43.396
       -25.489
   2371646.178 9 -19974933.947 7  17189990.045    17189993.157        2896.342
      2274.127
 88  3 26  4 48 14.0800000  0  4G 6G 9G11G13
  38421328.015 8 -64707972.847 9  15289798.952    15289800.274        -823.600
      -646.799
  19694565.839 8 -66889081.472 7  15562792.969    15562794.821        1963.255
      1557.007
  25529619.437 7 -62377659.863 8  15435351.082    15435353.878         -53.317
       -36.469
   2362947.194 9 -19981712.377 8  17188335.257    17188338.811        2905.584
      2269.417
 88  3 26  4 48 17.0800000  0  4G 6G 9G11G13
  38423804.980 8 -64706042.752 8  15290269.462    15290272.414        -825.649
      -636.130
  19688623.517 8 -66893711.849 8  15561661.388    15561663.625        1978.223
      1550.122
  25529766.512 8 -62377545.267 8  15435377.612    15435382.125         -55.087
       -31.088
   2354252.008 9 -19988487.836 8  17186680.252    17186683.611        2897.538
      2258.518
 88  3 26  4 48 20.0800000  0  4G 6G 9G11G13
  38426287.481 9 -64704108.326 9  15290742.158    15290744.912        -824.780
      -653.379
  19682685.271 9 -66898339.053 7  15560531.664    15560533.786        1975.750
      1543.305
  25529918.596 8 -62377426.748 8  15435407.828    15435410.852         -69.265
       -50.282
   2345560.605 9 -19995260.361 9  17185025.654    17185029.212        2898.998
      2248.725
 88  3 26  4 48 23.0800000  0  4G 6G 9G11G13
  38428775.461 9 -64702169.654 8  15291215.585    15291218.193        -827.499
      -660.097
  19676751.056 8 -66902963.122 8  15559402.629    15559404.703        1960.623
      1551.675
  25530075.710 9 -62377304.328 8  15435437.531    15435440.814         -39.433
       -26.732
   2336872.959 9 -20002029.947 8  17183372.497    17183375.975        2908.056
      2248.066
 88  3 26  4 48 26.0800000  0  4G 6G 9G11G13
  38431268.929 9 -64700226.685 9  15291690.584    15291691.900        -838.009
      -649.142
  19670820.930 9 -66907583.994 8  15558273.768    15558276.427        1960.224
      1532.593
  25530237.820 8 -62377178.007 8  15435468.104    15435472.344         -44.321
       -42.639
   2328189.114 9 -20008796.584 9  17181720.388    17181724.127        2904.348
      2256.449
 88  3 26  4 48 29.0800000  0  4G 6G 9G11G13
  38433767.904 9 -64698279.435 8  15292165.628    15292168.060        -827.515
      -642.387
  19664894.902 8 -66912201.681 8  15557146.156    15557147.874        1982.577
      1525.931
  25530404.950 8 -62377047.764 8  15435499.888    15435503.222         -32.918
       -55.682
   2319509.042 9 -20015560.264 8  17180069.055    17180072.897        2895.776
      2260.481
 88  3 26  4 48 32.0800000  0  4G 6G 9G11G13
  38436272.370 9 -64696327.902 9  15292641.780    15292645.493        -829.118
      -656.412
  19658972.998 9 -66916816.150 8  15556018.976    15556020.485        1978.055
      1558.125
  25530577.108 8 -62376913.622 8  15435532.341    15435537.699         -56.514
       -47.287
   2310832.748 9 -20022321.011 7  17178417.467    17178421.264        2885.369
      2254.249
 88  3 26  4 48 35.0800000  0  4G 6G 9G11G13
  38438782.309 9 -64694372.106 8  15293119.989    15293122.616        -832.012
      -649.247
  19653055.200 9 -66921427.415 8  15554894.299    15554894.935        1969.618
      1549.096
  25530754.271 8 -62376775.562 7  15435565.940    15435569.839         -72.264
       -45.808
   2302160.244 9 -20029078.796 8  17176767.358    17176770.290        2885.625
      2261.718
 88  3 26  4 48 38.0800000  0  4G 6G 9G11G13
  38441297.750 8 -64692412.021 9  15293598.164    15293600.516        -838.615
      -659.059
  19647141.432 8 -66926035.546 8  15553767.641    15553769.147        1969.841
      1531.878
  25530936.468 9 -62376633.599 8  15435601.082    15435604.691         -43.428
       -42.912
   2293491.569 9 -20035833.603 8  17175117.506    17175121.000        2908.359
      2234.042
 88  3 26  4 48 41.0800000  0  4G 6G 9G11G13
  38443818.680 9 -64690447.669 9  15294078.377    15294081.569        -837.252
      -669.038
  19641231.770 9 -66930640.480 8  15552643.271    15552644.024        1979.642
      1524.055
  25531123.681 8 -62376487.712 8  15435636.163    15435638.974         -64.050
       -41.987
   2284826.680 9 -20042585.465 7  17173468.985    17173473.404        2884.093
      2258.835
 88  3 26  4 48 44.0800000  0  4G 6G 9G11G13
  38446345.096 8 -64688479.032 8  15294559.082    15294562.448        -841.829
      -669.454
  19635326.236 8 -66935242.191 8  15551519.302    15551521.374        1963.231
      1535.886
  25531315.887 8 -62376337.933 9  15435673.495    15435676.348         -76.522
       -53.196
   2276165.594 9 -20049334.345 8  17171819.858    17171824.757        2901.478
      2251.695
 88  3 26  4 48 47.0800000  0  4G 6G 9G11G13
  38448877.020 9 -64686506.112 8  15295040.559    15295043.508        -835.083
      -658.456
  19629424.804 9 -66939840.698 8  15550396.538    15550398.861        1950.001
      1528.765
  25531513.115 8 -62376184.262 8  15435710.397    15435713.463         -65.757
       -57.030
   2267508.323 9 -20056080.271 8  17170172.980    17170176.846        2893.495
      2248.781
 88  3 26  4 48 50.0800000  0  4G 6G 9G11G13
  38451414.440 9 -64684528.892 8  15295523.117    15295524.900        -840.106
      -667.559
  19623527.468 9 -66944436.031 8  15549273.912    15549276.477        1977.489
      1537.017
  25531715.344 8 -62376026.677 8  15435749.197    15435752.551         -66.849
       -46.554
   2258854.848 9 -20062823.238 7  17168526.214    17168530.435        2905.768
      2234.092
 88  3 26  4 48 53.0800000  0  4G 6G 9G11G13
  38453957.369 9 -64682547.401 8  15296007.589    15296010.032        -842.929
      -656.809
  19617634.238 8 -66949028.157 8  15548152.734    15548154.809        1966.987
      1556.217
  25531922.561 9 -62375865.212 9  15435788.025    15435792.470         -71.705
       -35.934
   2250205.180 9 -20069563.228 8  17166879.714    17166884.339        2887.658
      2245.817
 88  3 26  4 48 56.0800000  0  4G 6G 9G11G13
  38456505.773 9 -64680561.619 8  15296492.486    15296494.896        -833.177
      -650.627
  19611745.101 9 -66953617.094 8  15547032.998    15547034.606        1963.661
      1540.055
  25532134.784 8 -62375699.830 8  15435829.194    15435832.992         -85.645
       -51.481
   2241559.349 9 -20076300.234 8  17165234.234    17165239.589        2896.214
      2237.329
 88  3 26  4 48 59.0800000  0  4G 6G 9G11G13
  38459059.666 9 -64678571.573 8  15296977.933    15296980.431        -841.111
      -667.739
  19605860.130 7 -66958202.781 9  15545912.220    15545913.455        1970.368
      1533.723
  25532351.997 8 -62375530.577 8  15435871.001    15435873.481         -62.208
       -52.544
   2232917.342 9 -20083034.267 8  17163590.231    17163594.781        2886.884
      2244.444
 88  3 26  4 49  2.0800000  0  4G 6G 9G11G13
  38461619.065 9 -64676577.240 8  15297464.776    15297468.003        -852.108
      -676.625
  19599979.226 9 -66962785.296 8  15544793.231    15544796.453        1952.952
      1520.177
  25532574.211 8 -62375357.426 9  15435911.761    15435915.174         -79.855
       -48.598
   2224279.127 9 -20089765.342 8  17161946.563    17161950.065        2888.431
      2224.342
 88  3 26  4 49  5.0800000  0  4G 6G 9G11G13
  38464183.980 9 -64674578.602 8  15297953.862    15297956.421        -851.015
      -672.412
  19594102.503 8 -66967364.565 8  15543675.182    15543676.555        1966.301
      1553.210
  25532801.417 8 -62375180.386 8  15435955.653    15435958.723         -88.874
       -63.449
   2215644.710 9 -20096493.437 7  17160303.421    17160307.403        2892.921
      2245.332
 88  3 26  4 49  8.0800000  0  4G 6G 9G11G13
  38466754.387 9 -64672575.693 8  15298443.439    15298444.863        -873.471
      -652.764
  19588229.824 8 -66971940.677 7  15542557.766    15542558.291        1965.934
      1525.776
  25533033.587 9 -62374999.472 8  15436000.383    15436003.794         -73.268
       -63.722
   2207014.101 8 -20103218.587 8  17158661.513    17158666.046        2874.532
      2239.075
 88  3 26  4 49 11.0800000  0  4G 6G 9G11G13
  38469330.275 9 -64670568.507 8  15298933.461    15298934.708        -854.979
      -672.369
  19582361.271 8 -66976513.565 8  15541440.400    15541442.735        1957.840
      1526.447
  25533270.753 8 -62374814.662 7  15436046.359    15436049.215         -91.051
       -50.232
   2198387.284 8 -20109940.779 8  17157019.287    17157022.823        2864.205
      2238.311
 88  3 26  4 49 14.0800000  0  4G 6G 9G11G13
  38471911.629 9 -64668557.058 8  15299424.825    15299426.309        -873.926
      -669.535
  19576496.834 9 -66981083.253 8  15540324.079    15540326.457        1959.068
      1520.345
  25533512.884 9 -62374625.989 8  15436090.661    15436094.345         -91.450
       -49.810
   2189764.288 9 -20116659.988 8  17155378.583    17155382.385        2871.550
      2235.421
 88  3 26  4 49 17.0800000  0  4G 6G 9G11G13
  38474498.511 9 -64666541.312 9  15299916.265    15299918.353        -864.620
      -647.998
  19570636.536 8 -66985649.718 8  15539209.735    15539211.690        1950.942
      1551.476
  25533760.013 8 -62374433.428 9  15436138.860    15436140.608         -65.390
       -78.449
   2181145.096 9 -20123376.242 8  17153737.335    17153742.596        2876.502
      2243.294
 88  3 26  4 49 20.0800000  0  4G 6G 9G11G13
  38477090.864 9 -64664521.303 8  15300409.307    15300411.596        -859.588
      -667.323
  19564780.316 9 -66990213.014 8  15538095.362    15538097.332        1954.842
      1516.219
  25534012.113 9 -62374236.978 9  15436187.125    15436188.573         -75.724
       -71.297
   2172529.723 8 -20130089.502 8  17152099.596    17152103.543        2875.162
      2223.665
 88  3 26  4 49 23.0800000  0  4G 6G 9G11G13
  38479688.695 9 -64662497.014 9  15300903.860    15300905.782        -862.251
      -673.879
  19558928.232 8 -66994773.074 8  15536981.408    15536983.064        1951.301
      1519.339
  25534269.189 9 -62374036.660 8  15436234.823    15436238.391         -93.364
       -73.627
   2163918.113 9 -20136799.854 9  17150460.957    17150463.862        2868.687
      2230.270
 88  3 26  4 49 26.0800000  0  4G 6G 9G11G13
  38482292.032 9 -64660468.442 9  15301399.892    15301401.633        -871.613
      -676.830
  19553080.259 9 -66999329.931 8  15535868.478    15535870.545        1960.902
      1543.902
  25534531.223 8 -62373832.469 8  15436285.455    15436288.361         -75.637
       -76.989
   2155310.341 9 -20143507.200 9  17148822.187    17148826.296        2871.095
      2244.568
 88  3 26  4 49 29.0800000  0  4G 6G 9G11G13
  38484900.838 9 -64658435.602 8  15301896.180    15301897.662        -877.969
      -674.183
  19547236.433 8 -67003883.554 9  15534757.068    15534758.909        1955.137
      1518.009
  25534798.250 8 -62373624.400 9  15436335.454    15436339.353         -96.745
       -62.809
   2146706.412 9 -20150211.558 9  17147184.635    17147188.841        2869.468
      2233.657
 88  3 26  4 49 32.0800000  0  4G 6G 9G11G13
  38487515.166 9 -64656398.464 9  15302393.840    15302395.448        -861.310
      -676.091
  19541396.742 8 -67008433.966 8  15533644.947    15533647.969        1942.465
      1505.848
  25535070.249 8 -62373412.444 9  15436387.182    15436390.233         -84.066
       -74.609
   2138106.263 9 -20156912.965 8  17145548.480    17145552.205        2877.881
      2232.830
 88  3 26  4 49 35.0800000  0  4G 6G 9G11G13
  38490134.964 9 -64654357.058 8  15302892.268    15302894.040        -881.948
      -674.463
  19535561.197 9 -67012981.133 9  15532535.267    15532536.586        1943.151
      1509.359
  25535347.234 8 -62373196.616 8  15436440.875    15436443.370         -96.498
       -76.417
   2129509.950 8 -20163611.381 8  17143911.296    17143917.438        2888.248
      2218.837
 88  3 26  4 49 38.0800000  0  4G 6G 9G11G13
  38492760.260 9 -64652311.386 8  15303390.935    15303393.744        -860.130
      -685.312
  19529729.801 8 -67017525.080 8  15531424.944    15531426.338        1954.754
      1543.485
  25535629.161 9 -62372976.923 8  15436494.559    15436497.542        -102.407
       -70.421
   2120917.448 8 -20170306.841 8  17142277.690    17142281.764        2878.934
      2229.767
 88  3 26  4 49 41.0800000  0  4G 6G 9G11G13
  38495391.031 9 -64650261.427 8  15303892.773    15303895.603        -878.216
      -692.576
  19523902.537 8 -67022065.793 8  15530315.902    15530319.027        1944.475
      1531.487
  25535916.083 9 -62372753.344 8  15436547.766    15436551.576         -88.483
       -65.375
   2112328.745 9 -20176999.332 7  17140642.962    17140647.271        2872.499
      2208.758
 88  3 26  4 49 44.0800000  0  4G 6G 9G11G13
  38498027.305 9 -64648207.194 8  15304394.154    15304396.153        -889.205
      -682.479
  19518079.421 8 -67026603.291 7  15529208.112    15529209.845        1948.311
      1509.484
  25536207.978 8 -62372525.901 8  15436604.981    15436607.377         -98.954
       -65.226
   2103743.852 9 -20183688.843 8  17139009.397    17139013.743        2847.268
      2245.637
 88  3 26  4 49 47.0800000  0  4G 6G 9G11G13
  38500669.085 8 -64646148.667 9  15304897.322    15304898.623        -887.251
      -686.729
  19512260.416 8 -67031137.581 7  15528102.097    15528103.039        1938.853
      1516.387
  25536504.827 8 -62372294.584 8  15436660.481    15436663.148         -88.922
       -66.910
   2095162.790 9 -20190375.384 8  17137376.294    17137380.103        2862.714
      2224.839
 88  3 26  4 49 50.0800000  0  4G 6G 9G11G13
  38503316.363 8 -64644085.853 9  15305401.172    15305402.289        -893.654
      -681.472
  19506445.545 9 -67035668.652 8  15526995.627    15526996.103        1944.627
      1513.989
  25536806.628 9 -62372059.413 9  15436717.805    15436721.875        -102.542
       -69.905
   2086585.536 9 -20197058.948 8  17135744.520    17135747.868        2864.261
      2228.934
 88  3 26  4 49 53.0800000  0  4G 6G 9G11G13
  38505969.090 9 -64642018.785 8  15305904.839    15305906.705        -879.906
      -679.136
  19500634.866 9 -67040196.442 8  15525889.290    15525890.266        1957.067
      1522.414
  25537113.402 9 -62371820.372 8  15436776.218    15436779.415        -113.938
       -82.513
   2078012.116 9 -20203739.536 8  17134112.011    17134117.322        2875.186
      2233.365
 88  3 26  4 49 56.0800000  0  4G 6G 9G11G13
  38508627.341 9 -64639947.436 8  15306411.110    15306413.088        -892.921
      -689.140
  19494828.304 8 -67044721.030 8  15524784.116    15524785.207        1936.317
      1513.585
  25537425.141 8 -62371577.458 9  15436835.382    15436840.194        -104.480
       -95.189
   2069442.501 9 -20210417.155 8  17132482.084    17132485.581        2853.233
      2228.723
 88  3 26  4 49 59.0800000  0  4G 6G 9G11G13
  38511291.075 9 -64637871.787 8  15306917.858    15306920.326        -894.125
      -707.247
  19489025.903 9 -67049242.394 8  15523679.434    15523681.398        1936.812
      1508.452
  25537741.802 9 -62371330.692 8  15436895.554    15436899.266        -115.158
       -77.380
   2060876.725 9 -20217091.782 8  17130852.325    17130856.018        2845.936
      2224.497
 88  3 26  4 50  2.0800000  0  4G 6G 9G11G13
  38513960.292 9 -64635791.886 8  15307426.632    15307428.328        -887.857
      -717.325
  19483227.650 9 -67053760.521 8  15522577.059    15522578.810        1932.418
      1508.520
  25538063.447 8 -62371080.072 9  15436958.006    15436960.899        -102.606
       -97.115
   2052314.772 9 -20223763.429 9  17129223.180    17129226.551        2850.322
      2209.361
 88  3 26  4 50  5.0800000  0  4G 6G 9G11G13
  38516634.971 9 -64633707.722 8  15307934.445    15307937.158        -884.563
      -690.637
  19477433.513 9 -67058275.420 8  15521473.703    15521476.846        1929.922
      1497.913
  25538390.026 8 -62370825.591 8  15437019.119    15437022.459        -115.995
       -81.419
   2043756.647 9 -20230432.105 7  17127594.157    17127598.392        2863.392
      2227.350
 88  3 26  4 50  8.0800000  0  4G 6G 9G11G13
  38519315.167 9 -64631619.249 8  15308444.929    15308446.299        -895.377
      -686.710
  19471643.577 8 -67062787.048 7  15520372.091    15520374.571        1917.944
      1497.503
  25538721.572 8 -62370567.242 8  15437082.964    15437085.962        -121.051
       -75.833
   2035202.379 9 -20237097.766 8  17125966.189    17125970.821        2846.096
      2231.513
 88  3 26  4 50 11.0800000  0  4G 6G 9G11G13
  38522000.875 9 -64629526.500 9  15308955.810    15308958.908        -908.558
      -720.687
  19465857.784 8 -67067295.462 8  15519271.883    15519272.837        1933.335
      1501.281
  25539058.061 8 -62370305.038 8  15437147.236    15437149.573        -106.952
       -84.458
   2026651.923 9 -20243760.453 8  17124338.855    17124343.287        2843.512
      2229.792
 88  3 26  4 50 14.0800000  0  4G 6G 9G11G13
  38524692.081 9 -64627429.463 9  15309467.684    15309470.530        -897.043
      -707.750
  19460076.181 9 -67071800.616 8  15518171.205    15518172.881        1946.110
      1500.039
  25539399.510 9 -62370038.974 8  15437211.156    15437214.993        -104.480
       -94.213
   2018105.302 9 -20250420.150 8  17122713.029    17122717.365        2851.462
      2220.365
 88  3 26  4 50 17.0800000  0  4G 6G 9G11G13
  38527388.762 9 -64625328.140 8  15309981.609    15309982.681        -903.542
      -680.092
  19454298.778 8 -67076302.487 8  15517071.346    15517073.268        1921.708
      1500.940
  25539745.922 8 -62369769.042 8  15437277.698    15437280.722        -112.805
       -95.177
   2009562.500 9 -20257076.877 8  17121087.189    17121091.293        2845.928
      2243.133
 88  3 26  4 50 20.0800000  0  4G 6G 9G11G13
  38530090.967 9 -64623222.525 8  15310494.743    15310497.732        -901.174
      -698.516
  19448525.503 9 -67080801.138 8  15515972.839    15515973.966        1916.126
      1493.875
  25540097.285 9 -62369495.253 8  15437345.525    15437348.208        -114.711
       -70.390
   2001023.539 9 -20263730.611 8  17119461.619    17119466.645        2851.375
      2216.134
 88  3 26  4 50 23.0800000  0  4G 6G 9G11G13
  38532798.675 9 -64621112.640 8  15311010.297    15311012.736        -903.431
      -695.602
  19442756.424 8 -67085296.524 8  15514874.968    15514876.859        1925.552
      1499.380
  25540453.597 8 -62369217.608 8  15437412.495    15437415.506        -126.784
      -100.116
   1992488.447 9 -20270381.327 8  17117837.056    17117841.422        2870.106
      2219.514
 88  3 26  4 50 26.0800000  0  4G 6G 9G11G13
  38535511.885 9 -64618998.445 8  15311526.733    15311529.611        -913.167
      -695.465
  19436991.534 8 -67089788.655 8  15513777.490    15513779.526        1908.567
      1490.426
  25540814.873 8 -62368936.090 8  15437481.282    15437484.763        -116.035
       -95.966
   1983957.176 9 -20277029.070 8  17116215.117    17116218.502        2853.966
      2211.958
 88  3 26  4 50 29.0800000  0  4G 6G 9G11G13
  38538230.584 9 -64616879.977 8  15312043.999    15312047.067        -898.877
      -714.610
  19431230.817 9 -67094277.509 8  15512681.688    15512682.613        1939.930
      1499.827
  25541181.105 9 -62368650.723 8  15437551.281    15437554.936        -115.716
       -78.306
   1975429.747 9 -20283673.811 8  17114590.892    17114596.878        2845.450
      2223.516
 88  3 26  4 50 32.0800000  0  4G 6G 9G11G13
  38540954.775 8 -64614757.243 8  15312562.212    15312564.926        -901.605
      -701.120
  19425474.311 9 -67098763.102 9  15511586.716    15511587.358        1922.083
      1509.210
  25541552.292 8 -62368361.473 8  15437621.875    15437625.074        -130.277
       -81.401
   1966906.165 9 -20290315.560 8  17112969.399    17112973.859        2835.577
      2198.934
 88  3 26  4 50 35.0800000  0  4G 6G 9G11G13
  38543684.484 9 -64612630.190 8  15313081.247    15313084.066        -917.003
      -711.509
  19419722.002 9 -67103245.423 8  15510490.320    15510493.959        1915.648
      1495.577
  25541928.427 8 -62368068.383 9  15437693.645    15437695.926        -122.981
       -89.174
   1958386.426 9 -20296954.301 8  17111348.824    17111352.872        2819.509
      2208.105
 88  3 26  4 50 38.0800000  0  4G 6G 9G11G13
  38546419.695 9 -64610498.851 9  15313602.629    15313605.274        -903.160
      -714.598
  19413973.886 8 -67107724.469 8  15509397.626    15509399.182        1926.118
      1496.416
  25542309.528 8 -62367771.427 8  15437765.502    15437768.926        -114.368
       -97.016
   1949870.552 9 -20303590.049 8  17109728.792    17109732.098        2839.636
      2197.082
 88  3 26  4 50 41.0800000  0  4G 6G 9G11G13
  38549160.442 9 -64608363.207 7  15314124.067    15314126.523        -897.705
      -719.649
  19408229.978 8 -67112200.246 8  15508304.618    15508307.003        1923.909
      1487.021
  25542695.588 8 -62367470.594 8  15437838.816    15437841.813        -143.203
      -109.499
   1941358.536 9 -20310222.781 8  17108109.281    17108113.282        2827.149
      2229.854
 88  3 26  4 50 44.0800000  0  4G 6G 9G11G13
  38551906.697 8 -64606223.277 8  15314646.510    15314649.460        -905.058
      -711.745
  19402490.296 8 -67116672.732 8  15507212.144    15507214.204        1899.643
      1498.379
  25543086.613 8 -62367165.899 8  15437913.239    15437916.993        -140.636
      -110.456
   1932850.376 9 -20316852.517 8  17106488.490    17106493.675        2841.550
      2205.104
 88  3 26  4 50 47.0800000  0  4G 6G 9G11G13
  38554658.466 9 -64604079.045 8  15315170.394    15315172.291        -907.083
      -718.786
  19396754.806 9 -67121141.937 8  15506121.191    15506122.999        1922.147
      1502.866
  25543482.602 8 -62366857.335 8  15437989.545    15437992.511        -137.980
      -116.353
   1924346.105 9 -20323479.219 8  17104870.636    17104875.033        2837.204
      2205.732
 88  3 26  4 50 50.0800000  0  4G 6G 9G11G13
  38557415.748 8 -64601930.510 8  15315694.952    15315696.556        -901.820
      -727.901
  19391023.554 8 -67125607.839 8  15505029.221    15505032.897        1906.302
      1498.957
  25543883.563 8 -62366544.901 8  15438064.969    15438067.949        -119.009
       -97.202
   1915845.677 9 -20330102.918 9  17103252.499    17103258.132        2830.370
      2218.377
 88  3 26  4 50 53.0800000  0  4G 6G 9G11G13
  38560178.542 8 -64599777.690 9  15316221.162    15316222.468        -919.005
      -710.708
  19385296.562 8 -67130070.448 7  15503940.640    15503942.664        1915.201
      1500.362
  25544289.486 8 -62366228.589 8  15438141.955    15438145.354        -153.650
      -108.387
   1907349.149 9 -20336723.582 8  17101636.968    17101641.576        2824.852
      2197.499
 88  3 26  4 50 56.0800000  0  4G 6G 9G11G13
  38562946.865 8 -64597620.552 9  15316746.538    15316749.827        -918.072
      -704.239
  19379573.747 8 -67134529.763 8  15502850.697    15502853.824        1922.107
      1487.232
  25544700.363 8 -62365908.423 8  15438219.788    15438223.682        -126.641
      -110.767
   1898856.468 9 -20343341.257 9  17100020.949    17100024.351        2848.727
      2218.315
 88  3 26  4 50 59.0800000  0  4G 6G 9G11G13
  38565720.727 9 -64595459.097 9  15317274.774    15317277.030        -923.789
      -719.339
  19373855.201 9 -67138985.778 8  15501762.403    15501764.975        1904.938
      1485.293
  25545116.188 8 -62365584.402 8  15438299.531    15438301.952        -131.162
      -113.277
   1890367.646 9 -20349955.927 9  17098405.650    17098409.719        2836.574
      2190.632
 88  3 26  4 51  2.0800000  0  4G 6G 9G11G13
  38568500.108 9 -64593293.349 9  15317803.810    15317806.109        -925.831
      -723.241
  19368140.883 8 -67143438.492 8  15500676.189    15500678.188        1891.119
      1472.232
  25545536.979 8 -62365256.517 8  15438380.143    15438381.707        -123.459
       -98.594
   1881882.692 9 -20356567.569 9  17096790.261    17096794.878        2829.086
      2204.924
 88  3 26  4 51  5.0800000  0  4G 6G 9G11G13
  38571285.005 9 -64591123.302 9  15318334.470    15318336.081        -909.252
      -718.798
  19362430.741 9 -67147887.955 7  15499589.008    15499591.153        1896.637
      1490.525
  25545962.699 8 -62364924.779 8  15438460.240    15438464.639        -143.514
      -101.651
   1873401.622 9 -20363176.189 8  17095176.695    17095180.375        2820.992
      2192.919
 88  3 26  4 51  8.0800000  0  4G 6G 9G11G13
  38574075.437 9 -64588948.934 8  15318864.576    15318867.692        -929.196
      -732.897
  19356724.827 8 -67152334.121 8  15498503.550    15498505.787        1903.176
      1493.172
  25546393.383 9 -62364589.180 8  15438543.213    15438545.479        -157.183
      -120.187
   1864924.434 9 -20369781.785 9  17093563.266    17093567.229        2821.949
      2195.945
 88  3 26  4 51 11.0800000  0  4G 6G 9G11G13
  38576871.403 9 -64586770.270 8  15319397.067    15319398.792        -942.880
      -732.841
  19351023.134 9 -67156776.985 9  15497420.084    15497420.002        1892.347
      1477.644
  25546828.995 8 -62364249.740 9  15438625.328    15438628.701        -167.358
       -99.396
   1856451.117 9 -20376384.362 7  17091951.014    17091956.103        2820.952
      2213.766
 88  3 26  4 51 14.0800000  0  4G 6G 9G11G13
  38579672.870 9 -64584587.307 8  15319930.311    15319932.848        -937.968
      -745.524
  19345325.667 9 -67161216.579 9  15496332.952    15496335.675        1906.956
      1490.215
  25547269.544 8 -62363906.457 8  15438708.581    15438711.777        -143.203
      -110.556
   1847981.664 9 -20382983.936 9  17090339.713    17090342.883        2826.024
      2205.117
 88  3 26  4 51 17.0800000  0  4G 6G 9G11G13
  38582479.814 9 -64582400.078 9  15320464.862    15320466.438        -944.435
      -722.470
  19339632.503 8 -67165652.812 8  15495251.254    15495253.126        1893.846
      1474.494
  25547715.041 7 -62363559.307 9  15438794.200    15438797.742        -158.809
      -102.962
   1839516.087 9 -20389580.480 7  17088729.325    17088732.403        2816.487
      2206.011
 88  3 26  4 51 20.0800000  0  4G 6G 9G11G13
  38585292.330 9 -64580208.516 8  15320999.276    15321001.056        -929.276
      -727.901
  19333943.536 8 -67170085.755 8  15494167.942    15494170.923        1899.866
      1482.478
  25548165.462 9 -62363208.334 8  15438879.884    15438882.450        -158.211
      -114.880
   1831054.349 8 -20396174.043 9  17087118.338    17087121.900        2803.927
      2195.429
 88  3 26  4 51 23.0800000  0  4G 6G 9G11G13
  38588110.304 9 -64578012.681 8  15321535.257    15321538.315        -938.295
      -729.697
  19328258.830 8 -67174515.394 8  15493086.199    15493088.333        1904.308
      1476.401
  25548620.809 8 -62362853.515 8  15438966.459    15438969.241        -165.213
      -122.076
   1822596.490 9 -20402764.566 9  17085508.675    17085513.155        2827.260
      2183.493
 88  3 26  4 51 26.0800000  0  4G 6G 9G11G13
  38590933.849 9 -64575812.520 8  15322072.703    15322075.167        -942.425
      -738.620
  19322578.356 9 -67178941.740 8  15492005.647    15492007.601        1903.303
      1465.881
  25549081.082 9 -62362494.858 9  15439054.174    15439057.296        -141.337
      -128.271
   1814142.527 9 -20409352.072 8  17083899.833    17083903.964        2834.884
      2210.709
 88  3 26  4 51 29.0800000  0  4G 6G 9G11G13
  38593762.882 9 -64573608.086 8  15322610.996    15322614.419        -930.169
      -729.840
  19316902.178 9 -67183364.740 9  15490924.640    15490927.949        1891.900
      1473.127
  25549546.262 8 -62362132.376 8  15439142.988    15439146.553        -152.852
      -136.728
   1805692.425 9 -20415936.565 8  17082292.500    17082295.772        2817.635
      2183.045
 88  3 26  4 51 32.0800000  0  4G 6G 9G11G13
  38596597.395 9 -64571399.378 8  15323150.510    15323153.545        -959.857
      -733.748
  19311230.248 9 -67187784.425 8  15489846.524    15489847.932        1892.993
      1488.711
  25550016.372 8 -62361766.050 8  15439231.812    15439234.609        -168.993
      -120.796
   1797246.221 9 -20422518.009 8  17080685.494    17080689.269        2804.741
      2184.928
 88  3 26  4 51 35.0800000  0  4G 6G 9G11G13
  38599437.436 9 -64569186.351 8  15323691.412    15323694.649        -946.835
      -730.449
  19305562.482 9 -67192200.854 9  15488766.878    15488769.211        1901.222
      1465.850
  25550491.399 8 -62361395.896 8  15439322.274    15439325.585        -161.417
      -122.101
   1788803.883 9 -20429096.449 8  17079078.262    17079082.552        2808.170
      2173.694
 88  3 26  4 51 38.0800000  0  4G 6G 9G11G13
  38602282.989 9 -64566969.038 8  15324232.594    15324234.740        -964.323
      -748.276
  19299898.947 8 -67196614.000 8  15487689.873    15487692.107        1900.600
      1472.350
  25550971.329 8 -62361021.917 8  15439413.933    15439416.645        -168.562
      -112.457
   1780365.398 9 -20435671.881 8  17077472.090    17077476.228        2821.311
      2192.900
 88  3 26  4 51 41.0800000  0  4G 6G 9G11G13
  38605134.022 9 -64564747.453 9  15324775.637    15324778.404        -956.500
      -748.432
  19294239.708 8 -67201023.798 9  15486613.069    15486613.602        1901.493
      1477.619
  25551456.177 8 -62360644.119 8  15439505.878    15439509.019        -159.216
      -112.706
   1771930.791 9 -20442244.301 8  17075867.779    17075871.592        2805.809
      2188.669
 88  3 26  4 51 44.0800000  0  4G 6G 9G11G13
  38607990.561 9 -64562521.584 8  15325318.853    15325321.608        -946.460
      -747.121
  19288584.639 8 -67205430.350 7  15485536.450    15485538.303        1877.889
      1484.069
  25551945.930 8 -62360262.500 8  15439598.232    15439603.428        -135.540
      -128.656
   1763500.020 9 -20448813.730 8  17074262.060    17074267.000        2822.826
      2191.937
 88  3 26  4 51 47.0800000  0  4G 6G 9G11G13
  38610852.594 9 -64560291.429 9  15325863.538    15325865.849        -952.433
      -734.805
  19282933.812 9 -67209833.578 8  15484461.704    15484463.897        1889.021
      1473.667
  25552440.579 8 -62359877.049 7  15439694.059    15439695.945        -198.522
      -120.808
   1755073.097 9 -20455380.165 7  17072659.644    17072663.435        2811.272
      2201.109
 88  3 26  4 51 50.0800000  0  4G 6G 9G11G13
  38613720.111 8 -64558056.988 8  15326409.206    15326411.261        -954.754
      -742.237
  19277287.282 8 -67214233.477 9  15483386.417    15483388.006        1890.202
      1451.969
  25552940.123 8 -62359487.792 9  15439787.887    15439791.041        -170.037
      -129.675
   1746650.044 9 -20461943.563 8  17071055.591    17071060.409        2814.366
      2192.869
 88  3 26  4 51 53.0800000  0  4G 6G 9G11G13
  38616593.145 9 -64555818.268 8  15326955.676    15326958.034        -949.850
      -749.382
  19271644.953 9 -67218630.099 8  15482312.547    15482314.711        1881.621
      1468.050
  25553444.555 8 -62359094.730 9  15439884.899    15439887.939        -179.511
      -129.999
   1738230.872 9 -20468503.966 8  17069454.534    17069458.419        2799.717
      2197.318
 88  3 26  4 51 56.0800000  0  4G 6G 9G11G13
  38619471.689 9 -64553575.245 8  15327503.576    15327506.196        -972.090
      -742.541
  19266006.850 8 -67223023.431 8  15481240.109    15481242.380        1891.158
      1466.217
  25553953.868 9 -62358697.861 8  15439979.857    15439984.297        -154.647
      -127.178
   1729815.520 9 -20475061.373 8  17067852.926    17067857.142        2819.477
      2185.444
 88  3 26  4 51 59.0800000  0  4G 6G 9G11G13
  38622355.702 9 -64551327.966 8  15328052.557    15328054.831        -951.237
      -741.025
  19260373.058 9 -67227413.393 8  15480168.758    15480170.164        1880.034
      1463.744
  25554468.080 8 -62358297.169 8  15440078.312    15440082.653        -173.331
      -131.241
   1721404.068 9 -20481615.746 8  17066251.942    17066256.265        2808.433
      2196.796
 88  3 26  4 52  2.0800000  0  4G 6G 9G11G13
  38625245.209 9 -64549076.406 9  15328603.036    15328604.610        -970.383
      -753.328
  19254743.524 9 -67231800.038 8  15479096.891    15479099.241        1884.938
      1472.269
  25554987.171 7 -62357892.692 8  15440176.840    15440180.494        -181.058
      -132.683
   1712996.485 9 -20488167.096 8  17064652.070    17064657.005        2804.087
      2194.479
 88  3 26  4 52  5.0800000  0  4G 6G 9G11G13
  38628140.197 9 -64546820.577 8  15329152.806    15329156.290        -961.189
      -740.646
  19249118.198 9 -67236183.405 8  15478026.264    15478027.940        1895.528
      1468.205
  25555511.166 8 -62357484.381 8  15440277.733    15440281.028        -155.021
      -130.222
   1704592.794 9 -20494715.425 8  17063053.724    17063057.934        2803.840
      2178.814
 88  3 26  4 52  8.0800000  0  4G 6G 9G11G13
  38631040.680 9 -64544560.456 8  15329705.474    15329708.173        -973.446
      -757.249
  19243497.156 8 -67240563.432 8  15476956.165    15476958.158        1857.905
      1452.876
  25556040.057 8 -62357072.247 8  15440378.032    15440381.415        -185.284
      -141.724
   1696192.961 9 -20501260.731 8  17061454.889    17061459.399        2793.425
      2197.120
 88  3 26  4 52 11.0800000  0  4G 6G 9G11G13
  38633946.690 9 -64542296.035 8  15330258.513    15330259.793        -952.385
      -765.103
  19237880.372 8 -67244940.143 8  15475887.663    15475889.091        1874.907
      1459.295
  25556573.852 8 -62356656.312 9  15440480.078    15440482.205        -191.855
      -126.444
   1687797.012 9 -20507803.034 7  17059857.258    17059861.154        2792.604
      2182.418
 88  3 26  4 52 14.0800000  0  4G 6G 9G11G13
  38636858.209 9 -64540027.313 8  15330811.289    15330814.391        -972.305
      -767.005
  19232267.918 9 -67249313.494 7  15474819.818    15474822.848        1875.688
      1461.159
  25557112.534 8 -62356236.553 8  15440582.642    15440586.196        -187.908
      -146.838
   1679404.938 8 -20514342.304 8  17058260.222    17058263.651        2799.031
      2194.379
 88  3 26  4 52 17.0800000  0  4G 6G 9G11G13
  38639775.232 9 -64537754.312 7  15331368.028    15331369.401        -973.342
      -754.571
  19226659.710 8 -67253683.524 8  15473752.355    15473754.934        1877.163
      1467.025
  25557656.121 8 -62355812.974 8  15440685.684    15440689.049        -160.348
      -147.422
   1671016.785 9 -20520878.526 8  17056663.779    17056668.058        2801.391
      2165.485
 88  3 26  4 52 20.0800000  0  4G 6G 9G11G13
  38642697.772 8 -64535476.995 9  15331922.366    15331925.924        -971.596
      -757.100
  19221055.771 9 -67258050.230 9  15472687.627    15472689.003        1879.564
      1454.634
  25558204.582 8 -62355385.603 8  15440789.780    15440792.846        -184.519
      -150.777
   1662632.514 8 -20527411.710 9  17055068.419    17055073.971        2777.955
      2173.638
 88  3 26  4 52 23.0800000  0  4G 6G 9G11G13
  38645625.832 9 -64533195.408 8  15332481.564    15332482.827        -976.938
      -754.117
  19215456.179 8 -67262413.547 8  15471620.521    15471623.630        1875.114
      1464.744
  25558757.945 8 -62354954.404 8  15440894.821    15440898.990        -175.364
      -135.032
   1654252.166 9 -20533941.862 8  17053474.220    17053478.468        2788.569
      2158.196
 88  3 26  4 52 26.0800000  0  4G 6G 9G11G13
  38648559.415 9 -64530909.504 8  15333039.165    15333041.399        -970.870
      -762.307
  19209860.870 9 -67266773.520 8  15470556.516    15470559.259        1862.762
      1447.209
  25559316.212 8 -62354519.392 8  15441001.533    15441005.158        -175.874
      -141.786
   1645875.691 9 -20540468.975 9  17051879.841    17051884.661        2802.763
      2168.561
 88  3 26  4 52 29.0800000  0  4G 6G 9G11G13
  38651498.532 9 -64528619.273 8  15333597.964    15333600.265        -978.780
      -772.454
  19204269.832 9 -67271130.185 9  15469491.704    15469494.149        1864.516
      1462.035
  25559879.387 8 -62354080.553 9  15441108.350    15441112.587        -169.670
      -155.972
   1637503.116 9 -20546993.050 8  17050287.442    17050290.754        2780.259
      2169.611
 88  3 26  4 52 32.0800000  0  4G 6G 9G11G13
  38654443.179 9 -64526324.746 9  15334158.540    15334160.534        -977.959
      -766.265
  19198683.118 8 -67275483.465 8  15468428.925    15468432.040        1864.078
      1446.637
  25560447.458 8 -62353637.900 9  15441216.795    15441220.047        -183.370
      -143.458
   1629134.468 9 -20553514.074 9  17048694.768    17048697.750        2784.111
      2175.676
 88  3 26  4 52 35.0800000  0  4G 6G 9G11G13
  38657393.344 8 -64524025.923 8  15334719.180    15334722.310        -968.087
      -774.977
  19193100.721 9 -67279833.376 9  15467367.332    15467368.351        1857.060
      1442.337
  25561020.440 9 -62353191.419 8  15441325.148    15441329.133        -195.037
      -141.507
   1620769.732 9 -20560032.041 8  17047101.969    17047105.440        2791.248
      2178.547
 88  3 26  4 52 38.0800000  0  4G 6G 9G11G13
  38660349.015 8 -64521722.793 8  15335281.630    15335284.033        -962.066
      -766.066
  19187522.628 9 -67284179.952 9  15466305.750    15466308.118        1867.259
      1430.513
  25561598.306 9 -62352741.129 7  15441435.400    15441438.997        -204.223
      -152.120
   1612408.903 9 -20566546.973 7  17045511.322    17045516.046        2793.449
      2158.122
 88  3 26  4 52 41.0800000  0  4G 6G 9G11G13
  38663310.267 9 -64519415.330 8  15335845.561    15335848.846        -977.552
      -774.151
  19181948.868 9 -67288523.136 8  15465244.218    15465247.169        1873.727
      1456.635
  25562181.074 8 -62352287.016 8  15441546.466    15441549.947        -190.260
      -150.256
   1604052.018 9 -20573058.818 8  17043921.364    17043925.401        2791.559
      2184.095
 88  3 26  4 52 44.0800000  0  4G 6G 9G11G13
  38666277.032 9 -64517103.563 9  15336410.476    15336412.704        -990.224
      -772.485
  19176379.411 9 -67292862.968 8  15464184.598    15464187.305        1866.087
      1445.724
  25562768.747 8 -62351829.092 9  15441658.530    15441662.414        -204.797
      -151.747
   1595699.057 9 -20579567.613 8  17042330.708    17042335.795        2786.463
      2174.967
 88  3 26  4 52 47.0800000  0  4G 6G 9G11G13
  38669249.330 8 -64514787.486 9  15336975.837    15336978.857        -985.176
      -755.018
  19170814.248 8 -67297199.451 8  15463126.229    15463128.981        1853.033
      1453.093
  25563361.322 8 -62351367.346 9  15441770.826    15441774.221        -188.809
      -154.201
   1587349.998 9 -20586073.364 8  17040742.969    17040746.271        2782.843
      2168.996
 88  3 26  4 52 50.0800000  0  4G 6G 9G11G13
  38672227.155 9 -64512467.101 8  15337542.997    15337545.476        -985.742
      -763.301
  19165253.447 8 -67301532.556 8  15462068.544    15462070.288        1842.005
      1440.405
  25563958.813 9 -62350901.767 9  15441884.634    15441888.633        -203.099
      -147.590
   1579004.865 9 -20592576.067 8  17039154.919    17039159.060        2792.524
      2167.523
 88  3 26  4 52 53.0800000  0  4G 6G 9G11G13
  38675210.546 9 -64510142.390 8  15338110.277    15338113.543        -978.485
      -776.493
  19159696.939 8 -67305862.296 8  15461010.169    15461012.041        1852.913
      1449.962
  25564561.213 8 -62350432.358 8  15441999.738    15442002.648        -205.699
      -153.530
   1570663.670 9 -20599075.699 8  17037566.668    17037572.300        2780.180
      2170.543
 88  3 26  4 52 56.0800000  0  4G 6G 9G11G13
  38678199.454 9 -64507813.371 9  15338679.672    15338682.119        -998.980
      -775.847
  19154144.869 9 -67310188.588 8  15459954.369    15459956.691        1847.276
      1443.456
  25565168.528 8 -62349959.130 8  15442114.604    15442118.199        -212.317
      -170.140
   1562326.408 9 -20605572.257 8  17035980.458    17035986.178        2781.767
      2166.237
 88  3 26  4 52 59.0800000  0  4G 6G 9G11G13
  38681193.911 9 -64505480.033 9  15339249.152    15339251.237        -998.589
      -778.295
  19148597.086 9 -67314511.529 8  15458898.541    15458900.044        1858.169
      1440.144
  25565780.718 9 -62349482.097 8  15442231.283    15442234.307        -199.112
      -151.256
   1553993.073 9 -20612065.758 8  17034394.721    17034398.125        2776.910
      2175.974
 88  3 26  4 53  2.0800000  0  4G 6G 9G11G13
  38684193.930 9 -64503142.345 8  15339819.888    15339822.014        -997.153
      -788.697
  19143053.624 8 -67318831.106 8  15457842.823    15457846.061        1857.762
      1446.271
  25566397.801 8 -62349001.251 9  15442349.084    15442351.262        -187.972
      -156.283
   1545663.677 9 -20618556.199 9  17032810.347    17032814.292        2768.505
      2172.202
 88  3 26  4 53  5.0800000  0  4G 6G 9G11G13
  38687199.457 9 -64500800.376 8  15340392.546    15340393.550        -996.396
      -772.728
  19137514.491 9 -67323147.322 9  15456789.580    15456791.494        1848.759
      1433.408
  25567019.796 8 -62348516.582 8  15442467.182    15442470.450        -193.865
      -152.412
   1537338.177 9 -20625043.587 9  17031225.916    17031229.102        2779.613
      2154.866
 88  3 26  4 53  8.0800000  0  4G 6G 9G11G13
  38690210.502 9 -64498454.105 8  15340964.916    15340967.380        -993.429
      -788.896
  19131979.706 9 -67327460.136 9  15455736.257    15455737.970        1851.542
      1443.866
  25567646.685 9 -62348028.093 8  15442586.547    15442589.845        -215.491
      -161.241
   1529016.613 9 -20631527.915 8  17029642.363    17029646.504        2767.468
      2148.602
 88  3 26  4 53 11.0800000  0  4G 6G 9G11G13
  38693227.108 9 -64496103.512 8  15341539.575    15341541.936       -1014.801
      -787.175
  19126449.241 8 -67331769.585 9  15454683.780    15454685.867        1837.116
      1443.176
  25568278.452 8 -62347535.806 9  15442706.573    15442709.495        -193.833
      -162.832
   1520698.983 8 -20638009.181 8  17028058.647    17028063.658        2778.672
      2159.389
 88  3 26  4 53 14.0800000  0  4G 6G 9G11G13
  38696249.237 9 -64493748.601 9  15342114.612    15342116.576       -1008.110
      -780.364
  19120923.157 9 -67336075.622 8  15453631.827    15453635.276        1856.829
      1429.754
  25568915.087 8 -62347039.719 9  15442828.064    15442831.175        -210.970
      -165.156
   1512385.282 9 -20644487.383 9  17026477.234    17026481.763        2776.631
      2140.748
 88  3 26  4 53 17.0800000  0  4G 6G 9G11G13
  38699276.907 9 -64491389.392 8  15342688.970    15342692.808        -995.726
      -788.163
  19115401.453 9 -67340378.255 9  15452581.077    15452583.369        1849.086
      1432.228
  25569556.608 8 -62346539.840 8  15442949.880    15442953.775        -193.968
      -159.738
   1504075.526 9 -20650962.507 9  17024895.707    17024899.425        2783.760
      2156.245
 88  3 26  4 53 20.0800000  0  4G 6G 9G11G13
  38702310.082 9 -64489025.876 8  15343267.907    15343270.028       -1004.992
      -776.953
  19109884.071 9 -67344677.509 9  15451531.335    15451533.021        1838.918
      1438.503
  25570202.990 8 -62346036.163 8  15443073.243    15443076.253        -207.357
      -168.797
   1495769.718 9 -20657434.568 7  17023315.134    17023319.243        2764.789
      2164.802
 88  3 26  4 53 23.0800000  0  4G 6G 9G11G13
  38705348.774 8 -64486658.060 8  15343847.114    15343847.304       -1006.180
      -799.204
  19104371.055 9 -67348973.368 8  15450481.699    15450483.840        1842.451
      1426.206
  25570854.245 9 -62345528.691 8  15443196.987    15443200.399        -217.309
      -160.036
   1487467.838 9 -20663903.557 9  17021734.857    17021739.887        2758.481
      2151.591
 88  3 26  4 53 26.0800000  0  4G 6G 9G11G13
  38708393.015 9 -64484285.924 8  15344424.979    15344427.096       -1002.432
      -777.792
  19098862.338 9 -67353265.865 9  15449434.446    15449436.410        1836.303
      1433.209
  25571510.365 9 -62345017.433 9  15443322.174    15443325.598        -197.110
      -163.976
   1479169.875 9 -20670369.497 8  17020156.656    17020161.642        2758.210
      2167.672
 88  3 26  4 53 29.0800000  0  4G 6G 9G11G13
  38711442.770 9 -64481909.489 9  15345005.631    15345007.553       -1016.810
      -774.747
  19093357.937 9 -67357555.009 8  15448386.511    15448388.023        1834.748
      1423.280
  25572171.359 8 -62344502.367 8  15443447.549    15443451.603        -221.424
      -177.012
   1470875.852 9 -20676832.374 8  17018578.183    17018582.680        2762.931
      2159.110
 88  3 26  4 53 32.0800000  0  4G 6G 9G11G13
  38714498.028 9 -64479528.782 8  15345586.871    15345589.309       -1013.022
      -793.308
  19087857.918 8 -67361840.734 8  15447340.020    15447341.643        1823.265
      1433.905
  25572837.230 8 -62343983.515 8  15443574.332    15443578.548        -229.446
      -157.035
   1462585.769 8 -20683292.165 8  17016999.967    17017005.151        2782.325
      2149.242
 88  3 26  4 53 35.0800000  0  4G 6G 9G11G13
  38717558.826 8 -64477143.739 8  15346169.414    15346171.514       -1028.174
      -789.828
  19082362.297 9 -67366123.040 8  15446294.311    15446296.978        1824.971
      1437.708
  25573507.935 7 -62343460.884 8  15443702.054    15443704.437        -233.067
      -163.634
   1454299.604 9 -20689748.907 8  17015424.017    17015429.816        2750.531
      2149.522
 88  3 26  4 53 38.0800000  0  4G 6G 9G11G13
  38720625.146 9 -64474754.402 8  15346752.388    15346754.883       -1009.952
      -811.085
  19076871.036 9 -67370401.939 8  15445249.882    15445251.375        1815.123
      1423.211
  25574183.506 8 -62342934.457 9  15443830.592    15443833.358        -211.273
      -174.657
   1446017.388 9 -20696202.580 7  17013847.729    17013851.840        2758.529
      2155.034
 88  3 26  4 53 41.0800000  0  4G 6G 9G11G13
  38723697.005 9 -64472360.739 8  15347337.914    15347339.126       -1018.054
      -801.560
  19071384.127 9 -67374677.458 8  15444204.742    15444207.317        1820.689
      1431.407
  25574863.949 8 -62342404.233 8  15443959.859    15443963.715        -233.298
      -166.039
   1437739.103 9 -20702653.186 7  17012272.919    17012275.657        2741.337
      2144.464
 88  3 26  4 53 44.0800000  0  4G 6G 9G11G13
  38726774.396 9 -64469962.780 8  15347922.566    15347925.120       -1030.917
      -795.830
  19065901.609 9 -67378949.549 8  15443161.551    15443164.030        1839.620
      1432.147
  25575549.250 9 -62341870.239 7  15444090.619    15444095.064        -231.926
      -160.701
   1429464.731 9 -20709100.744 9  17010697.766    17010702.539        2763.721
      2158.103
 88  3 26  4 53 47.0800000  0  4G 6G 9G11G13
  38729857.284 9 -64467560.518 7  15348510.171    15348510.767       -1021.882
      -795.240
  19060423.373 9 -67383218.296 8  15442119.578    15442120.997        1824.828
      1418.066
  25576239.404 8 -62341332.451 9  15444221.382    15444224.818        -207.477
      -182.083
   1421194.274 9 -20715545.251 8  17009124.539    17009128.842        2763.418
      2150.442
 88  3 26  4 53 50.0800000  0  4G 6G 9G11G13
  38732945.708 9 -64465153.963 8  15349097.638    15349099.861       -1032.687
      -806.580
  19054949.524 8 -67387483.642 8  15441077.931    15441080.982        1832.348
      1424.647
  25576934.412 8 -62340790.882 8  15444353.762    15444357.258        -223.338
      -177.739
   1412927.756 9 -20721986.676 9  17007550.145    17007555.762        2760.714
      2153.803
 88  3 26  4 53 53.0800000  0  4G 6G 9G11G13
  38736039.695 9 -64462743.076 8  15349686.550    15349687.657       -1029.481
      -784.080
  19049480.050 9 -67391745.564 8  15440037.401    15440038.645        1823.711
      1434.315
  25577634.288 9 -62340245.524 8  15444487.068    15444491.106        -214.933
      -178.634
   1404665.172 9 -20728425.057 9  17005978.834    17005983.357        2739.845
      2143.476
 88  3 26  4 53 56.0800000  0  4G 6G 9G11G13
  38739139.155 9 -64460327.903 8  15350275.682    15350277.913       -1033.030
      -801.342
  19044014.930 9 -67396004.097 8  15438997.137    15438998.721        1834.118
      1427.617
  25578339.030 9 -62339696.378 8  15444621.536    15444625.264        -245.435
      -173.358
   1396406.535 9 -20734860.353 8  17004406.972    17004410.941        2766.392
      2133.553
 88  3 26  4 53 59.0800000  0  4G 6G 9G11G13
  38742244.163 9 -64457908.419 8  15350866.824    15350868.793       -1029.888
      -793.283
  19038554.242 8 -67400259.182 8  15437957.819    15437959.748        1831.454
      1429.469
  25579048.643 9 -62339143.437 8  15444756.198    15444759.477        -236.655
      -196.119
   1388151.834 9 -20741292.586 7  17002836.012    17002840.550        2761.575
      2147.440
 88  3 26  4 54  2.0800000  0  4G 6G 9G11G13
  38745354.727 9 -64455484.615 8  15351458.609    15351460.910       -1043.333
      -802.032
  19033097.925 9 -67404510.852 8  15436919.618    15436921.261        1814.182
      1419.384
  25579763.112 8 -62338586.701 8  15444891.323    15444895.523        -242.205
      -178.702
   1379901.084 9 -20747721.724 9  17001267.096    17001270.524        2753.920
      2133.820
 88  3 26  4 54  5.0800000  0  4G 6G 9G11G13
  38748470.817 9 -64453056.487 8  15352051.792    15352053.616       -1034.266
      -799.080
  19027645.972 9 -67408759.126 7  15435882.336    15435885.137        1813.289
      1412.368
  25580482.442 8 -62338026.182 8  15445029.223    15445032.636        -253.114
      -181.150
   1371654.302 9 -20754147.793 9  16999696.488    16999701.145        2737.357
      2151.131
 88  3 26  4 54  8.0800000  0  4G 6G 9G11G13
  38751592.438 9 -64450624.052 8  15352645.099    15352648.650       -1039.633
      -815.329
  19022198.430 9 -67413003.956 8  15434845.496    15434847.129        1827.978
      1421.291
  25581206.623 9 -62337461.882 8  15445167.562    15445169.857        -247.229
      -180.672
   1363411.432 9 -20760570.794 8  16998128.177    16998132.495        2760.132
      2137.318
 88  3 26  4 54 11.0800000  0  4G 6G 9G11G13
  38754719.607 9 -64448187.306 8  15353240.552    15353243.243       -1050.972
      -804.256
  19016755.284 9 -67417245.387 8  15433809.915    15433812.561        1810.921
      1422.714
  25581935.641 9 -62336893.806 9  15445306.414    15445308.935        -239.550
      -195.660
   1355172.493 9 -20766990.742 8  16996560.408    16996565.687        2747.317
      2138.604
 88  3 26  4 54 14.0800000  0  4G 6G 9G11G13
  38757852.313 9 -64445746.230 9  15353837.039    15353838.978       -1059.481
      -815.019
  19011316.528 9 -67421483.375 9  15432774.238    15432777.319        1823.911
      1418.874
  25582669.514 9 -62336321.960 8  15445444.222    15445448.020        -242.891
      -178.348
   1346937.524 9 -20773407.591 7  16994992.704    16994997.721        2742.158
      2151.535
 88  3 26  4 54 17.0800000  0  4G 6G 9G11G13
  38760990.563 9 -64443300.837 8  15354433.330    15354436.128       -1032.264
      -814.820
  19005882.232 9 -67425717.888 8  15431740.334    15431742.626        1823.185
      1416.221
  25583408.236 9 -62335746.336 8  15445586.022    15445589.734        -250.833
      -183.885
   1338706.508 9 -20779821.373 8  16993426.520    16993432.492        2742.963
      2116.489
 88  3 26  4 54 20.0800000  0  4G 6G 9G11G13
  38764134.343 9 -64440851.129 8  15355031.954    15355034.065       -1049.011
      -819.611
  19000452.346 9 -67429948.973 8  15430707.312    15430710.079        1805.785
      1409.522
  25584151.814 8 -62335166.917 8  15445727.366    15445729.902        -228.059
      -183.058
   1330479.455 9 -20786232.052 8  16991861.616    16991865.833        2744.781
      2138.934
 88  3 26  4 54 23.0800000  0  4G 6G 9G11G13
  38767283.669 9 -64438397.124 8  15355631.603    15355633.818       -1038.126
      -819.145
  18995026.826 9 -67434176.648 9  15429674.077    15429676.620        1811.032
      1405.595
  25584900.249 8 -62334583.722 8  15445869.936    15445873.733        -242.516
      -184.369
   1322256.379 9 -20792639.642 9  16990296.333    16990302.095        2738.490
      2134.739
 88  3 26  4 54 26.0800000  0  4G 6G 9G11G13
  38770438.531 9 -64435938.784 9  15356231.136    15356234.440       -1057.152
      -821.692
  18989605.720 9 -67438400.889 9  15428643.392    15428644.964        1802.093
      1411.200
  25585653.554 8 -62333996.731 8  15446013.610    15446015.845        -232.078
      -194.032
   1314037.284 9 -20799044.128 9  16988732.368    16988737.757        2744.175
      2125.885
 88  3 26  4 54 29.0800000  0  4G 6G 9G11G13
  38773598.962 9 -64433476.119 8  15356833.373    15356835.379       -1037.934
      -823.830
  18984189.098 9 -67442621.637 8  15427613.112    15427614.618        1810.873
      1407.261
  25586411.699 9 -62333405.978 8  15446158.210    15446160.362        -255.299
      -200.786
   1305822.177 9 -20805445.507 8  16987169.786    16987173.680        2732.868
      2137.641
 88  3 26  4 54 32.0800000  0  4G 6G 9G11G13
  38776764.918 9 -64431009.140 8  15357436.175    15357438.224       -1053.412
      -814.807
  18978776.845 9 -67446838.965 8  15426582.428    15426584.417        1818.097
      1389.557
  25587174.673 9 -62332811.440 8  15446302.533    15446306.716        -247.795
      -194.603
   1297611.053 9 -20811843.776 9  16985607.211    16985611.867        2738.203
      2124.045
 88  3 26  4 54 35.0800000  0  4G 6G 9G11G13
  38779936.387 8 -64428537.865 8  15358038.664    15358041.095       -1041.004
      -808.438
  18973369.017 9 -67451052.857 8  15425553.196    15425555.094        1804.549
      1405.838
  25587942.489 9 -62332213.133 8  15446448.996    15446451.976        -254.996
      -208.994
   1289403.900 9 -20818238.963 8  16984045.470    16984049.125        2737.413
      2124.642
 88  3 26  4 54 38.0800000  0  4G 6G 9G11G13
  38783113.413 9 -64426062.262 8  15358643.669    15358645.343       -1049.912
      -815.982
  18967965.549 9 -67455263.352 9  15424525.148    15424527.516        1814.214
      1388.799
  25588715.147 9 -62331611.060 8  15446594.685    15446599.186        -262.978
      -184.643
   1281200.731 9 -20824631.027 8  16982483.751    16982488.669        2727.676
      2124.188
 88  3 26  4 54 41.0800000  0  4G 6G 9G11G13
  38786295.977 9 -64423582.352 8  15359249.828    15359251.483       -1057.376
      -825.619
  18962566.528 8 -67459470.380 8  15423498.410    15423499.895        1802.755
      1410.771
  25589492.653 8 -62331005.219 8  15446744.197    15446746.881        -264.940
      -191.459
   1273001.519 9 -20831020.026 8  16980923.994    16980928.297        2732.541
      2127.606
 88  3 26  4 54 44.0800000  0  4G 6G 9G11G13
  38789484.047 9 -64421098.128 8  15359856.552    15359858.033       -1074.090
      -826.558
  18957171.979 9 -67463673.919 8  15422470.770    15422473.306        1801.814
      1401.333
  25590274.973 8 -62330395.606 8  15446893.213    15446895.666        -272.021
      -199.413
   1264806.242 9 -20837405.945 7  16979363.818    16979368.548        2738.450
      2137.666
 88  3 26  4 54 47.0800000  0  4G 6G 9G11G13
  38792677.695 9 -64418609.571 8  15360464.453    15360465.633       -1058.062
      -837.512
  18951781.841 8 -67467874.030 8  15421445.677    15421448.013        1798.042
      1404.029
  25591062.138 9 -62329782.241 8  15447043.330    15447045.394        -245.514
      -196.064
   1256614.909 9 -20843788.799 9  16977805.883    16977809.550        2720.922
      2141.183
 88  3 26  4 54 50.0800000  0  4G 6G 9G11G13
  38795876.855 9 -64416116.734 9  15361072.436    15361074.235       -1065.717
      -831.224
  18946396.076 9 -67472070.723 9  15420420.986    15420422.220        1798.592
      1397.499
  25591854.124 9 -62329165.106 8  15447193.597    15447196.489        -247.245
      -212.586
   1248427.551 9 -20850168.551 9  16976247.178    16976251.578        2748.729
      2119.938
 88  3 26  4 54 53.0800000  0  4G 6G 9G11G13
  38799081.542 9 -64413619.576 9  15361682.848    15361684.044       -1054.058
      -832.094
  18941014.772 9 -67476263.947 9  15419397.141    15419398.877        1792.739
      1397.673
  25592650.936 9 -62328544.215 8  15447345.339    15447348.164        -257.556
      -193.485
   1240244.175 9 -20856545.202 9  16974689.747    16974694.847        2726.074
      2116.017
 88  3 26  4 54 56.0800000  0  4G 6G 9G11G13
  38802291.775 9 -64411118.095 9  15362293.091    15362295.504       -1070.326
      -833.567
  18935637.877 9 -67480453.735 8  15418374.001    15418376.188        1789.948
      1402.047
  25593452.564 8 -62327919.567 8  15447497.112    15447499.778        -255.195
      -203.613
   1232064.756 9 -20862918.774 8  16973133.511    16973138.606        2712.605
      2137.523
 88  3 26  4 54 59.0800000  0  4G 6G 9G11G13
  38805507.535 9 -64408612.305 8  15362904.619    15362907.636       -1063.022
      -837.649
  18930265.476 9 -67484640.016 8  15417351.656    15417352.798        1789.549
      1397.660
  25594259.013 8 -62327291.163 8  15447651.019    15447654.830        -274.836
      -213.475
   1223889.281 8 -20869289.263 9  16971578.635    16971582.313        2719.798
      2127.233
 88  3 26  4 55  2.0800000  0  4G 6G 9G11G13
  38808728.797 9 -64406102.235 8  15363518.160    15363519.693       -1066.714
      -837.208
  18924897.449 9 -67488822.892 8  15416329.758    15416332.077        1794.430
      1377.521
  25595070.283 9 -62326658.995 8  15447805.426    15447808.676        -264.214
      -227.505
   1215717.767 9 -20875656.668 8  16970024.259    16970027.449        2722.645
      2120.479
 88  3 26  4 55  5.0800000  0  4G 6G 9G11G13
  38811955.594 9 -64403587.834 7  15364132.310    15364135.319       -1073.085
      -838.159
  18919533.860 9 -67493002.306 8  15415309.346    15415310.801        1785.227
      1388.930
  25595886.367 9 -62326023.089 7  15447960.584    15447963.867        -278.736
      -214.518
   1207550.210 9 -20882021.000 8  16968469.301    16968473.230        2715.579
      2120.386
 88  3 26  4 55  8.0800000  0  4G 6G 9G11G13
  38815187.910 9 -64401069.157 8  15364747.321    15364748.334       -1069.696
      -843.211
  18914174.699 9 -67497178.286 8  15414289.802    15414291.981        1785.395
      1387.936
  25596707.265 8 -62325383.433 8  15448116.899    15448120.039        -281.694
      -209.175
   1199386.609 9 -20888382.236 8  16966914.953    16966919.821        2719.184
      2112.699
 88  3 26  4 55 11.0800000  0  4G 6G 9G11G13
  38818425.762 9 -64398546.163 9  15365362.939    15365365.532       -1083.571
      -838.935
  18908819.925 8 -67501350.835 9  15413269.433    15413271.336        1810.649
      1384.661
  25597532.982 7 -62324740.016 8  15448273.421    15448276.660        -285.083
      -224.299
   1191226.966 9 -20894740.396 8  16965361.725    16965368.208        2704.415
      2117.745
 88  3 26  4 55 14.0800000  0  4G 6G 9G11G13
  38821669.122 9 -64396018.866 8  15365980.402    15365982.537       -1065.589
      -843.788
  18903469.626 9 -67505519.899 8  15412251.549    15412254.128        1792.276
      1393.292
  25598363.495 7 -62324092.863 8  15448431.920    15448434.918        -278.720
      -202.358
   1183071.278 8 -20901095.465 8  16963810.611    16963815.455        2709.327
      2114.079
 88  3 26  4 55 17.0800000  0  4G 6G 9G11G13
  38824918.053 9 -64393487.237 8  15366598.673    15366601.544       -1087.822
      -827.794
  18898123.765 9 -67509685.507 7  15411234.780    15411237.454        1788.576
      1403.663
  25599198.807 8 -62323441.957 9  15448590.563    15448593.661        -285.203
      -204.353
   1174919.590 9 -20907447.433 7  16962260.377    16962263.324        2719.798
      2116.054
 88  3 26  4 55 20.0800000  0  4G 6G 9G11G13
  38828172.465 9 -64390951.336 9  15367217.998    15367220.700       -1097.383
      -843.012
  18892782.347 8 -67513847.647 9  15410218.244    15410220.341        1784.669
      1373.420
  25600038.955 8 -62322787.307 8  15448751.193    15448754.034        -282.523
      -206.838
   1166771.886 9 -20913796.277 8  16960708.787    16960713.226        2717.948
      2097.376
 88  3 26  4 55 23.0800000  0  4G 6G 9G11G13
  38831432.424 9 -64388411.103 8  15367839.075    15367840.391       -1065.119
      -847.218
  18887445.419 9 -67518006.287 8  15409202.990    15409204.737        1777.556
      1380.050
  25600883.904 9 -62322128.910 8  15448910.889    15448914.688        -286.479
      -212.611
   1158628.149 9 -20920142.051 8  16959158.618    16959163.477        2714.303
      2115.383
 88  3 26  4 55 26.0800000  0  4G 6G 9G11G13
  38834697.906 9 -64385866.564 8  15368460.541    15368462.735       -1075.470
      -841.738
  18882112.891 9 -67522161.508 9  15408188.186    15408190.448        1783.584
      1376.043
  25601733.652 9 -62321466.764 8  15449073.411    15449076.438        -280.123
      -199.984
   1150488.386 9 -20926484.719 8  16957609.851    16957614.903        2715.954
      2114.439
 88  3 26  4 55 29.0800000  0  4G 6G 9G11G13
  38837968.921 9 -64383317.729 9  15369081.940    15369085.156       -1097.535
      -842.570
  18876784.814 9 -67526313.261 8  15407173.993    15407176.008        1779.302
      1386.705
  25602588.189 8 -62320800.887 8  15449235.444    15449239.384        -280.594
      -221.894
   1142352.586 9 -20932824.295 9  16956061.235    16956066.409        2712.118
      2116.782
 88  3 26  4 55 32.0800000  0  4G 6G 9G11G13
  38841245.457 9 -64380764.591 9  15369705.768    15369707.807       -1093.101
      -841.906
  18871461.123 9 -67530461.596 8  15406161.080    15406162.578        1786.726
      1381.337
  25603447.499 8 -62320131.288 8  15449398.446    15449401.758        -296.845
      -225.585
   1134220.750 8 -20939160.781 9  16954514.406    16954518.854        2713.091
      2100.278
 88  3 26  4 55 35.0800000  0  4G 6G 9G11G13
  38844527.536 9 -64378207.123 9  15370330.673    15370333.034       -1095.110
      -852.314
  18866141.946 9 -67534606.397 9  15405149.601    15405151.516        1764.605
      1380.374
  25604311.635 8 -62319457.947 8  15449563.915    15449567.628        -295.617
      -222.702
   1126092.884 8 -20945494.180 9  16952967.780    16952971.955        2706.640
      2107.585
 88  3 26  4 55 38.0800000  0  4G 6G 9G11G13
  38847815.156 9 -64375645.343 8  15370957.264    15370959.042       -1104.735
      -853.637
  18860827.261 9 -67538747.709 9  15404137.438    15404139.122        1771.910
      1375.893
  25605180.559 7 -62318780.856 9  15449728.722    15449732.635        -293.847
      -225.660
   1117969.001 9 -20951824.470 8  16951422.308    16951425.286        2701.736
      2113.333
 88  3 26  4 55 41.0800000  0  4G 6G 9G11G13
  38851108.287 9 -64373079.265 8  15371582.492    15371585.402       -1099.201
      -860.242
  18855517.037 8 -67542885.554 9  15403127.765    15403128.404        1769.366
      1372.488
  25606054.286 8 -62318100.029 8  15449894.739    15449899.111        -295.554
      -212.946
   1109849.122 9 -20958151.645 8  16949876.746    16949880.409        2706.146
      2104.851
 88  3 26  4 55 44.0800000  0  4G 6G 9G11G13
  38854406.953 9 -64370508.876 8  15372210.659    15372213.436       -1107.231
      -868.103
  18850211.254 9 -67547019.927 8  15402117.450    15402118.692        1771.432
      1380.063
  25606932.825 9 -62317415.446 9  15450061.194    15450065.287        -278.090
      -244.189
   1101733.240 9 -20964475.709 8  16948333.039    16948338.187        2699.487
      2102.769
 88  3 26  4 55 47.0800000  0  4G 6G 9G11G13
  38857711.170 9 -64367934.159 7  15372839.621    15372841.636       -1119.711
      -858.552
  18844909.975 9 -67551150.798 8  15401108.160    15401110.270        1789.238
      1363.721
  25607816.160 8 -62316727.133 8  15450230.237    15450234.279        -307.914
      -224.939
   1093621.322 9 -20970796.661 8  16946789.185    16946793.302        2698.347
      2102.347
 88  3 26  4 55 50.0800000  0  4G 6G 9G11G13
  38861020.932 9 -64365355.130 8  15373469.192    15373471.478       -1117.813
      -872.279
  18839613.153 9 -67555278.173 8  15400100.312    15400102.319        1776.519
      1391.900
  25608704.320 8 -62316035.072 8  15450398.725    15450402.893        -301.542
      -236.434
   1085513.399 9 -20977114.523 8  16945245.445    16945250.237        2717.740
      2113.333
 88  3 26  4 55 53.0800000  0  4G 6G 9G11G13
  38864336.220 9 -64362771.795 8  15374099.821    15374102.408       -1100.868
      -866.686
  18834320.862 9 -67559402.044 8  15399093.845    15399095.457        1773.768
      1368.350
  25609597.284 9 -62315339.245 8  15450569.770    15450572.708        -286.192
      -229.904
   1077409.471 8 -20983429.282 8  16943703.245    16943707.763        2707.414
      2099.147
 88  3 26  4 55 56.0800000  0  4G 6G 9G11G13
  38867657.095 9 -64360184.103 9  15374732.565    15374733.529       -1107.207
      -865.245
  18829033.080 9 -67563522.392 8  15398087.096    15398088.951        1767.955
      1367.449
  25610495.053 8 -62314639.668 8  15450740.448    15450743.187        -308.998
      -232.514
   1069309.554 9 -20989740.889 9  16942162.894    16942167.426        2701.138
      2104.279
 88  3 26  4 55 59.0800000  0  4G 6G 9G11G13
  38870983.496 9 -64357592.099 9  15375364.659    15375367.120       -1086.370
      -884.420
  18823749.770 9 -67567639.265 9  15397081.791    15397083.383        1762.676
      1362.664
  25611397.635 7 -62313936.374 8  15450911.793    15450915.723        -297.164
      -210.914
   1061213.630 9 -20996049.396 8  16940621.808    16940625.799        2689.240
      2107.324
 88  3 26  4 56  2.0800000  0  4G 6G 9G11G13
  38874315.448 9 -64354995.773 9  15375999.190    15376001.420       -1104.257
      -868.376
  18818470.975 9 -67571752.602 9  15396077.655    15396079.239        1759.901
      1367.735
  25612305.031 8 -62313229.306 8  15451084.247    15451088.602        -307.627
      -232.470
   1053121.739 9 -21002354.755 8  16939081.861    16939086.198        2676.561
      2092.287
 88  3 26  4 56  5.0800000  0  4G 6G 9G11G13
  38877652.955 9 -64352395.121 8  15376634.128    15376636.798       -1113.707
      -860.789
  18813196.647 9 -67575862.469 9  15395074.206    15395075.089        1760.754
      1373.184
  25613217.227 8 -62312518.510 8  15451258.757    15451261.880        -282.922
      -231.128
   1045033.869 9 -21008656.988 8  16937543.381    16937546.433        2693.961
      2119.317
 88  3 26  4 56  8.0800000  0  4G 6G 9G11G13
  38880996.041 9 -64349790.120 8  15377269.967    15377272.558       -1120.939
      -859.025
  18807926.816 9 -67579968.834 9  15394070.837    15394072.539        1746.775
      1379.752
  25614134.229 8 -62311803.955 7  15451432.624    15451436.447        -296.638
      -246.718
   1036950.001 8 -21014956.107 8  16936005.090    16936010.095        2696.353
      2101.999
 88  3 26  4 56 11.0800000  0  4G 6G 9G11G13
  38884344.659 9 -64347180.801 8  15377907.641    15377910.465       -1122.510
      -876.554
  18802661.582 9 -67584071.614 8  15393068.554    15393071.261        1758.322
      1365.380
  25615056.055 8 -62311085.652 8  15451607.718    15451611.470        -293.034
      -240.927
   1028870.151 8 -21021252.084 8  16934466.258    16934471.151        2683.275
      2115.166
 88  3 26  4 56 14.0800000  0  4G 6G 9G11G13
  38887698.869 9 -64344567.139 9  15378546.012    15378547.015       -1113.922
      -873.813
  18797400.901 9 -67588170.838 8  15392067.427    15392070.054        1760.738
      1360.396
  25615982.685 9 -62310363.592 8  15451784.979    15451787.472        -313.807
      -253.355
   1020794.310 9 -21027544.940 8  16932930.587    16932934.580        2680.931
      2098.637
 88  3 26  4 56 17.0800000  0  4G 6G 9G11G13
  38891058.621 9 -64341949.153 8  15379185.570    15379187.676       -1119.297
      -877.834
  18792144.656 9 -67592266.613 8  15391067.334    15391068.634        1753.904
      1371.165
  25616914.111 9 -62309637.805 8  15451961.548    15451964.901        -312.914
      -245.730
   1012722.463 8 -21033834.685 8  16931394.888    16931398.545        2710.803
      2116.657
 88  3 26  4 56 20.0800000  0  4G 6G 9G11G13
  38894423.946 9 -64339326.818 8  15379825.334    15379827.876       -1119.049
      -871.757
  18786892.920 9 -67596358.874 8  15390068.095    15390070.232        1741.759
      1367.530
  25617850.340 8 -62308908.274 8  15452140.236    15452142.878        -322.945
      -227.965
   1004654.631 8 -21040121.300 9  16929858.090    16929864.028        2707.645
      2082.649
 88  3 26  4 56 23.0800000  0  4G 6G 9G11G13
  38897794.808 9 -64336700.175 8  15380467.675    15380469.740       -1113.053
      -882.805
  18781645.741 9 -67600447.582 9  15389069.626    15389071.239        1743.083
      1358.594
  25618791.370 8 -62308175.000 8  15452319.102    15452322.908        -289.549
      -256.424
    996590.843 9 -21046404.757 9  16928323.930    16928328.408        2687.741
      2090.006
 88  3 26  4 56 26.0800000  0  4G 6G 9G11G13
  38901171.223 9 -64334069.200 9  15381108.815    15381111.834       -1114.703
      -887.192
  18776403.088 9 -67604532.761 9  15388072.002    15388073.000        1753.043
      1367.567
  25619737.197 7 -62307438.004 8  15452499.484    15452502.196        -331.231
      -247.365
    988531.104 9 -21052685.083 8  16926790.848    16926795.363        2682.845
      2093.927
 88  3 26  4 56 29.0800000  0  4G 6G 9G11G13
  38904553.186 9 -64331433.903 8  15381753.059    15381757.116       -1128.555
      -891.280
  18771164.932 9 -67608614.446 8  15387075.139    15387076.295        1743.091
      1356.450
  25620687.801 8 -62306697.262 8  15452680.067    15452682.777        -315.888
      -239.970
    980475.351 8 -21058962.287 9  16925257.448    16925261.331        2695.659
      2091.771
 88  3 26  4 56 32.0800000  0  4G 6G 9G11G13
  38907940.703 9 -64328794.277 8  15382397.047    15382399.211       -1138.977
      -881.003
  18765931.338 9 -67612692.571 9  15386079.153    15386081.563        1728.099
      1361.639
  25621643.215 8 -62305952.782 8  15452861.418    15452864.758        -326.008
      -237.404
    972423.623 9 -21065236.348 8  16923726.132    16923729.039        2686.577
      2086.701
 88  3 26  4 56 35.0800000  0  4G 6G 9G11G13
  38911333.769 9 -64326150.337 8  15383042.650    15383045.593       -1108.794
      -882.214
  18760702.293 8 -67616767.151 8  15385084.061    15385085.817        1740.930
      1359.203
  25622603.403 8 -62305204.578 8  15453044.201    15453048.168        -318.552
      -256.735
    964375.901 8 -21071507.300 7  16922194.893    16922198.113        2687.597
      2089.901
 88  3 26  4 56 38.0800000  0  4G 6G 9G11G13
  38914732.369 8 -64323502.085 8  15383688.979    15383692.381       -1127.694
      -886.918
  18755477.692 9 -67620838.251 8  15384091.001    15384091.161        1741.065
      1355.083
  25623568.384 9 -62304452.655 8  15453227.864    15453231.806        -334.381
      -244.854
    956332.226 9 -21077775.088 8  16920663.443    16920668.145        2689.862
      2111.332
 88  3 26  4 56 41.0800000  0  4G 6G 9G11G13
  38918136.556 9 -64320849.463 8  15384337.023    15384340.128       -1140.532
      -886.825
  18750257.643 9 -67624905.837 8  15383096.937    15383099.033        1756.655
      1346.813
  25624538.139 9 -62303697.002 8  15453413.049    15453415.501        -318.528
      -246.948
    948292.556 9 -21084039.764 8  16919134.273    16919138.710        2672.606
      2090.180
 88  3 26  4 56 44.0800000  0  4G 6G 9G11G13
  38921546.246 9 -64318192.565 8  15384986.460    15384990.073       -1145.046
      -883.389
  18745042.146 8 -67628969.858 8  15382103.334    15382105.840        1746.552
      1350.815
  25625512.687 8 -62302937.599 8  15453598.334    15453600.114        -328.232
      -253.560
    940256.909 9 -21090301.304 8  16917604.543    16917608.252        2678.762
      2080.450
 88  3 26  4 56 47.0800000  0  4G 6G 9G11G13
  38924961.480 9 -64315531.342 8  15385635.917    15385639.085       -1148.858
      -877.306
  18739831.192 9 -67633030.351 8  15381112.784    15381114.390        1730.603
      1345.881
  25626492.016 9 -62302174.488 8  15453784.379    15453787.676        -327.363
      -247.570
    932225.335 8 -21096559.668 8  16916076.614    16916081.450        2682.669
      2086.930
 88  3 26  4 56 50.0800000  0  4G 6G 9G11G13
  38928382.279 9 -64312865.795 9  15386288.053    15386289.892       -1132.550
      -885.147
  18734624.720 9 -67637087.343 8  15380120.805    15380123.692        1741.799
      1364.864
  25627476.092 9 -62301407.674 7  15453971.728    15453974.008        -323.918
      -250.720
    924197.748 9 -21102814.914 8  16914549.040    16914552.660        2690.644
      2078.138
 88  3 26  4 56 53.0800000  0  4G 6G 9G11G13
  38931808.616 8 -64310195.923 9  15386938.911    15386942.036       -1148.842
      -899.402
  18729422.811 9 -67641140.773 9  15379131.744    15379134.346        1741.887
      1364.168
  25628464.949 8 -62300637.134 7  15454159.788    15454162.797        -327.953
      -258.375
    916174.179 8 -21109067.061 9  16913021.737    16913025.884        2668.467
      2078.778
 88  3 26  4 56 56.0800000  0  4G 6G 9G11G13
  38935240.484 9 -64307521.743 8  15387592.392    15387596.155       -1164.120
      -903.807
  18724225.451 8 -67645190.656 9  15378142.774    15378144.410        1727.086
      1350.050
  25629458.564 9 -62299862.895 8  15454348.746    15454350.867        -334.724
      -272.456
    908154.576 8 -21115316.085 8  16911495.857    16911500.216        2668.666
      2092.498
 88  3 26  4 56 59.0800000  0  4G 6G 9G11G13
  38938677.906 9 -64304843.233 8  15388245.920    15388249.047       -1141.601
      -899.638
  18719032.648 9 -67649236.998 8  15377154.152    15377156.507        1732.126
      1332.689
  25630456.945 8 -62299084.925 9  15454539.444    15454542.353        -331.861
      -257.717
    900139.035 9 -21121561.966 8  16909970.568    16909974.940        2693.674
      2086.359
 88  3 26  4 57  2.0800000  0  4G 6G 9G11G13
  38942120.848 9 -64302160.416 8  15388901.693    15388904.627       -1133.810
      -889.609
  18713844.338 9 -67653279.839 8  15376167.846    15376170.107        1721.648
      1358.955
  25631460.094 8 -62298303.242 8  15454728.940    15454733.777        -320.099
      -274.457
    892127.517 8 -21127804.689 8  16908446.197    16908449.918        2662.765
      2085.756
 88  3 26  4 57  5.0800000  0  4G 6G 9G11G13
  38945569.304 9 -64299473.311 8  15389557.239    15389561.065       -1143.890
      -895.760
  18708660.605 8 -67657319.105 8  15375180.751    15375183.350        1739.351
      1342.581
  25632468.001 9 -62297517.865 8  15454921.072    15454924.052        -328.153
      -271.399
    884119.995 9 -21134044.313 7  16906921.836    16906925.301        2674.830
      2078.716
 88  3 26  4 57  8.0800000  0  4G 6G 9G11G13
  38949023.347 9 -64296781.850 8  15390215.877    15390218.120       -1159.471
      -912.345
  18703481.425 9 -67661354.839 8  15374195.602    15374197.424        1733.274
      1359.880
  25633480.642 8 -62296728.796 7  15455115.597    15455118.767        -354.883
      -261.948
    876116.486 9 -21140280.822 8  16905398.880    16905403.344        2661.657
      2070.675
 88  3 26  4 57 11.0800000  0  4G 6G 9G11G13
  38952482.896 9 -64294086.097 8  15390872.856    15390876.623       -1141.736
      -902.826
  18698306.764 9 -67665387.024 8  15373210.950    15373212.592        1732.517
      1354.810
  25634498.041 9 -62295936.021 7  15455307.853    15455310.337        -353.998
      -259.848
    868117.009 9 -21146514.168 8  16903876.638    16903881.031        2661.505
      2081.543
 88  3 26  4 57 14.0800000  0  4G 6G 9G11G13
  38955947.985 9 -64291386.025 9  15391533.446    15391535.604       -1148.172
      -882.277
  18693136.644 9 -67669415.696 9  15372226.886    15372227.771        1711.600
      1339.338
  25635520.173 9 -62295139.538 7  15455502.128    15455505.826        -353.224
      -261.644
    860121.566 9 -21152744.384 9  16902354.674    16902359.738        2670.732
      2094.536
 88  3 26  4 57 17.0800000  0  4G 6G 9G11G13
  38959418.608 9 -64288681.640 7  15392192.997    15392195.187       -1166.553
      -893.567
  18687971.096 9 -67673440.796 8  15371243.093    15371245.735        1722.054
      1336.604
  25636547.075 8 -62294339.359 8  15455697.402    15455700.284        -341.797
      -256.754
    852130.146 9 -21158971.460 8  16900833.862    16900837.627        2670.301
      2074.366
 88  3 26  4 57 20.0800000  0  4G 6G 9G11G13
  38962894.760 9 -64285972.953 8  15392854.412    15392856.738       -1149.687
      -906.498
  18682810.067 9 -67677462.394 8  15370262.066    15370263.357        1721.887
      1332.633
  25637578.725 8 -62293535.470 8  15455894.248    15455898.320        -343.822
      -242.114
    844142.749 9 -21165195.403 8  16899314.605    16899318.822        2660.197
      2060.671
 88  3 26  4 57 23.0800000  0  4G 6G 9G11G13
  38966376.426 9 -64283259.969 8  15393517.009    15393519.391       -1153.084
      -890.510
  18677653.553 9 -67681480.437 8  15369280.727    15369282.943        1701.138
      1331.142
  25638615.114 8 -62292727.892 9  15456091.112    15456095.176        -330.146
      -279.832
    836159.338 8 -21171416.231 8  16897795.571    16897799.605        2660.293
      2069.979
 88  3 26  4 57 26.0800000  0  4G 6G 9G11G13
  38969863.635 9 -64280542.661 8  15394181.174    15394183.937       -1161.816
      -912.202
  18672501.646 8 -67685494.913 9  15368299.966    15368301.152        1712.812
      1346.036
  25639656.234 8 -62291916.631 9  15456289.376    15456292.784        -328.009
      -268.100
    828179.978 9 -21177633.913 9  16896275.851    16896281.132        2643.380
      2095.965
 88  3 26  4 57 29.0800000  0  4G 6G 9G11G13
  38973356.375 9 -64277821.052 9  15394846.207    15394848.046       -1163.068
      -917.708
  18667354.297 9 -67689505.837 7  15367320.209    15367322.532        1728.155
      1350.112
  25640702.094 9 -62291101.678 8  15456488.462    15456491.499        -352.148
      -290.004
    820204.635 9 -21183848.465 9  16894759.395    16894763.118        2666.617
      2073.621
 88  3 26  4 57 32.0800000  0  4G 6G 9G11G13
  38976854.644 9 -64275095.127 9  15395512.069    15395512.988       -1165.349
      -899.955
  18662211.471 9 -67693513.234 8  15366342.624    15366343.657        1709.088
      1327.463
  25641752.687 8 -62290283.036 7  15456688.871    15456691.167        -349.987
      -269.579
    812233.323 9 -21190059.877 8  16893242.084    16893246.998        2664.408
      2068.295
 88  3 26  4 57 35.0800000  0  4G 6G 9G11G13
  38980358.425 9 -64272364.906 8  15396178.725    15396180.235       -1172.326
      -904.143
  18657073.273 9 -67697517.027 9  15365363.776    15365365.654        1719.231
      1337.797
  25642808.019 8 -62289460.698 8  15456889.441    15456892.237        -340.808
      -260.911
    804266.041 8 -21196268.149 8  16891726.693    16891729.938        2652.518
      2080.847
 88  3 26  4 57 38.0800000  0  4G 6G 9G11G13
  38983867.782 9 -64269630.349 7  15396846.985    15396849.487       -1177.039
      -906.225
  18651939.628 9 -67701517.264 8  15364387.404    15364389.247        1707.645
      1338.480
  25643868.080 8 -62288634.676 8  15457091.342    15457094.337        -349.540
      -274.481
    796302.782 9 -21202473.271 8  16890210.153    16890215.350        2656.234
      2062.920
 88  3 26  4 57 41.0800000  0  4G 6G 9G11G13
  38987382.608 9 -64266891.516 8  15397514.658    15397517.443       -1176.744
      -916.011
  18646810.566 8 -67705513.936 8  15363411.367    15363412.445        1710.579
      1334.777
  25644932.858 9 -62287804.968 8  15457293.707    15457297.033        -367.554
      -280.782
    788343.554 9 -21208675.262 9  16888695.852    16888701.543        2653.674
      2067.848
 88  3 26  4 57 44.0800000  0  4G 6G 9G11G13
  38990903.040 9 -64264148.331 8  15398185.643    15398187.629       -1173.825
      -924.984
  18641686.079 9 -67709507.045 8  15362436.180    15362437.389        1704.654
      1342.904
  25646002.372 9 -62286971.583 9  15457497.267    15457500.133        -352.873
      -280.540
    780388.383 9 -21214874.091 9  16887182.362    16887186.644        2662.462
      2069.631
 88  3 26  4 57 47.0800000  0  4G 6G 9G11G13
  38994429.000 9 -64261400.829 8  15398855.799    15398857.014       -1153.291
      -915.601
  18636566.163 9 -67713496.575 8  15361461.975    15361463.823        1718.163
      1329.147
  25647076.630 8 -62286134.496 8  15457702.338    15457705.750        -357.267
      -276.066
    772437.249 9 -21221069.777 7  16885669.915    16885674.422        2650.245
      2061.336
 88  3 26  4 57 50.0800000  0  4G 6G 9G11G13
  38997960.515 8 -64258648.999 8  15399528.071    15399530.352       -1176.241
      -917.416
  18631450.833 8 -67717482.550 8  15360488.480    15360490.508        1697.214
      1329.104
  25648155.611 8 -62285293.732 7  15457907.162    15457910.002        -358.120
      -269.187
    764490.148 9 -21227262.318 9  16884157.034    16884161.171        2641.490
      2052.680
 88  3 26  4 57 53.0800000  0  4G 6G 9G11G13
  39001497.579 9 -64255892.838 9  15400201.524    15400203.327       -1174.407
      -921.374
  18626340.062 9 -67721464.962 8  15359516.359    15359518.006        1707.230
      1321.920
  25649239.339 8 -62284449.262 9  15458112.506    15458116.931        -355.305
      -284.374
    756547.074 9 -21233451.722 8  16882645.431    16882649.890        2653.228
      2069.855
 88  3 26  4 57 56.0800000  0  4G 6G 9G11G13
  39005040.191 9 -64253132.375 9  15400874.673    15400877.781       -1182.414
      -915.918
  18621233.863 8 -67725443.824 8  15358544.560    15358545.852        1697.916
      1324.275
  25650327.815 8 -62283601.098 8  15458319.913    15458324.268        -366.773
      -279.465
    748608.064 9 -21239637.956 8  16881134.941    16881138.107        2642.351
      2079.058
 88  3 26  4 57 59.0800000  0  4G 6G 9G11G13
  39008588.353 9 -64250367.569 8  15401550.655    15401553.563       -1172.717
      -928.644
  18616132.282 9 -67729419.078 9  15357573.547    15357575.751        1702.708
      1311.780
  25651421.023 8 -62282749.242 8  15458528.265    15458531.808        -370.983
      -262.340
    740673.117 9 -21245821.029 9  16879625.041    16879629.838        2656.505
      2064.691
 88  3 26  4 58  2.0800000  0  4G 6G 9G11G13
  39012142.089 9 -64247598.423 9  15402226.416    15402228.453       -1170.380
      -915.247
  18611035.315 9 -67733390.745 8  15356603.183    15356605.427        1703.745
      1339.742
  25652518.973 8 -62281893.696 8  15458737.705    15458740.801        -358.104
      -274.699
    732742.238 9 -21252000.922 8  16878116.224    16878119.335        2648.252
      2054.886
 88  3 26  4 58  5.0800000  0  4G 6G 9G11G13
  39015701.360 9 -64244824.967 8  15402904.487    15402905.806       -1187.557
      -918.957
  18605942.985 9 -67737358.804 8  15355634.615    15355637.009        1721.297
      1338.660
  25653621.660 8 -62281034.462 7  15458946.428    15458950.082        -378.423
      -287.798
    724815.429 9 -21258177.645 8  16876607.359    16876611.200        2634.217
      2055.824
 88  3 26  4 58  8.0800000  0  4G 6G 9G11G13
  39019266.212 9 -64242047.158 8  15403582.602    15403584.435       -1183.634
      -928.283
  18600855.260 8 -67741323.249 8  15354666.508    15354667.877        1689.288
      1309.710
  25654729.099 7 -62280171.526 8  15459157.553    15459160.935        -366.422
      -282.827
    716892.728 9 -21264351.181 8  16875099.466    16875104.575        2658.650
      2055.172
 88  3 26  4 58 11.0800000  0  4G 6G 9G11G13
  39022836.615 9 -64239265.027 8  15404262.071    15404264.134       -1200.316
      -929.377
  18595772.168 9 -67745284.100 8  15353698.714    15353700.887        1703.825
      1333.820
  25655841.272 9 -62279304.896 8  15459369.426    15459372.707        -363.056
      -284.293
    708974.062 9 -21270521.566 8  16873592.707    16873597.497        2635.038
      2051.661
 88  3 26  4 58 14.0800000  0  4G 6G 9G11G13
  39026412.585 9 -64236478.560 8  15404941.903    15404944.302       -1192.820
      -929.402
  18590693.702 9 -67749241.344 8  15352732.902    15352734.874        1679.096
      1320.572
  25656958.187 8 -62278434.568 9  15459582.416    15459585.108        -367.131
      -296.876
    701059.454 9 -21276688.795 9  16872086.460    16872090.666        2645.644
      2057.359
 88  3 26  4 58 17.0800000  0  4G 6G 9G11G13
  39029994.094 9 -64233687.779 8  15405624.133    15405625.735       -1196.082
      -930.011
  18585619.858 9 -67753194.991 8  15351767.938    15351768.745        1693.873
      1329.507
  25658079.843 9 -62277560.554 8  15459795.714    15459799.853        -362.761
      -298.050
    693148.921 9 -21282852.846 9  16870581.254    16870585.199        2639.911
      2045.857
 88  3 26  4 58 20.0800000  0  4G 6G 9G11G13
  39033581.188 9 -64230892.642 8  15406306.063    15406309.723       -1188.219
      -916.341
  18580550.628 9 -67757145.043 7  15350802.846    15350804.663        1696.130
      1344.911
  25659206.214 8 -62276682.852 8  15460009.051    15460012.715        -350.824
      -294.782
    685242.431 9 -21289013.729 8  16869077.130    16869080.858        2635.174
      2054.948
 88  3 26  4 58 23.0800000  0  4G 6G 9G11G13
  39037173.794 9 -64228093.206 9  15406989.954    15406991.768       -1216.544
      -936.771
  18575486.009 9 -67761091.496 8  15349838.350    15349841.060        1688.084
      1329.110
  25660337.319 9 -62275801.476 8  15460224.459    15460228.383        -367.442
      -287.549
    677340.004 9 -21295171.463 8  16867573.006    16867576.660        2638.938
      2061.199
 88  3 26  4 58 26.0800000  0  4G 6G 9G11G13
  39040771.947 9 -64225289.445 8  15407675.148    15407676.843       -1206.289
      -928.805
  18570426.012 8 -67765034.346 9  15348876.433    15348878.524        1676.457
      1297.239
  25661473.154 8 -62274916.408 9  15460440.486    15460444.869        -382.346
      -302.058
    669441.642 8 -21301326.022 8  16866070.233    16866073.406        2620.996
      2042.962
 88  3 26  4 58 29.0800000  0  4G 6G 9G11G13
  39044375.688 9 -64222481.348 8  15408360.657    15408363.532       -1193.163
      -927.482
  18565370.697 9 -67768973.556 9  15347914.179    15347915.878        1682.789
      1311.755
  25662613.705 8 -62274027.664 9  15460658.324    15460661.993        -387.809
      -300.989
    661547.340 9 -21307477.422 8  16864567.419    16864571.631        2634.353
      2057.987
 88  3 26  4 58 32.0800000  0  4G 6G 9G11G13
  39047984.982 9 -64219668.911 7  15409047.339    15409049.705       -1203.243
      -941.879
  18560320.008 8 -67772909.153 8  15346952.685    15346954.902        1672.956
      1319.472
  25663758.979 8 -62273135.240 8  15460876.111    15460880.150        -366.262
      -290.718
    653657.117 9 -21313625.635 9  16863066.282    16863070.515        2649.942
      2048.747
 88  3 26  4 58 35.0800000  0  4G 6G 9G11G13
  39051599.812 9 -64216852.153 9  15409735.331    15409737.013       -1199.295
      -944.427
  18555273.942 9 -67776841.159 9  15345992.463    15345994.612        1679.272
      1304.410
  25664908.987 7 -62272239.132 8  15461095.558    15461097.671        -414.555
      -298.641
    645770.931 9 -21319770.708 8  16861565.699    16861569.545        2628.771
      2033.299
 88  3 26  4 58 38.0800000  0  4G 6G 9G11G13
  39055220.169 9 -64214031.101 8  15410425.369    15410427.723       -1204.861
      -931.092
  18550232.485 9 -67780769.561 8  15345032.048    15345034.854        1688.235
      1307.436
  25666063.715 8 -62271339.343 7  15461314.484    15461318.566        -384.284
      -313.380
    637888.796 9 -21325912.636 9  16860066.127    16860069.250        2645.030
      2054.942
 88  3 26  4 58 41.0800000  0  4G 6G 9G11G13
  39058846.092 9 -64211205.704 8  15411115.062    15411117.173       -1220.132
      -930.446
  18545195.645 8 -67784694.373 8  15344074.805    15344077.386        1670.365
      1310.997
  25667223.147 8 -62270435.882 8  15461535.474    15461538.529        -414.643
      -303.842
    630010.725 9 -21332051.387 8  16858567.082    16858570.548        2621.394
      2065.226
 88  3 26  4 58 44.0800000  0  4G 6G 9G11G13
  39062477.589 9 -64208375.987 8  15411805.262    15411807.582       -1200.986
      -922.225
  18540163.460 8 -67788615.548 8  15343117.694    15343118.894        1688.578
      1321.809
  25668387.292 8 -62269528.750 9  15461757.561    15461760.000        -395.289
      -300.349
    622136.733 8 -21338186.962 9  16857067.639    16857071.449        2622.351
      2038.668
 88  3 26  4 58 47.0800000  0  4G 6G 9G11G13
  39066114.632 9 -64205541.910 8  15412497.342    15412499.833       -1203.737
      -944.632
  18535135.899 8 -67792533.130 9  15342159.874    15342161.697        1682.350
      1318.584
  25669556.161 8 -62268617.952 8  15461979.507    15461982.362        -391.222
      -284.709
    614266.833 8 -21344319.338 8  16855570.843    16855574.299        2616.793
      2040.924
 88  3 26  4 58 50.0800000  0  4G 6G 9G11G13
  39069757.228 9 -64202703.532 8  15413191.091    15413192.607       -1219.407
      -949.075
  18530112.938 8 -67796447.126 9  15341204.012    15341207.388        1676.911
      1280.481
  25670729.727 9 -62267703.489 9  15462203.011    15462205.890        -377.666
      -307.887
    606401.015 9 -21350448.539 8  16854074.116    16854077.377        2623.196
      2040.296
 88  3 26  4 58 53.0800000  0  4G 6G 9G11G13
  39073405.372 9 -64199860.819 8  15413885.489    15413886.981       -1216.065
      -942.892
  18525094.651 9 -67800357.477 7  15340249.683    15340251.476        1685.907
      1315.763
  25671908.005 9 -62266785.339 8  15462426.972    15462430.282        -393.622
      -313.224
    598539.269 9 -21356574.574 9  16852578.054    16852581.872        2604.951
      2053.960
 88  3 26  4 58 56.0800000  0  4G 6G 9G11G13
  39077059.072 9 -64197013.782 9  15414580.403    15414582.238       -1217.453
      -941.761
  18520081.037 8 -67804264.188 8  15339295.883    15339298.829        1670.173
      1313.613
  25673090.992 8 -62265863.528 7  15462651.638    15462655.277        -383.415
      -299.417
    590681.591 9 -21362697.445 9  16851082.979    16851087.035        2619.185
      2031.093
 88  3 26  4 58 59.0800000  0  4G 6G 9G11G13
  39080718.342 9 -64194162.406 9  15415276.198    15415278.697       -1220.826
      -950.144
  18515072.065 9 -67808167.276 8  15338342.508    15338344.900        1668.116
      1297.388
  25674278.681 8 -62264938.050 8  15462877.850    15462881.588        -384.029
      -309.185
    582827.952 9 -21368817.149 9  16849587.900    16849591.944        2624.217
      2031.721
 88  3 26  4 59  2.0800000  0  4G 6G 9G11G13
  39084383.140 9 -64191306.720 9  15415974.091    15415976.108       -1212.644
      -962.621
  18510067.766 9 -67812066.730 8  15337389.721    15337392.412        1658.969
      1273.689
  25675471.069 9 -62264008.922 8  15463104.499    15463107.952        -394.651
      -311.559
    574978.405 9 -21374933.679 8  16848094.412    16848098.135        2603.739
      2036.680
 88  3 26  4 59  5.0800000  0  4G 6G 9G11G13
  39088053.490 9 -64188446.706 9  15416672.878    15416674.046       -1227.668
      -937.020
  18505068.117 9 -67815962.562 8  15336438.448    15336441.026        1677.932
      1293.250
  25676668.159 8 -62263076.118 8  15463333.011    15463334.833        -401.700
      -316.232
    567132.936 9 -21381047.026 8  16846601.075    16846604.973        2614.074
      2056.595
 88  3 26  4 59  8.0800000  0  4G 6G 9G11G13
  39091729.380 9 -64185582.389 8  15417372.462    15417373.741       -1218.737
      -954.419
  18500073.086 9 -67819854.797 8  15335488.414    15335489.843        1655.229
      1301.347
  25677869.957 8 -62262139.651 8  15463561.353    15463564.235        -406.596
      -309.968
    559291.561 9 -21387157.177 8  16845109.628    16845113.556        2627.104
      2050.319
 88  3 26  4 59 11.0800000  0  4G 6G 9G11G13
  39095410.798 9 -64182713.742 8  15418072.754    15418075.068       -1214.439
      -948.957
  18495082.777 9 -67823743.345 8  15334538.761    15334540.780        1668.522
      1283.252
  25679076.427 9 -62261199.544 8  15463790.994    15463794.005        -405.018
      -308.757
    551454.245 9 -21393264.180 7  16843618.032    16843622.603        2618.404
      2030.969
 88  3 26  4 59 14.0800000  0  4G 6G 9G11G13
  39099097.813 9 -64179840.750 8  15418774.401    15418776.471       -1234.151
      -962.981
  18490097.126 8 -67827628.266 8  15333590.068    15333591.510        1658.212
      1292.877
  25680287.605 9 -62260255.764 9  15464022.515    15464025.295        -412.043
      -324.782
    543621.014 9 -21399367.982 8  16842127.711    16842131.241        2604.528
      2028.080
 88  3 26  4 59 17.0800000  0  4G 6G 9G11G13
  39102790.344 9 -64176963.448 8  15419477.491    15419478.737       -1241.472
      -954.562
  18485116.113 9 -67831509.574 8  15332641.916    15332642.986        1662.374
      1301.005
  25681503.480 8 -62259308.322 8  15464252.459    15464257.186        -413.032
      -316.605
    535791.854 9 -21405468.623 9  16840637.918    16840641.082        2616.673
      2046.547
 88  3 26  4 59 20.0800000  0  4G 6G 9G11G13
  39106488.444 9 -64174081.817 9  15420180.678    15420183.106       -1239.111
      -964.647
  18480139.762 8 -67835387.249 9  15331695.240    15331696.833        1662.175
      1300.048
  25682724.049 9 -62258357.238 8  15464484.837    15464487.270        -389.308
      -329.567
    527966.765 9 -21411566.090 8  16839148.460    16839152.389        2603.173
      2004.567
 88  3 26  4 59 23.0800000  0  4G 6G 9G11G13
  39110192.070 9 -64171195.874 8  15420884.934    15420887.932       -1231.025
      -959.849
  18475168.085 9 -67839261.288 8  15330749.224    15330750.665        1659.767
      1294.406
  25683949.277 9 -62257402.506 8  15464718.227    15464721.938        -400.504
      -313.566
    520145.753 9 -21417660.371 8  16837660.221    16837663.444        2614.034
      2044.540
 88  3 26  4 59 26.0800000  0  4G 6G 9G11G13
  39113901.225 9 -64168305.630 8  15421590.909    15421593.260       -1231.552
      -952.169
  18470201.125 9 -67843131.647 8  15329802.733    15329806.147        1667.223
      1286.589
  25685179.203 8 -62256444.128 8  15464952.004    15464956.143        -394.180
      -321.843
    512328.833 9 -21423751.484 9  16836172.257    16836177.466        2608.859
      2029.167
 88  3 26  4 59 29.0800000  0  4G 6G 9G11G13
  39117615.924 9 -64165411.064 9  15422298.951    15422299.480       -1238.394
      -962.366
  18465238.776 9 -67846998.411 8  15328859.406    15328860.612        1653.124
      1290.466
  25686413.809 9 -62255482.082 7  15465187.187    15465191.554        -409.332
      -332.935
    504516.013 9 -21429839.388 7  16834685.276    16834689.495        2610.764
      2034.461
 88  3 26  4 59 32.0800000  0  4G 6G 9G11G13
  39121336.191 9 -64162512.152 8  15423005.371    15423007.823       -1234.414
      -964.137
  18460281.099 9 -67850861.524 8  15327915.961    15327918.291        1648.371
      1291.852
  25687653.100 9 -62254516.401 8  15465423.097    15465425.989        -403.750
      -334.351
    496707.268 9 -21435924.127 8  16833199.365    16833203.603        2606.450
      2024.637
 88  3 26  4 59 35.0800000  0  4G 6G 9G11G13
  39125061.974 9 -64159608.939 7  15423715.205    15423716.378       -1251.248
      -971.078
  18455328.105 9 -67854720.999 8  15326973.605    15326974.967        1645.006
      1279.872
  25688897.078 8 -62253547.080 8  15465660.366    15465663.118        -419.866
      -328.374
    488902.592 9 -21442005.671 9  16831714.730    16831717.661        2600.470
      2037.500
 88  3 26  4 59 38.0800000  0  4G 6G 9G11G13
  39128793.348 9 -64156701.381 7  15424425.478    15424426.979       -1256.695
      -956.705
  18450379.821 9 -67858576.817 8  15326031.946    15326032.732        1634.496
      1289.658
  25690145.736 9 -62252574.097 8  15465896.932    15465900.072        -415.137
      -315.511
    481102.017 9 -21448084.048 8  16830230.226    16830234.658        2598.596
      2026.501
 88  3 26  4 59 41.0800000  0  4G 6G 9G11G13
  39132530.245 9 -64153789.512 7  15425136.481    15425138.914       -1249.334
      -978.702
  18445436.207 8 -67862428.971 8  15325090.993    15325093.414        1643.196
      1278.722
  25691399.079 8 -62251597.459 7  15466135.350    15466139.090        -407.035
      -316.505
    473305.536 9 -21454159.221 8  16828745.410    16828750.566        2617.008
      2021.064
 88  3 26  4 59 44.0800000  0  4G 6G 9G11G13
  39136272.711 9 -64150873.309 8  15425847.951    15425850.292       -1259.980
      -981.647
  18440497.273 9 -67866277.489 8  15324151.118    15324152.185        1651.330
      1277.225
  25692657.122 7 -62250617.172 7  15466374.780    15466378.303        -395.704
      -326.267
    465513.125 9 -21460231.212 9  16827263.728    16827267.663        2602.240
      2026.731
 88  3 26  4 59 47.0800000  0  4G 6G 9G11G13
  39140020.728 9 -64147952.775 8  15426561.692    15426563.256       -1233.737
      -964.156
  18435563.055 9 -67870122.331 9  15323212.222    15323213.349        1648.443
      1291.473
  25693919.828 9 -62249633.243 8  15466615.058    15466618.468        -419.738
      -325.702
    457724.807 9 -21466300.025 8  16825781.812    16825784.945        2596.331
      2020.045
 88  3 26  4 59 50.0800000  0  4G 6G 9G11G13
  39143774.327 9 -64145027.896 9  15427274.762    15427277.200       -1245.315
      -974.390
  18430633.490 9 -67873963.548 7  15322274.418    15322276.325        1647.191
      1287.011
  25695187.218 9 -62248645.656 9  15466855.946    15466860.027        -409.053
      -336.663
    449940.602 9 -21472365.646 8  16824299.818    16824304.570        2602.734
      2036.829
 88  3 26  4 59 53.0800000  0  4G 6G 9G11G13
  39147533.457 9 -64142098.707 9  15427991.605    15427993.732       -1263.880
      -986.650
  18425708.660 9 -67877801.091 9  15321337.224    15321338.559        1637.622
      1274.292
  25696459.308 8 -62247654.424 8  15467098.422    15467101.906        -429.770
      -325.776
    442160.493 9 -21478428.056 8  16822819.028    16822822.926        2600.501
      2017.324
 88  3 26  4 59 56.0800000  0  4G 6G 9G11G13
  39151298.163 9 -64139165.169 8  15428707.219    15428709.206       -1251.942
      -983.536
  18420788.531 8 -67881634.945 8  15320399.682    15320402.984        1635.652
      1277.250
  25697736.076 9 -62246659.539 8  15467341.257    15467344.297        -425.528
      -328.423
    434384.501 9 -21484487.270 8  16821340.307    16821343.819        2582.184
      2027.427
 88  3 26  4 59 59.0800000  0  4G 6G 9G11G13
  39155068.421 9 -64136227.310 9  15429424.603    15429426.988       -1247.389
      -992.565
  18415873.111 9 -67885465.138 8  15319465.431    15319467.741        1621.123
      1284.172
  25699017.537 9 -62245660.998 8  15467585.552    15467588.120        -445.264
      -339.726
    426612.618 9 -21490543.278 8  16819861.963    16819865.223        2594.186
      1994.401
 88  3 26  5  0  2.0800000  0  4G 6G 9G11G13
  39158844.219 9 -64133285.135 7  15430144.078    15430145.102       -1259.725
      -974.881
  18410962.383 9 -67889291.689 7  15318530.877    15318532.563        1629.767
      1277.293
  25700303.655 9 -62244658.821 9  15467829.966    15467833.433        -418.853
      -332.941
    418844.815 9 -21496596.101 8  16818382.182    16818385.993        2581.148
      2017.684
 88  3 26  5  0  5.0800000  0  4G 6G 9G11G13
  39162625.553 8 -64130338.637 9  15430863.176    15430865.035       -1257.516
      -975.931
  18406056.405 8 -67893114.521 9  15317597.202    15317598.985        1644.081
      1270.893
  25701594.442 8 -62243653.008 8  15468075.424    15468078.977        -417.450
      -322.402
    411081.106 9 -21502645.730 8  16816905.732    16816908.498        2592.232
      2025.023
 88  3 26  5  0  8.0800000  0  4G 6G 9G11G13
  39166412.459 9 -64127387.803 9  15431583.339    15431584.630       -1276.559
      -989.297
  18401155.164 8 -67896933.660 8  15316664.677    15316667.110        1648.060
      1269.843
  25702889.899 8 -62242643.551 8  15468322.593    15468325.947        -434.020
      -335.377
    403321.506 9 -21508692.186 8  16815428.946    16815432.604        2587.806
      2004.840
 88  3 26  5  0 11.0800000  0  4G 6G 9G11G13
  39170204.913 9 -64124432.645 8  15432305.077    15432307.163       -1266.073
      -975.502
  18396258.589 9 -67900749.180 8  15315732.792    15315733.254        1632.072
      1270.066
  25704190.024 8 -62241630.474 9  15468570.125    15468572.006        -431.508
      -323.825
    395566.019 8 -21514735.419 8  16813953.008    16813956.163        2571.850
      2037.854
 88  3 26  5  0 14.0800000  0  4G 6G 9G11G13
  39174002.935 9 -64121473.155 8  15433028.474    15433029.988       -1278.816
      -985.630
  18391366.787 9 -67904560.972 9  15314801.259    15314803.507        1619.329
      1290.093
  25705494.832 9 -62240613.744 9  15468818.698    15468821.636        -431.389
      -333.102
    387814.650 9 -21520775.433 8  16812478.024    16812481.775        2584.927
      2008.972
 88  3 26  5  0 17.0800000  0  4G 6G 9G11G13
  39177806.515 9 -64118509.321 8  15433751.681    15433753.350       -1263.784
      -986.631
  18386479.712 8 -67908369.087 8  15313872.540    15313873.110        1621.904
      1268.973
  25706804.308 9 -62239593.375 8  15469066.769    15469070.153        -427.545
      -326.547
    380067.407 9 -21526812.245 8  16811003.938    16811008.485        2583.548
      2014.602
 88  3 26  5  0 20.0800000  0  4G 6G 9G11G13
  39181615.691 9 -64115541.137 8  15434475.940    15434479.688       -1252.580
      -993.186
  18381597.391 9 -67912173.477 8  15312942.416    15312944.438        1627.287
      1270.675
  25708118.473 9 -62238569.339 8  15469317.115    15469321.844        -449.562
      -340.658
    372324.265 9 -21532845.848 8  16809530.187    16809534.786        2582.152
      2028.422
 88  3 26  5  0 23.0800000  0  4G 6G 9G11G13
  39185430.393 9 -64112568.637 8  15435202.535    15435204.101       -1278.265
      -985.444
  18376719.784 8 -67915974.217 8  15312014.427    15312016.984        1621.721
      1263.548
  25709437.302 8 -62237541.682 9  15469568.042    15469571.623        -418.462
      -333.686
    364585.245 9 -21538876.246 8  16808057.484    16808061.889        2574.122
      1990.983
 88  3 26  5  0 26.0800000  0  4G 6G 9G11G13
  39189250.684 9 -64109591.793 8  15435929.553    15435932.267       -1276.248
      -995.896
  18371846.924 9 -67919771.247 8  15311087.404    15311089.747        1617.319
      1262.212
  25710760.775 8 -62236510.398 8  15469820.835    15469822.713        -439.491
      -356.851
    356850.345 9 -21544903.444 8  16806585.763    16806589.369        2570.773
      2026.321
 88  3 26  5  0 29.0800000  0  4G 6G 9G11G13
  39193076.521 9 -64106610.612 8  15436657.441    15436659.747       -1274.422
      -986.948
  18366978.761 9 -67923564.627 7  15310161.085    15310163.261        1633.730
      1257.689
  25712088.929 8 -62235475.477 8  15470072.703    15470076.697        -430.137
      -356.255
    349119.539 9 -21550927.436 8  16805114.701    16805118.452        2586.355
      2006.953
 88  3 26  5  0 32.0800000  0  4G 6G 9G11G13
  39196907.930 9 -64103625.097 9  15437386.886    15437387.954       -1280.714
      -998.847
  18362115.353 8 -67927354.290 8  15309235.593    15309238.194        1638.579
      1269.445
  25713421.749 9 -62234436.901 9  15470326.527    15470329.108        -433.016
      -336.700
    341392.880 9 -21556948.209 8  16803644.406    16803648.130        2587.168
      1996.321
 88  3 26  5  0 35.0800000  0  4G 6G 9G11G13
  39200744.935 9 -64100635.243 8  15438116.256    15438117.788       -1276.296
     -1001.252
  18357256.723 8 -67931140.225 9  15308311.481    15308311.800        1612.128
      1264.766
  25714759.251 8 -62233394.698 8  15470581.637    15470584.604        -452.345
      -353.421
    333670.315 9 -21562965.784 8  16802174.496    16802178.644        2559.984
      2006.182
 88  3 26  5  0 38.0800000  0  4G 6G 9G11G13
  39204587.462 9 -64097641.060 9  15438847.327    15438849.782       -1292.468
     -1007.049
  18352402.835 9 -67934922.477 8  15307387.818    15307388.631        1626.370
      1274.323
  25716101.411 9 -62232348.859 8  15470836.397    15470838.877        -436.444
      -339.701
    325951.858 9 -21568980.160 8  16800706.322    16800709.288        2560.598
      2003.585
 88  3 26  5  0 41.0800000  0  4G 6G 9G11G13
  39208435.579 9 -64094642.529 8  15439579.762    15439581.880       -1284.485
      -986.072
  18347553.725 9 -67938701.009 8  15306464.238    15306465.234        1625.054
      1256.346
  25717448.241 8 -62231299.385 9  15471093.594    15471095.918        -458.175
      -351.222
    318237.499 9 -21574991.348 7  16799237.094    16799241.397        2587.200
      1991.860
 88  3 26  5  0 44.0800000  0  4G 6G 9G11G13
  39212289.203 9 -64091639.709 8  15440313.379    15440316.301       -1297.707
     -1006.285
  18342709.311 9 -67942475.876 8  15305542.423    15305543.737        1604.608
      1261.181
  25718799.709 8 -62230246.284 8  15471350.300    15471353.139        -449.666
      -346.624
    310527.244 9 -21580999.336 8  16797770.465    16797775.492        2585.860
      1993.506
 88  3 26  5  0 47.0800000  0  4G 6G 9G11G13
  39216148.390 9 -64088632.555 7  15441047.827    15441050.124       -1284.693
     -1012.909
  18337869.679 8 -67946247.016 8  15304622.268    15304624.522        1601.331
      1267.202
  25720155.818 8 -62229189.566 8  15471608.234    15471611.159        -449.690
      -343.865
    302821.096 9 -21587004.110 8  16796304.129    16796307.552        2568.692
      2006.847
 88  3 26  5  0 50.0800000  0  4G 6G 9G11G13
  39220013.146 9 -64085621.048 8  15441783.087    15441785.453       -1288.784
     -1005.838
  18333034.757 9 -67950014.486 8  15303701.178    15303703.717        1609.385
      1268.849
  25721516.596 9 -62228129.227 8  15471867.156    15471870.751        -453.597
      -354.857
    295119.081 9 -21593005.680 7  16794838.010    16794842.180        2575.111
      2022.270
 88  3 26  5  0 53.0800000  0  4G 6G 9G11G13
  39223883.418 8 -64082605.261 9  15442519.085    15442522.071       -1296.519
     -1010.616
  18328204.596 9 -67953778.241 8  15302781.518    15302783.791        1611.562
      1262.256
  25722882.015 8 -62227065.259 8  15472126.431    15472130.859        -454.538
      -340.273
    287421.173 9 -21599004.046 8  16793372.968    16793377.793        2574.162
      2000.317
 88  3 26  5  0 56.0800000  0  4G 6G 9G11G13
  39227759.217 9 -64079585.151 9  15443256.094    15443258.645       -1292.659
      -999.065
  18323379.168 9 -67957538.310 8  15301864.118    15301865.517        1624.209
      1257.515
  25724252.064 8 -62225997.689 9  15472387.168    15472391.366        -447.090
      -347.133
    279727.365 9 -21604999.221 7  16791909.518    16791913.350        2568.261
      2001.951
 88  3 26  5  0 59.0800000  0  4G 6G 9G11G13
  39231640.607 9 -64076560.700 9  15443995.382    15443998.184       -1301.495
     -1003.768
  18318558.500 9 -67961294.671 8  15300946.460    15300949.089        1602.024
      1250.692
  25725626.742 9 -62224926.508 8  15472648.847    15472651.616        -459.395
      -345.636
    272037.663 9 -21610991.184 7  16790445.884    16790450.334        2552.288
      1985.180
 88  3 26  5  1  2.0800000  0  4G 6G 9G11G13
  39235527.487 9 -64073531.959 8  15444734.727    15444737.806       -1314.900
      -996.840
  18313742.602 8 -67965047.327 8  15300030.057    15300032.477        1616.681
      1242.875
  25727006.068 9 -62223851.705 8  15472911.213    15472915.668        -469.076
      -364.724
    264352.084 9 -21616979.951 8  16788984.266    16788987.803        2567.201
      1994.482
 88  3 26  5  1  5.0800000  0  4G 6G 9G11G13
  39239419.932 9 -64070498.888 9  15445476.245    15445479.084       -1297.603
     -1014.773
  18308931.390 9 -67968796.318 7  15299115.279    15299116.783        1608.523
      1238.183
  25728390.000 9 -62222773.316 8  15473174.157    15473178.441        -469.586
      -355.074
    256670.618 9 -21622965.503 9  16787522.190    16787525.846        2563.732
      1999.875
 88  3 26  5  1  8.0800000  0  4G 6G 9G11G13
  39243317.883 9 -64067461.525 8  15446216.745    15446220.767       -1299.956
     -1017.352
  18304124.993 8 -67972541.560 7  15298200.192    15298202.934        1615.453
      1252.780
  25729778.560 8 -62221691.318 8  15473439.458    15473442.208        -455.264
      -373.150
    248993.268 9 -21628947.840 8  16786061.521    16786065.469        2551.882
      1998.651
 88  3 26  5  1 11.0800000  0  4G 6G 9G11G13
  39247221.382 9 -64064419.837 8  15446959.930    15446963.223       -1301.862
     -1020.788
  18299323.313 8 -67976283.129 8  15297286.247    15297289.459        1624.097
      1240.849
  25731171.725 8 -62220605.733 9  15473704.231    15473707.612        -463.573
      -364.153
    241320.058 9 -21634926.955 8  16784601.139    16784604.080        2547.711
      2013.092
 88  3 26  5  1 14.0800000  0  4G 6G 9G11G13
  39251130.441 8 -64061373.816 8  15447704.318    15447706.691       -1306.136
     -1027.518
  18294526.402 9 -67980020.977 8  15296373.361    15296376.062        1589.241
      1244.776
  25732569.499 8 -62219516.564 8  15473969.758    15473973.440        -453.470
      -359.660
    233650.949 8 -21640902.886 8  16783140.656    16783145.011        2552.352
      1995.035
 88  3 26  5  1 17.0800000  0  4G 6G 9G11G13
  39255045.022 9 -64058323.498 8  15448448.662    15448452.516       -1302.747
     -1017.147
  18289734.215 9 -67983755.146 8  15295460.995    15295463.314        1613.539
      1236.947
  25733971.872 8 -62218423.794 9  15474236.738    15474241.250        -474.602
      -365.315
    225985.965 9 -21646875.603 8  16781682.653    16781686.508        2557.049
      1983.707
 88  3 26  5  1 20.0800000  0  4G 6G 9G11G13
  39258965.152 9 -64055268.848 9  15449194.557    15449198.020       -1310.538
     -1017.029
  18284946.755 9 -67987485.625 9  15294551.082    15294553.202        1606.673
      1244.267
  25735378.860 9 -62217327.441 9  15474504.626    15474508.080        -467.369
      -365.464
    218325.065 8 -21652845.123 8  16780224.594    16780229.213        2557.926
      1993.307
 88  3 26  5  1 23.0800000  0  4G 6G 9G11G13
  39262890.796 9 -64052209.906 9  15449941.443    15449944.987       -1305.905
     -1019.446
  18280164.107 9 -67991212.380 9  15293640.295    15293642.109        1594.082
      1239.464
  25736790.472 9 -62216227.486 9  15474774.091    15474776.514        -468.470
      -363.320
    210668.292 9 -21658811.431 9  16778768.814    16778772.369        2542.520
      1984.701
 88  3 26  5  1 26.0800000  0  4G 6G 9G11G13
  39266822.005 9 -64049146.628 8  15450691.452    15450693.032       -1333.408
     -1029.382
  18275386.286 9 -67994935.338 8  15292730.703    15292733.018        1599.744
      1253.128
  25738206.694 9 -62215123.935 9  15475042.838    15475046.066        -489.043
      -357.411
    203015.637 9 -21664774.536 7  16777311.789    16777315.483        2554.753
      1985.354
 88  3 26  5  1 29.0800000  0  4G 6G 9G11G13
  39270758.744 9 -64046079.049 9  15451439.721    15451443.164       -1318.161
     -1026.704
  18270613.197 9 -67998654.633 9  15291823.827    15291825.233        1597.503
      1242.142
  25739627.547 9 -62214016.767 8  15475313.750    15475316.387        -472.536
      -376.599
    195367.117 9 -21670734.419 9  16775856.795    16775860.272        2537.743
      1998.863
 88  3 26  5  1 32.0800000  0  4G 6G 9G11G13
  39274701.028 9 -64043007.131 8  15452189.660    15452191.230       -1325.585
     -1021.453
  18265844.901 8 -68002370.185 8  15290914.740    15290917.735        1584.975
      1244.565
  25741053.022 8 -62212906.008 8  15475584.348    15475587.057        -477.321
      -371.777
    187722.730 9 -21676691.087 8  16774401.581    16774404.939        2538.038
      1993.357
 88  3 26  5  1 35.0800000  0  4G 6G 9G11G13
  39278648.919 9 -64039930.862 8  15452940.484    15452943.336       -1325.378
     -1025.430
  18261081.356 8 -68006082.034 8  15290010.451    15290011.636        1583.699
      1234.865
  25742483.126 8 -62211791.644 8  15475856.403    15475860.928        -471.412
      -379.190
    180082.488 9 -21682644.521 8  16772948.486    16772951.095        2545.088
      1986.603
 88  3 26  5  1 38.0800000  0  4G 6G 9G11G13
  39282602.298 8 -64036850.312 8  15453693.785    15453695.814       -1319.062
     -1013.866
  18256322.621 9 -68009790.137 9  15289103.412    15289105.813        1583.500
      1230.161
  25743917.827 9 -62210673.683 9  15476129.361    15476133.543        -464.323
      -369.459
    172446.386 9 -21688594.721 8  16771494.488    16771498.120        2549.131
      1973.274
 88  3 26  5  1 41.0800000  0  4G 6G 9G11G13
  39286561.254 9 -64033765.405 8  15454446.277    15454448.098       -1317.244
     -1022.136
  18251568.686 8 -68013494.499 8  15288199.239    15288201.374        1596.562
      1246.634
  25745357.145 9 -62209552.139 8  15476403.719    15476406.728        -480.280
      -376.151
    164814.444 9 -21694541.688 8  16770041.702    16770046.156        2561.929
      1974.728
 88  3 26  5  1 44.0800000  0  4G 6G 9G11G13
  39290525.766 9 -64030676.163 8  15455201.116    15455203.460       -1324.700
     -1030.861
  18246819.537 9 -68017195.135 9  15287294.778    15287297.700        1579.616
      1228.384
  25746801.108 9 -62208426.978 8  15476677.674    15476681.458        -478.390
      -365.259
    157186.678 9 -21700485.407 7  16768590.887    16768594.751        2556.595
      1987.858
 88  3 26  5  1 47.0800000  0  4G 6G 9G11G13
  39294495.841 9 -64027582.624 8  15455956.699    15455959.883       -1321.502
     -1042.418
  18242075.209 9 -68020892.005 8  15286392.552    15286394.384        1579.289
      1217.156
  25748249.682 9 -62207298.212 8  15476954.238    15476956.904        -488.318
      -380.893
    149563.038 9 -21706425.902 8  16767140.265    16767143.270        2530.614
      1995.793
 88  3 26  5  1 50.0800000  0  4G 6G 9G11G13
  39298471.475 9 -64024484.713 8  15456712.289    15456715.574       -1311.941
     -1031.619
  18237335.728 9 -68024585.110 7  15285490.550    15285492.390        1597.359
      1226.433
  25749702.870 9 -62206165.859 9  15477231.100    15477234.328        -496.962
      -367.533
    141943.572 9 -21712363.142 8  16765689.429    16765694.283        2535.782
      1969.335
 88  3 26  5  1 53.0800000  0  4G 6G 9G11G13
  39302452.650 9 -64021382.495 9  15457470.310    15457472.786       -1334.365
     -1024.703
  18232601.064 8 -68028274.459 9  15284590.288    15284590.878        1578.628
      1226.694
  25751160.695 8 -62205029.885 8  15477508.410    15477511.721        -484.825
      -368.223
    134328.263 9 -21718297.141 8  16764241.631    16764245.484        2541.029
      1985.596
 88  3 26  5  1 56.0800000  0  4G 6G 9G11G13
  39306439.412 9 -64018275.934 9  15458229.293    15458232.512       -1335.984
     -1038.149
  18227871.194 9 -68031960.071 8  15283689.414    15283691.365        1565.007
      1228.652
  25752623.135 8 -62203890.324 9  15477787.150    15477790.085        -482.760
      -389.915
    126717.143 9 -21724227.871 9  16762792.509    16762795.846        2539.258
      1984.683
 88  3 26  5  1 59.0800000  0  4G 6G 9G11G13
  39310431.712 9 -64015165.053 8  15458989.083    15458990.748       -1336.422
     -1044.891
  18223146.131 8 -68035641.924 8  15282790.967    15282791.998        1581.299
      1217.429
  25754090.180 8 -62202747.168 8  15478065.530    15478068.310        -486.779
      -381.321
    119110.184 9 -21730155.381 9  16761345.696    16761350.050        2552.400
      1967.937
 88  3 26  5  2  2.0800000  0  4G 6G 9G11G13
  39314429.579 9 -64012049.834 9  15459749.531    15459752.147       -1334.349
     -1047.775
  18218425.884 9 -68039320.054 8  15281892.242    15281894.405        1572.136
      1216.348
  25755561.857 9 -62201600.407 8  15478346.155    15478349.078        -486.380
      -383.714
    111507.342 9 -21736079.662 8  16759899.061    16759901.293        2550.630
      1944.622
 88  3 26  5  2  5.0800000  0  4G 6G 9G11G13
  39318433.000 9 -64008930.280 8  15460511.420    15460514.438       -1328.049
     -1033.582
  18213710.400 9 -68042994.442 8  15280994.877    15280996.666        1569.385
      1207.966
  25757038.109 8 -62200450.081 7  15478626.321    15478629.246        -494.905
      -382.123
    103908.662 9 -21742000.695 8  16758452.373    16758456.562        2543.070
      1983.266
 88  3 26  5  2  8.0800000  0  4G 6G 9G11G13
  39322441.938 9 -64005806.446 8  15461274.562    15461278.051       -1345.051
     -1055.952
  18208999.782 8 -68046665.057 8  15280098.566    15280100.047        1554.154
      1230.733
  25758518.949 9 -62199296.178 9  15478908.581    15478911.478        -486.292
      -369.422
     96314.142 9 -21747918.503 8  16757007.691    16757011.476        2526.938
      1972.423
 88  3 26  5  2 11.0800000  0  4G 6G 9G11G13
  39326456.451 9 -64002678.258 8  15462038.350    15462041.299       -1350.489
     -1039.150
  18204293.998 7 -68050331.896 9  15279202.232    15279204.504        1567.615
      1225.849
  25760004.378 8 -62198138.699 8  15479191.389    15479194.672        -504.745
      -389.878
     88723.773 8 -21753833.072 9  16755561.935    16755566.995        2534.402
      1965.476
 88  3 26  5  2 14.0800000  0  4G 6G 9G11G13
  39330476.524 9 -63999545.729 7  15462804.044    15462805.161       -1343.926
     -1032.041
  18199592.987 8 -68053995.015 8  15278307.811    15278310.355        1563.516
      1222.537
  25761494.412 8 -62196977.629 9  15479474.586    15479478.769        -502.767
      -389.126
     81137.545 9 -21759744.408 9  16754119.442    16754122.911        2526.244
      1984.347
 88  3 26  5  2 17.0800000  0  4G 6G 9G11G13
  39334502.173 9 -63996408.861 8  15463569.842    15463572.403       -1345.433
     -1042.990
  18194896.839 8 -68057654.349 8  15277415.061    15277416.834        1564.975
      1230.696
  25762989.061 8 -62195812.971 8  15479758.777    15479762.201        -490.056
      -381.483
     73555.472 9 -21765652.514 9  16752676.643    16752680.516        2518.366
      1977.431
 88  3 26  5  2 20.0800000  0  4G 6G 9G11G13
  39338533.353 9 -63993267.675 9  15464336.823    15464339.992       -1340.210
     -1056.524
  18190205.552 8 -68061309.899 8  15276522.046    15276523.703        1550.669
      1207.475
  25764488.328 8 -62194644.718 8  15480044.323    15480047.802        -492.034
      -401.268
     65977.558 9 -21771557.378 8  16751234.008    16751238.669        2523.581
      1966.048
 88  3 26  5  2 23.0800000  0  4G 6G 9G11G13
  39342570.065 9 -63990122.190 9  15465105.399    15465107.252       -1336.430
     -1032.986
  18185519.084 9 -68064961.685 8  15275630.186    15275631.964        1564.170
      1230.081
  25765992.199 9 -62193472.860 8  15480330.724    15480333.637        -504.043
      -383.185
     58403.769 9 -21777459.025 9  16749793.153    16749797.615        2535.726
      1961.605
 88  3 26  5  2 26.0800000  0  4G 6G 9G11G13
  39346612.364 9 -63986972.354 8  15465873.795    15465875.949       -1344.748
     -1060.152
  18180837.452 9 -68068609.712 9  15274739.162    15274742.542        1573.548
      1222.127
  25767500.665 8 -62192297.433 7  15480617.683    15480619.304        -491.675
      -382.017
     50834.166 9 -21783357.417 8  16748353.036    16748357.361        2517.082
      1956.944
 88  3 26  5  2 29.0800000  0  4G 6G 9G11G13
  39350660.200 9 -63983818.177 9  15466644.394    15466647.347       -1350.537
     -1057.524
  18176160.672 8 -68072253.948 8  15273849.483    15273850.731        1567.671
      1223.103
  25769013.725 8 -62191118.422 9  15480904.545    15480908.400        -506.180
      -388.703
     43268.695 9 -21789252.579 9  16746912.085    16746917.248        2531.818
      1958.659
 88  3 26  5  2 32.0800000  0  4G 6G 9G11G13
  39354713.596 9 -63980659.701 8  15467415.173    15467418.956       -1352.961
     -1057.567
  18171488.714 8 -68075894.427 8  15272960.117    15272962.688        1542.926
      1202.013
  25770531.385 8 -62189935.822 9  15481193.664    15481197.931        -480.208
      -380.489
     35707.373 9 -21795144.517 9  16745474.531    16745478.150        2515.439
      1973.995
 88  3 26  5  2 35.0800000  0  4G 6G 9G11G13
  39358772.539 9 -63977496.890 8  15468188.694    15468190.374       -1352.810
     -1036.633
  18166821.596 9 -68079531.148 8  15272072.454    15272074.655        1543.046
      1213.726
  25772053.640 9 -62188749.650 8  15481484.558    15481487.940        -508.748
      -394.122
     28150.216 9 -21801033.214 8  16744035.570    16744038.530        2510.662
      1966.197
 88  3 26  5  2 38.0800000  0  4G 6G 9G11G13
  39362837.008 9 -63974329.773 8  15468961.037    15468962.829       -1338.001
     -1055.995
  18162159.325 9 -68083164.087 8  15271185.249    15271187.559        1544.808
      1215.963
  25773580.473 9 -62187559.910 8  15481774.927    15481776.954        -513.580
      -366.508
     20597.229 9 -21806918.642 8  16742598.024    16742603.656        2517.050
      1965.159
 88  3 26  5  2 41.0800000  0  4G 6G 9G11G13
  39366907.086 8 -63971158.285 9  15469736.218    15469737.880       -1371.342
     -1041.269
  18157501.938 9 -68086793.222 8  15270298.478    15270300.616        1545.103
      1217.846
  25775111.894 8 -62186366.597 8  15482065.356    15482069.908        -501.762
      -417.796
     13048.427 9 -21812800.838 8  16741162.642    16741166.121        2501.587
      1957.758
 88  3 26  5  2 44.0800000  0  4G 6G 9G11G13
  39370982.706 9 -63967982.479 9  15470511.937    15470514.055       -1356.996
     -1062.228
  18152849.388 9 -68090418.581 9  15269413.370    15269414.669        1548.229
      1206.810
  25776647.910 8 -62185169.698 8  15482357.731    15482361.299        -514.689
      -398.515
      5503.779 9 -21818679.767 9  16739725.782    16739730.880        2524.920
      1957.311
 88  3 26  5  2 47.0800000  0  4G 6G 9G11G13
  39375063.896 9 -63964802.336 8  15471288.168    15471290.009       -1363.129
     -1063.147
  18148201.678 8 -68094040.171 9  15268528.884    15268530.853        1557.599
      1202.995
  25778188.533 8 -62183969.213 8  15482650.022    15482654.862        -500.806
      -395.936
     -2036.723 9 -21824555.489 8  16738292.252    16738296.745        2516.484
      1958.181
 88  3 26  5  2 50.0800000  0  4G 6G 9G11G13
  39379150.596 9 -63961617.890 9  15472066.480    15472067.828       -1359.038
     -1053.348
  18143558.793 8 -68097658.011 8  15267644.508    15267647.643        1568.460
      1209.482
  25779733.722 9 -62182765.166 8  15482944.822    15482948.019        -511.611
      -401.572
     -9573.067 9 -21830427.954 9  16736857.483    16736861.321        2523.126
      1960.082
 88  3 26  5  2 53.0800000  0  4G 6G 9G11G13
  39383242.886 9 -63958429.095 8  15472844.171    15472847.489       -1367.969
     -1074.966
  18138920.791 9 -68101272.030 8  15266762.449    15266765.007        1536.674
      1203.274
  25781283.490 8 -62181557.559 8  15483240.119    15483243.499        -509.019
      -410.632
    -17105.229 9 -21836297.165 8  16735423.634    16735429.757        2514.769
      1971.286
 88  3 26  5  2 56.0800000  0  4G 6G 9G11G13
  39387340.704 9 -63955235.988 9  15473624.708    15473626.232       -1374.109
     -1050.919
  18134287.609 9 -68104882.294 9  15265880.708    15265883.510        1552.695
      1207.866
  25782837.827 9 -62180346.371 7  15483535.401    15483539.270        -518.796
      -397.291
    -24633.229 8 -21842163.131 8  16733991.351    16733995.105        2508.884
      1947.133
 88  3 26  5  2 59.0800000  0  4G 6G 9G11G13
  39391444.074 9 -63952038.559 9  15474405.444    15474407.371       -1370.266
     -1068.746
  18129659.332 7 -68108488.755 8  15265000.162    15265001.359        1560.103
      1201.920
  25784396.750 9 -62179131.633 8  15483832.609    15483835.663        -529.178
      -400.186
    -32157.057 9 -21848025.861 8  16732559.462    16732564.774        2512.560
      1951.849
 88  3 26  5  3  2.0800000  0  4G 6G 9G11G13
  39395552.987 8 -63948836.812 9  15475187.357    15475189.141       -1370.369
     -1069.007
  18125035.944 8 -68112091.392 8  15264121.233    15264122.591        1517.568
      1194.457
  25785960.224 8 -62177913.340 8  15484129.191    15484133.401        -508.652
      -408.246
    -39676.716 9 -21853885.325 9  16731129.142    16731132.876        2504.498
      1950.333
 88  3 26  5  3  5.0800000  0  4G 6G 9G11G13
  39399667.447 8 -63945630.746 8  15475970.912    15475972.722       -1384.221
     -1070.107
  18120417.374 8 -68115690.271 9  15263241.940    15263243.337        1551.395
      1196.116
  25787528.243 8 -62176691.494 9  15484428.533    15484431.513        -516.419
      -408.625
    -47192.223 9 -21859741.558 7  16729698.874    16729703.559        2506.874
      1971.646
 88  3 26  5  3  8.0800000  0  4G 6G 9G11G13
  39403787.448 9 -63942420.347 8  15476754.711    15476756.291       -1360.776
     -1062.197
  18115803.703 8 -68119285.333 8  15262364.278    15262366.040        1539.729
      1196.688
  25789100.820 8 -62175466.107 9  15484727.776    15484731.689        -527.607
      -397.440
    -54703.551 9 -21865594.546 8  16728269.406    16728273.201        2507.624
      1946.139
 88  3 26  5  3 11.0800000  0  4G 6G 9G11G13
  39407913.007 8 -63939205.630 9  15477539.820    15477542.229       -1367.004
     -1067.398
  18111194.878 8 -68122876.632 8  15261487.087    15261488.709        1524.745
      1197.595
  25790677.967 9 -62174237.167 8  15485027.508    15485030.602        -517.057
      -407.307
    -62210.734 8 -21871444.297 9  16726841.086    16726845.434        2507.481
      1963.034
 88  3 26  5  3 14.0800000  0  4G 6G 9G11G13
  39412044.102 9 -63935986.598 8  15478325.365    15478328.143       -1390.433
     -1069.013
  18106590.910 8 -68126464.136 8  15260610.796    15260612.294        1544.992
      1198.241
  25792259.670 8 -62173004.669 7  15485329.288    15485332.025        -518.963
      -419.002
    -69713.729 9 -21877290.777 8  16725412.584    16725417.228        2501.619
      1963.183
 88  3 26  5  3 17.0800000  0  4G 6G 9G11G13
  39416180.740 9 -63932763.247 8  15479113.063    15479115.267       -1363.360
     -1068.703
  18101991.859 9 -68130047.807 8  15259735.166    15259737.001        1520.128
      1182.228
  25793845.943 8 -62171768.607 8  15485630.766    15485632.945        -531.834
      -418.436
    -77212.582 9 -21883134.026 8  16723985.852    16723990.114        2497.824
      1959.716
 88  3 26  5  3 20.0800000  0  4G 6G 9G11G13
  39420322.934 8 -63929535.554 8  15479900.893    15479903.263       -1368.360
     -1063.477
  18097397.678 8 -68133627.695 9  15258860.857    15258862.865        1527.448
      1199.602
  25795436.780 9 -62170528.995 8  15485934.060    15485936.237        -523.979
      -422.966
    -84707.269 9 -21888974.050 8  16722559.792    16722564.539        2507.847
      1955.062
 88  3 26  5  3 23.0800000  0  4G 6G 9G11G13
  39424470.692 9 -63926303.554 9  15480690.547    15480692.272       -1373.407
     -1081.814
  18092808.336 8 -68137203.800 8  15257988.422    15257989.127        1529.290
      1195.221
  25797032.186 9 -62169285.822 8  15486237.012    15486240.678        -518.748
      -412.403
    -92197.786 9 -21894810.827 9  16721134.119    16721138.771        2498.222
      1944.908
 88  3 26  5  3 26.0800000  0  4G 6G 9G11G13
  39428624.012 9 -63923067.195 8  15481480.478    15481482.530       -1371.230
     -1071.225
  18088223.886 8 -68140776.099 8  15257115.611    15257117.298        1512.648
      1190.362
  25798632.151 9 -62168039.089 8  15486541.776    15486544.286        -535.813
      -409.476
    -99684.146 9 -21900644.335 9  16719710.001    16719714.834        2494.139
      1943.647
 88  3 26  5  3 29.0800000  0  4G 6G 9G11G13
  39432782.839 9 -63919826.551 7  15482272.290    15482274.392       -1373.144
     -1068.143
  18083644.289 8 -68144344.604 8  15256244.634    15256246.757        1508.613
      1191.711
  25800236.654 9 -62166788.832 8  15486846.969    15486849.464        -531.890
      -413.701
   -107166.303 9 -21906474.597 8  16718285.748    16718290.247        2487.202
      1930.387
 88  3 26  5  3 32.0800000  0  4G 6G 9G11G13
  39436947.211 9 -63916581.587 8  15483064.305    15483066.816       -1394.898
     -1079.104
  18079069.678 9 -68147909.241 9  15255373.260    15255375.870        1514.841
      1188.765
  25801845.706 9 -62165535.027 9  15487152.836    15487156.159        -525.805
      -421.537
   -114644.274 9 -21912301.582 8  16716863.120    16716867.612        2487.720
      1934.189
 88  3 26  5  3 35.0800000  0  4G 6G 9G11G13
  39441117.150 9 -63913332.284 8  15483858.110    15483859.978       -1382.562
     -1087.530
  18074499.978 8 -68151470.043 8  15254503.573    15254506.339        1513.573
      1183.030
  25803459.322 9 -62164277.659 8  15487460.086    15487463.542        -558.141
      -425.967
   -122118.065 9 -21918125.312 8  16715441.601    16715444.994        2495.846
      1952.607
 88  3 26  5  3 38.0800000  0  4G 6G 9G11G13
  39445292.622 9 -63910078.673 8  15484653.040    15484653.495       -1381.446
     -1085.542
  18069935.087 8 -68155027.098 8  15253634.830    15253637.537        1524.155
      1185.112
  25805077.482 8 -62163016.748 8  15487768.622    15487771.129        -534.872
      -427.782
   -129587.690 9 -21923945.798 8  16714018.577    16714023.224        2496.372
      1928.001
 88  3 26  5  3 41.0800000  0  4G 6G 9G11G13
  39449473.633 9 -63906820.744 9  15485448.180    15485450.807       -1399.523
     -1102.673
  18065375.187 8 -68158580.262 8  15252767.405    15252769.822        1512.584
      1197.110
  25806700.198 8 -62161752.299 8  15488077.109    15488079.518        -538.078
      -420.046
   -137053.165 9 -21929763.045 8  16712598.439    16712603.964        2496.037
      1937.787
 88  3 26  5  3 44.0800000  0  4G 6G 9G11G13
  39453660.211 9 -63903558.473 9  15486244.816    15486246.903       -1390.504
     -1091.352
  18060820.110 8 -68162129.670 8  15251899.711    15251903.087        1508.054
      1193.233
  25808327.463 9 -62160484.293 8  15488386.408    15488388.815        -525.470
      -429.000
   -144514.439 9 -21935577.026 8  16711179.607    16711182.829        2489.323
      1934.345
 88  3 26  5  3 47.0800000  0  4G 6G 9G11G13
  39457852.324 8 -63900291.897 8  15487042.314    15487044.511       -1395.640
     -1078.868
  18056269.931 8 -68165675.260 8  15251033.994    15251036.979        1533.796
      1182.440
  25809959.283 9 -62159212.745 9  15488696.311    15488700.353        -545.996
      -413.036
   -151971.525 9 -21941387.738 9  16709758.770    16709763.632        2504.123
      1938.949
 88  3 26  5  3 50.0800000  0  4G 6G 9G11G13
  39462049.996 9 -63897020.986 8  15487841.459    15487842.740       -1392.992
     -1097.845
  18051724.683 8 -68169217.012 8  15250169.797    15250172.176        1517.488
      1185.832
  25811595.650 9 -62157937.663 8  15489008.187    15489011.626        -531.355
      -420.207
   -159424.400 9 -21947195.170 8  16708341.158    16708346.280        2491.580
      1953.974
 88  3 26  5  3 53.0800000  0  4G 6G 9G11G13
  39466253.212 9 -63893745.751 9  15488641.107    15488644.282       -1400.337
     -1087.779
  18047184.345 8 -68172754.935 9  15249305.638    15249308.088        1505.503
      1175.511
  25813236.544 8 -62156659.033 8  15489320.656    15489324.681        -549.258
      -429.839
   -166873.101 9 -21952999.341 8  16706923.524    16706928.917        2484.929
      1930.996
 88  3 26  5  3 56.0800000  0  4G 6G 9G11G13
  39470461.954 9 -63890466.209 8  15489442.933    15489445.097       -1402.402
     -1109.602
  18042648.876 9 -68176289.074 8  15248443.143    15248444.179        1513.684
      1189.026
  25814881.984 8 -62155376.880 9  15489633.602    15489636.955        -541.307
      -427.365
   -174317.588 9 -21958800.235 9  16705507.995    16705512.742        2493.151
      1942.479
 88  3 26  5  3 59.0800000  0  4G 6G 9G11G13
  39474676.258 9 -63887182.342 9  15490244.318    15490246.326       -1410.034
     -1094.726
  18038118.359 9 -68179819.344 9  15247580.511    15247583.384        1519.091
      1179.376
  25816531.950 8 -62154091.183 9  15489947.767    15489950.923        -554.848
      -421.437
   -181757.878 9 -21964597.866 8  16704091.022    16704095.894        2472.760
      1944.846
 88  3 26  5  4  2.0800000  0  4G 6G 9G11G13
  39478896.121 8 -63883894.143 8  15491047.409    15491048.992       -1415.073
     -1103.612
  18033592.735 9 -68183345.802 9  15246718.520    15246721.630        1504.761
      1175.095
  25818186.465 8 -62152801.953 9  15490262.140    15490265.810        -553.141
      -417.399
   -189194.015 8 -21970392.248 8  16702676.848    16702680.883        2484.730
      1918.382
 88  3 26  5  4  5.0800000  0  4G 6G 9G11G13
  39483121.505 9 -63880601.630 8  15491851.367    15491852.897       -1404.340
     -1092.377
  18029072.024 9 -68186868.432 8  15245858.443    15245861.167        1488.342
      1174.405
  25819845.515 9 -62151509.179 8  15490577.178    15490581.634        -544.066
      -419.462
   -196625.950 9 -21976183.364 8  16701262.143    16701266.924        2473.095
      1921.147
 88  3 26  5  4  8.0800000  0  4G 6G 9G11G13
  39487352.448 9 -63877304.793 8  15492656.283    15492658.379       -1409.149
     -1087.276
  18024556.267 9 -68190387.199 8  15244999.230    15245001.953        1500.862
      1174.529
  25821509.119 8 -62150212.875 8  15490895.704    15490898.829        -562.423
      -440.184
   -204053.685 9 -21981971.213 8  16699849.250    16699853.939        2475.184
      1917.176
 88  3 26  5  4 11.0800000  0  4G 6G 9G11G13
  39491588.938 8 -63874003.637 8  15493462.345    15493464.387       -1408.247
     -1097.006
  18020045.466 9 -68193902.110 8  15244140.561    15244143.522        1502.130
      1181.116
  25823177.265 8 -62148913.015 8  15491212.428    15491215.665        -539.561
      -429.839
   -211477.228 9 -21987755.791 7  16698435.652    16698440.360        2459.610
      1914.343
 88  3 26  5  4 14.0800000  0  4G 6G 9G11G13
  39495830.977 9 -63870698.155 8  15494269.534    15494271.571       -1405.345
     -1098.243
  18015539.522 8 -68197413.238 8  15243283.246    15243286.484        1491.276
      1169.552
  25824849.954 8 -62147609.616 8  15491530.452    15491533.063        -554.497
      -427.334
   -218896.572 9 -21993537.097 8  16697024.521    16697028.878        2487.951
      1929.778
 88  3 26  5  4 17.0800000  0  4G 6G 9G11G13
  39500078.570 9 -63867388.340 8  15495077.798    15495081.111       -1408.614
     -1109.372
  18011038.517 9 -68200920.507 8  15242427.835    15242429.064        1504.450
      1183.906
  25826527.167 8 -62146302.690 8  15491849.515    15491852.923        -554.967
      -445.677
   -226311.738 9 -21999315.149 8  16695613.288    16695618.043        2479.044
      1953.949
 88  3 26  5  4 20.0800000  0  4G 6G 9G11G13
  39504331.670 9 -63864074.239 9  15495887.355    15495889.939       -1405.576
     -1106.557
  18006542.420 8 -68204423.948 8  15241571.877    15241574.233        1501.515
      1158.833
  25828208.895 9 -62144992.248 8  15492169.880    15492173.934        -566.610
      -438.432
   -233722.734 8 -22005089.935 8  16694202.148    16694207.267        2471.277
      1926.174
 88  3 26  5  4 23.0800000  0  4G 6G 9G11G13
  39508590.310 9 -63860755.817 9  15496698.355    15496699.326       -1421.118
     -1114.827
  18002051.266 9 -68207923.561 8  15240716.641    15240719.957        1503.764
      1165.488
  25829895.158 9 -62143678.286 8  15492490.397    15492492.848        -549.704
      -431.765
   -241129.544 8 -22010861.471 8  16692793.565    16692797.426        2469.068
      1933.854
 88  3 26  5  4 26.0800000  0  4G 6G 9G11G13
  39512854.515 9 -63857433.052 9  15497508.990    15497511.877       -1429.100
     -1104.376
  17997565.003 8 -68211419.347 8  15239863.262    15239865.224        1513.094
      1170.267
  25831585.969 9 -62142360.775 8  15492812.503    15492815.142        -576.458
      -441.222
   -248532.169 9 -22016629.753 8  16691384.909    16691388.555        2453.965
      1911.963
 88  3 26  5  4 29.0800000  0  4G 6G 9G11G13
  39517124.226 9 -63854106.013 9  15498322.386    15498323.501       -1423.462
     -1105.296
  17993083.722 8 -68214911.247 8  15239009.981    15239011.844        1507.209
      1159.480
  25833281.276 8 -62141039.749 8  15493135.189    15493138.386        -559.114
      -419.493
   -255930.591 9 -22022394.756 8  16689977.181    16689980.706        2469.993
      1928.678
 88  3 26  5  4 32.0800000  0  4G 6G 9G11G13
  39521399.487 9 -63850774.643 9  15499135.257    15499136.406       -1431.548
     -1097.466
  17988607.449 8 -68218399.247 8  15238158.970    15238162.020        1481.731
      1147.481
  25834981.094 8 -62139715.214 8  15493458.441    15493463.112        -575.350
      -437.146
   -263324.806 9 -22028156.484 8  16688570.197    16688574.257        2463.574
      1920.575
 88  3 26  5  4 35.0800000  0  4G 6G 9G11G13
  39525680.311 9 -63847438.934 8  15499950.257    15499951.812       -1421.971
     -1107.719
  17984136.037 9 -68221883.465 7  15237307.787    15237310.953        1492.792
      1160.499
  25836685.439 8 -62138387.149 8  15493782.408    15493786.462        -566.227
      -441.955
   -270714.799 9 -22033914.916 8  16687163.640    16687168.450        2461.349
      1927.143
 88  3 26  5  4 38.0800000  0  4G 6G 9G11G13
  39529966.660 9 -63844098.923 8  15500765.415    15500767.534       -1430.073
     -1121.625
  17979669.606 9 -68225363.791 8  15236458.116    15236460.257        1496.803
      1157.038
  25838394.318 8 -62137055.566 9  15494107.606    15494111.390        -578.141
      -444.360
   -278100.582 9 -22039670.057 9  16685758.053    16685763.325        2464.371
      1912.354
 88  3 26  5  4 41.0800000  0  4G 6G 9G11G13
  39534258.565 9 -63840754.582 9  15501582.762    15501584.291       -1426.517
     -1107.831
  17975208.151 8 -68228840.252 8  15235608.312    15235611.197        1492.688
      1158.001
  25840107.712 8 -62135720.448 8  15494434.649    15494438.118        -568.340
      -443.254
   -285482.177 9 -22045421.938 9  16684353.583    16684357.273        2456.062
      1913.044
 88  3 26  5  4 44.0800000  0  4G 6G 9G11G13
  39538556.009 9 -63837405.924 8  15502399.853    15502402.285       -1417.633
     -1124.049
  17970751.625 8 -68232312.849 9  15234760.741    15234763.342        1476.364
      1161.418
  25841825.631 9 -62134381.802 8  15494759.995    15494763.792        -565.278
      -440.390
   -292859.536 8 -22051170.534 8  16682949.829    16682954.501        2452.928
      1913.311
 88  3 26  5  4 47.0800000  0  4G 6G 9G11G13
  39542859.026 9 -63834052.924 8  15503218.631    15503221.097       -1442.888
     -1125.795
  17966300.038 9 -68235781.630 9  15233913.778    15233916.249        1493.294
      1153.080
  25843548.056 9 -62133039.658 8  15495088.271    15495092.495        -558.253
      -451.270
   -300232.698 9 -22056915.848 8  16681546.534    16681551.180        2450.982
      1923.353
 88  3 26  5  4 50.0800000  0  4G 6G 9G11G13
  39547167.595 9 -63830695.602 8  15504039.268    15504040.491       -1435.607
     -1109.769
  17961853.416 8 -68239246.521 8  15233068.203    15233068.972        1485.168
      1152.458
  25845274.991 8 -62131693.985 8  15495416.302    15495420.685        -563.309
      -439.501
   -307601.653 9 -22062657.891 8  16680144.246    16680148.912        2474.132
      1912.870
 88  3 26  5  4 53.0800000  0  4G 6G 9G11G13
  39551481.691 9 -63827333.970 9  15504860.026    15504862.645       -1451.915
     -1116.219
  17957411.745 9 -68242707.569 8  15232222.564    15232223.864        1474.395
      1168.496
  25847006.428 9 -62130344.816 8  15495746.727    15495749.965        -569.560
      -446.759
   -314966.399 9 -22068396.636 8  16678742.871    16678746.821        2460.815
      1926.354
 88  3 26  5  4 56.0800000  0  4G 6G 9G11G13
  39555801.316 9 -63823968.033 8  15505681.733    15505683.383       -1434.427
     -1099.473
  17952975.016 9 -68246164.768 8  15231378.213    15231379.884        1467.321
      1148.469
  25848742.366 8 -62128992.135 8  15496076.512    15496080.755        -584.504
      -444.018
   -322326.934 9 -22074132.123 8  16677342.227    16677346.295        2452.457
      1917.872
 88  3 26  5  4 59.0800000  0  4G 6G 9G11G13
  39560126.479 9 -63820597.780 8  15506505.203    15506506.538       -1457.768
     -1118.661
  17948543.287 9 -68249618.054 8  15230535.480    15230537.601        1480.862
      1156.584
  25850482.791 8 -62127635.960 9  15496408.229    15496410.608        -567.870
      -450.897
   -329683.262 9 -22079864.309 8  16675941.590    16675945.905        2455.249
      1916.300
 88  3 26  5  5  2.0800000  0  4G 6G 9G11G13
  39564457.162 9 -63817223.217 8  15507328.765    15507332.406       -1441.804
     -1126.553
  17944116.481 9 -68253067.506 8  15229693.160    15229694.930        1470.687
      1159.877
  25852227.705 8 -62126276.286 9  15496739.521    15496744.006        -589.536
      -449.356
   -337035.388 9 -22085593.246 8  16674543.415    16674547.716        2435.927
      1907.184
 88  3 26  5  5  5.0800000  0  4G 6G 9G11G13
  39568793.381 9 -63813844.350 8  15508154.950    15508155.464       -1445.081
     -1124.701
  17939694.692 8 -68256513.061 8  15228850.866    15228853.467        1484.993
      1153.247
  25853977.118 9 -62124913.107 8  15497072.774    15497076.602        -580.039
      -441.508
   -344383.330 9 -22091318.909 8  16673145.137    16673148.872        2461.333
      1916.679
 88  3 26  5  5  8.0800000  0  4G 6G 9G11G13
  39573135.180 9 -63810461.127 8  15508979.632    15508982.887       -1457.027
     -1125.192
  17935277.815 8 -68259954.775 9  15228010.363    15228011.933        1459.355
      1134.190
  25855731.029 8 -62123546.413 8  15497406.174    15497409.397        -579.552
      -462.299
   -351727.029 9 -22097041.262 9  16671748.043    16671750.821        2448.470
      1920.115
 88  3 26  5  5 11.0800000  0  4G 6G 9G11G13
  39577482.507 9 -63807073.601 8  15509807.465    15509809.663       -1467.170
     -1124.888
  17930865.948 8 -68263392.583 8  15227171.927    15227174.501        1472.640
      1155.366
  25857489.424 9 -62122176.230 7  15497741.920    15497745.117        -595.102
      -456.247
   -359066.533 8 -22102760.353 8  16670351.424    16670355.908        2446.230
      1892.209
 88  3 26  5  5 14.0800000  0  4G 6G 9G11G13
  39581835.391 9 -63803681.761 8  15510635.562    15510638.250       -1440.328
     -1133.282
  17926459.065 8 -68266826.525 9  15226333.374    15226334.909        1458.901
      1140.086
  25859252.349 8 -62120802.534 8  15498076.465    15498080.919        -596.881
      -463.536
   -366401.807 9 -22108476.142 8  16668955.857    16668958.833        2453.925
      1904.444
 88  3 26  5  5 17.0800000  0  4G 6G 9G11G13
  39586193.822 9 -63800285.568 7  15511464.492    15511467.708       -1442.027
     -1143.324
  17922057.122 8 -68270256.595 8  15225495.798    15225497.272        1461.325
      1145.455
  25861019.768 8 -62119425.321 8  15498412.651    15498416.894        -597.806
      -451.133
   -373732.858 9 -22114188.639 7  16667560.231    16667563.657        2432.003
      1892.520
 88  3 26  5  5 20.0800000  0  4G 6G 9G11G13
  39590557.779 9 -63796885.085 8  15512296.169    15512297.968       -1447.720
     -1138.782
  17917660.170 8 -68273682.804 8  15224658.424    15224660.086        1453.071
      1150.892
  25862791.686 8 -62118044.601 8  15498749.597    15498754.241        -593.316
      -441.110
   -381059.728 9 -22119897.888 8  16666166.507    16666169.434        2446.867
      1909.104
 88  3 26  5  5 23.0800000  0  4G 6G 9G11G13
  39594927.308 9 -63793480.245 9  15513127.163    15513130.140       -1443.893
     -1133.233
  17913268.273 9 -68277105.058 8  15223821.778    15223823.918        1485.973
      1116.903
  25864568.120 9 -62116660.373 9  15499088.351    15499092.103        -578.627
      -461.970
   -388382.360 9 -22125603.838 8  16664772.633    16664776.783        2430.337
      1889.581
 88  3 26  5  5 26.0800000  0  4G 6G 9G11G13
  39599302.376 9 -63790071.119 8  15513960.739    15513961.126       -1460.942
     -1124.832
  17908881.314 9 -68280523.472 8  15222986.972    15222990.646        1455.224
      1132.487
  25866349.034 9 -62115272.630 9  15499427.304    15499431.743        -584.616
      -459.596
   -395700.780 9 -22131306.482 9  16663379.492    16663383.412        2445.608
      1899.523
 88  3 26  5  5 29.0800000  0  4G 6G 9G11G13
  39603683.011 9 -63786657.631 8  15514793.198    15514795.534       -1456.500
     -1117.562
  17904499.358 9 -68283937.974 8  15222153.430    15222156.140        1456.428
      1150.762
  25868134.461 8 -62113881.393 9  15499767.754    15499770.721        -589.544
      -452.885
   -403014.947 9 -22137005.828 7  16661988.143    16661991.679        2445.767
      1917.394
 88  3 26  5  5 32.0800000  0  4G 6G 9G11G13
  39608069.196 9 -63783239.830 9  15515628.273    15515631.124       -1461.420
     -1132.624
  17900122.399 9 -68287348.593 8  15221321.276    15221322.861        1471.452
      1142.870
  25869924.385 9 -62112486.652 8  15500108.500    15500111.926        -609.911
      -468.606
   -410324.899 9 -22142701.894 8  16660596.907    16660601.157        2442.187
      1908.228
 88  3 26  5  5 35.0800000  0  4G 6G 9G11G13
  39612460.900 8 -63779817.725 7  15516464.207    15516465.643       -1470.655
     -1150.314
  17895750.434 8 -68290755.312 8  15220489.256    15220490.432        1452.944
      1148.991
  25871718.808 9 -62111088.411 9  15500448.723    15500452.167        -608.427
      -444.000
   -417630.634 9 -22148394.659 8  16659206.204    16659210.596        2450.719
      1903.263
 88  3 26  5  5 38.0800000  0  4G 6G 9G11G13
  39616858.159 9 -63776391.289 9  15517300.471    15517301.828       -1465.439
     -1129.138
  17891383.506 9 -68294158.119 8  15219658.461    15219659.981        1446.461
      1116.263
  25873517.696 8 -62109686.663 8  15500791.315    15500794.695        -608.029
      -479.847
   -424932.140 9 -22154084.150 8  16657816.635    16657821.378        2438.526
      1895.801
 88  3 26  5  5 41.0800000  0  4G 6G 9G11G13
  39621260.968 9 -63772960.529 9  15518139.282    15518140.202       -1456.205
     -1128.094
  17887021.539 9 -68297557.047 8  15218828.542    15218829.409        1441.325
      1151.333
  25875321.090 9 -62108281.429 9  15501134.880    15501138.336        -604.807
      -456.483
   -432229.454 9 -22159770.356 8  16656428.225    16656432.261        2433.479
      1898.268
 88  3 26  5  5 44.0800000  0  4G 6G 9G11G13
  39625669.299 9 -63769525.462 9  15518977.102    15518979.440       -1466.787
     -1147.288
  17882664.603 9 -68300952.062 7  15217999.067    15218001.915        1459.124
      1144.150
  25877128.965 9 -62106872.699 8  15501478.597    15501482.409        -591.267
      -462.076
   -439522.543 9 -22165453.280 8  16655040.688    16655044.906        2433.407
      1878.371
 88  3 26  5  5 47.0800000  0  4G 6G 9G11G13
  39630083.174 9 -63766086.079 9  15519817.801    15519820.122       -1465.113
     -1134.388
  17878312.685 9 -68304343.169 9  15217170.527    15217172.916        1448.398
      1150.029
  25878941.308 9 -62105460.483 8  15501823.383    15501827.054        -615.947
      -463.878
   -446811.437 9 -22171132.935 9  16653653.489    16653657.482        2435.153
      1902.033
 88  3 26  5  5 50.0800000  0  4G 6G 9G11G13
  39634502.542 9 -63762642.411 8  15520657.664    15520660.086       -1464.514
     -1155.571
  17873965.803 9 -68307730.337 7  15216343.778    15216345.440        1454.889
      1122.669
  25880758.109 9 -62104044.789 8  15502169.736    15502173.733        -611.107
      -476.641
   -454096.084 9 -22176809.280 8  16652267.092    16652271.255        2435.360
      1890.705
 88  3 26  5  5 53.0800000  0  4G 6G 9G11G13
  39638927.473 9 -63759194.425 8  15521500.713    15521501.903       -1484.004
     -1148.469
  17869623.856 9 -68311113.681 8  15215516.521    15215519.193        1448.669
      1127.516
  25882579.373 9 -62102625.621 9  15502515.480    15502518.975        -606.083
      -485.856
   -461376.517 9 -22182482.339 7  16650881.748    16650885.540        2429.475
      1892.905
 88  3 26  5  5 56.0800000  0  4G 6G 9G11G13
  39643357.962 9 -63755742.090 9  15522343.423    15522345.493       -1467.449
     -1145.200
  17865286.944 9 -68314493.083 8  15214692.366    15214693.177        1448.183
      1126.224
  25884405.120 9 -62101202.966 9  15502862.921    15502866.485        -589.767
      -478.722
   -468652.727 9 -22188152.101 8  16649497.647    16649501.676        2433.359
      1901.182
 88  3 26  5  5 59.0800000  0  4G 6G 9G11G13
  39647793.936 9 -63752285.494 8  15523187.482    15523190.113       -1482.241
     -1151.986
  17860955.028 9 -68317868.615 7  15213867.714    15213869.970        1458.653
      1119.419
  25886235.321 9 -62099776.832 8  15503210.972    15503214.737        -579.768
      -473.528
   -475924.683 9 -22193818.561 9  16648113.851    16648116.705        2429.364
      1892.538
 88  3 26  5  6  2.0800000  0  4G 6G 9G11G13
  39652235.471 9 -63748824.570 8  15524032.844    15524034.781       -1472.266
     -1162.251
  17856628.135 9 -68321240.204 8  15213045.324    15213046.643        1452.178
      1124.751
  25888069.984 8 -62098347.230 8  15503560.517    15503564.013        -599.696
      -477.480
   -483192.376 9 -22199481.695 7  16646730.792    16646734.205        2425.656
      1889.419
 88  3 26  5  6  5.0800000  0  4G 6G 9G11G13
  39656682.508 9 -63745359.324 9  15524878.482    15524880.580       -1482.608
     -1155.416
  17852306.230 9 -68324607.923 9  15212221.150    15212224.085        1427.354
      1130.337
  25889909.101 9 -62096914.143 8  15503910.788    15503913.671        -611.123
      -463.791
   -490455.865 9 -22205141.554 8  16645348.246    16645352.465        2446.214
      1892.657
 88  3 26  5  6  8.0800000  0  4G 6G 9G11G13
  39661135.138 9 -63741889.759 8  15525726.444    15525728.162       -1484.753
     -1161.481
  17847989.319 8 -68327971.751 8  15211401.352    15211402.027        1449.363
      1119.736
  25891752.692 9 -62095477.580 8  15504261.543    15504265.184        -630.421
      -478.026
   -497715.109 9 -22210798.111 8  16643966.628    16643970.278        2421.286
      1892.408
 88  3 26  5  6 11.0800000  0  4G 6G 9G11G13
  39665593.276 9 -63738415.879 8  15526575.030    15526577.008       -1487.170
     -1151.855
  17843677.467 8 -68331331.633 7  15210580.278    15210582.397        1425.480
      1143.809
  25893600.717 9 -62094037.557 8  15504613.547    15504616.757        -614.759
      -476.479
   -504970.154 8 -22216451.377 8  16642586.595    16642590.858        2422.219
      1880.881
 88  3 26  5  6 14.0800000  0  4G 6G 9G11G13
  39670056.932 9 -63734937.711 8  15527423.828    15527425.338       -1478.183
     -1143.920
  17839370.627 9 -68334687.612 8  15209760.578    15209761.513        1441.891
      1110.571
  25895453.206 8 -62092594.048 9  15504965.422    15504968.819        -618.794
      -465.655
   -512220.953 9 -22222101.358 8  16641207.125    16641210.674        2412.179
      1880.415
 88  3 26  5  6 17.0800000  0  4G 6G 9G11G13
  39674526.102 9 -63731455.243 9  15528275.272    15528277.086       -1489.068
     -1169.117
  17835068.862 8 -68338039.643 7  15208942.272    15208943.926        1427.649
      1122.278
  25897310.167 9 -62091147.079 9  15505318.421    15505322.387        -625.820
      -496.985
   -519467.522 9 -22227748.037 8  16639826.882    16639831.784        2425.456
      1887.878
 88  3 26  5  6 20.0800000  0  4G 6G 9G11G13
  39679000.806 9 -63727968.456 9  15529126.467    15529127.271       -1494.402
     -1158.212
  17830772.072 9 -68341387.786 9  15208123.872    15208126.036        1419.085
      1124.235
  25899171.564 9 -62089696.638 8  15505673.836    15505676.931        -606.035
      -478.871
   -526709.894 9 -22233391.424 8  16638449.450    16638454.170        2412.793
      1867.795
 88  3 26  5  6 23.0800000  0  4G 6G 9G11G13
  39683481.033 9 -63724477.379 9  15529978.406    15529980.560       -1489.929
     -1152.439
  17826480.311 9 -68344732.014 8  15207307.440    15207309.212        1428.135
      1121.072
  25901037.404 9 -62088242.751 9  15506028.778    15506031.132        -629.615
      -480.301
   -533948.048 9 -22239031.547 8  16637071.903    16637076.566        2414.284
      1876.631
 88  3 26  5  6 26.0800000  0  4G 6G 9G11G13
  39687966.798 9 -63720981.963 8  15530832.522    15530833.483       -1493.142
     -1179.171
  17822193.612 9 -68348072.304 8  15206491.149    15206491.607        1434.531
      1123.197
  25902907.683 8 -62086785.372 9  15506383.407    15506386.574        -603.451
      -471.110
   -541181.966 9 -22244668.367 9  16635695.780    16635699.014        2430.863
      1849.085
 88  3 26  5  6 29.0800000  0  4G 6G 9G11G13
  39692458.103 9 -63717482.252 9  15531687.466    15531689.177       -1521.188
     -1163.245
  17817911.924 9 -68351408.682 8  15205675.933    15205678.520        1438.303
      1104.233
  25904782.430 8 -62085324.530 8  15506740.756    15506744.810        -610.150
      -479.213
   -548411.655 9 -22250301.876 9  16634320.113    16634324.871        2411.334
      1887.679
 88  3 26  5  6 32.0800000  0  4G 6G 9G11G13
  39696954.942 9 -63713978.233 8  15532542.481    15532545.069       -1506.842
     -1181.880
  17813635.232 8 -68354741.161 9  15204862.205    15204865.106        1432.194
      1098.404
  25906661.623 9 -62083860.228 8  15507099.264    15507102.646        -623.714
      -486.297
   -555637.103 9 -22255932.108 8  16632944.872    16632949.185        2413.351
      1870.473
 88  3 26  5  6 35.0800000  0  4G 6G 9G11G13
  39701457.326 9 -63710469.880 8  15533399.346    15533401.031       -1504.083
     -1162.139
  17809363.562 8 -68358069.743 9  15204050.315    15204052.730        1419.013
      1129.480
  25908545.248 9 -62082392.454 9  15507456.406    15507460.260        -616.681
      -476.119
   -562858.347 9 -22261559.039 8  16631570.471    16631574.658        2414.834
      1884.722
 88  3 26  5  6 38.0800000  0  4G 6G 9G11G13
  39705965.217 9 -63706957.232 8  15534257.236    15534259.804       -1508.222
     -1166.507
  17805097.027 8 -68361394.312 8  15203237.504    15203239.698        1424.483
      1110.465
  25910433.317 9 -62080921.229 8  15507815.470    15507819.382        -641.441
      -491.131
   -570075.357 9 -22267182.683 8  16630197.608    16630200.439        2410.345
      1868.174
 88  3 26  5  6 41.0800000  0  4G 6G 9G11G13
  39710478.647 9 -63703440.283 8  15535115.270    15535118.058       -1483.653
     -1163.425
  17800835.475 8 -68364714.996 7  15202427.267    15202428.789        1416.317
      1116.219
  25912325.844 9 -62079446.549 8  15508177.872    15508179.795        -614.679
      -477.852
   -577288.154 9 -22272803.029 8  16628824.660    16628828.865        2410.329
      1867.087
 88  3 26  5  6 44.0800000  0  4G 6G 9G11G13
  39714997.598 9 -63699919.027 9  15535977.150    15535977.689       -1502.752
     -1170.720
  17796578.991 8 -68368031.733 8  15201616.706    15201619.020        1416.684
      1125.366
  25914222.789 9 -62077968.396 9  15508537.229    15508540.981        -614.424
      -489.926
   -584496.728 9 -22278420.097 8  16627452.708    16627456.852        2394.085
      1873.406
 88  3 26  5  6 47.0800000  0  4G 6G 9G11G13
  39719522.084 9 -63696393.454 8  15536836.827    15536838.529       -1517.400
     -1179.712
  17792327.560 8 -68371344.539 7  15200809.042    15200809.231        1419.547
      1098.628
  25916124.166 8 -62076486.800 9  15508899.383    15508902.280        -635.931
      -489.354
   -591701.060 9 -22284033.861 8  16626081.441    16626085.585        2415.903
      1891.457
 88  3 26  5  6 50.0800000  0  4G 6G 9G11G13
  39724052.089 9 -63692863.576 9  15537698.982    15537701.565       -1522.392
     -1176.313
  17788081.220 8 -68374653.375 8  15199999.978    15200001.455        1412.131
      1117.332
  25918029.978 9 -62075001.761 9  15509262.320    15509265.272        -622.080
      -492.418
   -598901.144 9 -22289644.311 9  16624711.711    16624715.232        2407.689
      1883.640
 88  3 26  5  6 53.0800000  0  4G 6G 9G11G13
  39728587.619 9 -63689329.395 9  15538562.121    15538564.438       -1512.121
     -1176.524
  17783839.871 9 -68377958.317 8  15199192.705    15199195.107        1410.058
      1108.042
  25919940.218 8 -62073513.260 7  15509625.682    15509629.006        -622.048
      -483.706
   -606096.978 9 -22295251.448 9  16623343.089    16623346.985        2409.045
      1856.412
 88  3 26  5  6 56.0800000  0  4G 6G 9G11G13
  39733128.683 9 -63685790.908 9  15539426.383    15539427.210       -1519.370
     -1173.206
  17779603.609 9 -68381259.296 8  15198386.992    15198388.601        1414.850
      1116.244
  25921854.888 9 -62072021.311 9  15509990.571    15509993.368        -654.240
      -499.166
   -613288.557 9 -22300855.268 8  16621973.685    16621977.934        2404.508
      1868.671
 88  3 26  5  6 59.0800000  0  4G 6G 9G11G13
  39737675.274 9 -63682248.110 9  15540290.958    15540293.883       -1511.252
     -1180.501
  17775372.358 8 -68384556.375 8  15197582.847    15197584.016        1414.077
      1100.853
  25923773.985 9 -62070525.910 9  15510354.233    15510358.045        -644.344
      -497.159
   -620475.862 9 -22306455.752 8  16620606.450    16620610.350        2398.535
      1876.283
 88  3 26  5  7  2.0800000  0  4G 6G 9G11G13
  39742227.392 9 -63678701.012 9  15541158.260    15541160.128       -1516.603
     -1192.916
  17771146.244 9 -68387849.453 7  15196776.957    15196780.093        1420.624
      1095.732
  25925697.509 9 -62069027.061 9  15510721.604    15510724.669        -613.954
      -491.305
   -627658.892 9 -22312052.916 8  16619239.190    16619244.306        2408.798
      1873.344
 88  3 26  5  7  5.0800000  0  4G 6G 9G11G13
  39746785.051 9 -63675149.587 8  15542024.723    15542025.959       -1530.096
     -1172.895
  17766925.111 9 -68391138.637 8  15195974.792    15195976.248        1413.096
      1081.783
  25927625.466 8 -62067524.753 9  15511088.342    15511090.264        -630.054
      -494.853
   -634837.663 9 -22317646.760 8  16617873.358    16617877.136        2401.286
      1876.513
 88  3 26  5  7  8.0800000  0  4G 6G 9G11G13
  39751348.231 9 -63671593.859 9  15542893.474    15542895.572       -1519.139
     -1184.434
  17762709.115 9 -68394423.837 8  15195172.465    15195173.556        1420.456
      1108.875
  25929557.843 8 -62066019.001 8  15511455.648    15511459.231        -645.213
      -495.860
   -642012.204 9 -22323237.309 8  16616507.996    16616511.535        2402.044
      1855.392
 88  3 26  5  7 11.0800000  0  4G 6G 9G11G13
  39755916.951 8 -63668033.812 8  15543761.246    15543765.411       -1518.022
     -1189.318
  17758498.131 9 -68397705.116 8  15194369.265    15194373.188        1393.997
      1103.034
  25931494.662 9 -62064509.790 8  15511824.666    15511828.260        -631.944
      -507.685
   -649182.474 9 -22328824.532 8  16615143.797    16615146.467        2365.593
      1853.180
 88  3 26  5  7 14.0800000  0  4G 6G 9G11G13
  39760491.181 9 -63664469.486 8  15544632.924    15544635.190       -1525.781
     -1191.866
  17754292.256 8 -68400982.427 9  15193570.031    15193571.448        1429.196
      1095.316
  25933435.894 8 -62062997.134 8  15512194.122    15512196.801        -647.286
      -511.506
   -656348.522 9 -22334408.454 8  16613779.248    16613783.756        2384.428
      1870.299
 88  3 26  5  7 17.0800000  0  4G 6G 9G11G13
  39765070.954 9 -63660900.834 8  15545504.705    15545507.656       -1538.684
     -1195.016
  17750091.454 8 -68404255.781 9  15192770.646    15192772.168        1414.818
      1091.401
  25935381.554 9 -62061481.047 8  15512563.573    15512567.002        -664.591
      -496.046
   -663510.279 9 -22339989.043 9  16612416.431    16612420.944        2400.776
      1856.834
 88  3 26  5  7 20.0800000  0  4G 6G 9G11G13
  39769656.258 9 -63657327.869 8  15546376.994    15546379.079       -1510.487
     -1175.754
  17745895.810 9 -68407525.112 8  15191972.448    15191974.716        1395.736
      1088.835
  25937331.642 9 -62059961.494 8  15512935.281    15512938.952        -667.143
      -502.254
   -670667.758 9 -22345566.293 9  16611055.325    16611059.365        2379.971
      1842.542
 88  3 26  5  7 23.0800000  0  4G 6G 9G11G13
  39774247.075 9 -63653750.603 8  15547250.827    15547253.493       -1516.826
     -1184.155
  17741705.233 8 -68410790.504 7  15191174.808    15191176.518        1392.658
      1086.890
  25939286.165 9 -62058438.484 9  15513306.467    15513311.240        -672.828
      -506.020
   -677821.000 9 -22351140.248 8  16609694.135    16609697.628        2379.763
      1860.090
 88  3 26  5  7 26.0800000  0  4G 6G 9G11G13
  39778843.464 9 -63650169.017 9  15548125.240    15548128.295       -1532.488
     -1186.068
  17737519.738 9 -68414051.917 8  15190378.182    15190379.879        1401.796
      1077.495
  25941245.111 9 -62056912.031 9  15513679.720    15513682.990        -660.006
      -498.861
   -684969.968 9 -22356710.860 8  16608333.249    16608337.021        2380.680
      1871.412
 88  3 26  5  7 29.0800000  0  4G 6G 9G11G13
  39783445.371 9 -63646583.111 8  15549001.103    15549002.881       -1533.740
     -1188.144
  17733339.298 9 -68417309.396 9  15189583.647    15189585.073        1402.211
      1087.878
  25943208.472 9 -62055382.150 9  15514052.882    15514056.536        -654.806
      -512.389
   -692114.678 9 -22362278.165 7  16606972.878    16606976.942        2389.133
      1860.581
 88  3 26  5  7 32.0800000  0  4G 6G 9G11G13
  39788052.796 9 -63642992.912 8  15549877.572    15549879.873       -1532.201
     -1182.607
  17729163.916 8 -68420562.949 9  15188788.217    15188791.064        1389.835
      1076.849
  25945176.245 8 -62053848.812 9  15514427.064    15514430.031        -655.771
      -502.900
   -699255.131 9 -22367842.150 8  16605615.172    16605618.557        2383.025
      1865.465
 88  3 26  5  7 35.0800000  0  4G 6G 9G11G13
  39792665.784 9 -63639398.368 9  15550754.672    15550757.764       -1531.754
     -1218.784
  17724993.738 9 -68423812.434 8  15187995.376    15187996.974        1400.225
      1087.151
  25947148.431 8 -62052312.035 9  15514803.289    15514807.356        -651.744
      -515.931
   -706391.327 9 -22373402.821 8  16604257.090    16604260.981        2401.103
      1864.092
 88  3 26  5  7 38.0800000  0  4G 6G 9G11G13
  39797284.299 9 -63635799.536 8  15551634.286    15551636.647       -1528.397
     -1208.538
  17720828.616 9 -68427057.986 8  15187202.414    15187205.288        1390.489
      1076.203
  25949125.052 9 -62050771.810 8  15515179.185    15515182.309        -650.747
      -511.798
   -713523.255 9 -22378960.166 8  16602899.533    16602904.565        2370.609
      1857.045
 88  3 26  5  7 41.0800000  0  4G 6G 9G11G13
  39801908.361 9 -63632196.375 8  15552514.522    15552516.771       -1537.312
     -1191.139
  17716668.576 9 -68430299.573 9  15186411.171    15186413.061        1381.876
      1082.764
  25951106.100 8 -62049228.150 9  15515556.191    15515559.603        -659.415
      -509.748
   -720650.953 8 -22384514.206 8  16601543.577    16601547.741        2376.773
      1853.410
 88  3 26  5  7 44.0800000  0  4G 6G 9G11G13
  39806537.935 9 -63628588.904 8  15553395.414    15553396.692       -1548.764
     -1187.858
  17712513.726 8 -68433537.120 8  15185619.815    15185622.649        1381.127
      1082.976
  25953091.548 9 -62047681.044 9  15515934.136    15515936.099        -649.567
      -524.133
   -727774.372 9 -22390064.926 9  16600187.895    16600193.223        2381.845
      1841.890
 88  3 26  5  7 47.0800000  0  4G 6G 9G11G13
  39811173.039 8 -63624977.144 9  15554277.580    15554279.131       -1541.036
     -1203.163
  17708363.941 8 -68436770.719 8  15184830.332    15184832.262        1378.551
      1082.267
  25955081.429 9 -62046130.477 8  15516312.753    15516315.980        -662.924
      -501.173
   -734893.538 9 -22395612.322 8  16598833.801    16598837.350        2379.843
      1847.973
 88  3 26  5  7 50.0800000  0  4G 6G 9G11G13
  39815813.693 9 -63621361.050 9  15555159.691    15555162.767       -1532.193
     -1191.127
  17704219.274 8 -68440000.325 7  15184041.453    15184045.353        1374.069
      1069.809
  25957075.724 8 -62044576.489 9  15516692.213    15516696.110        -658.522
      -509.505
   -742008.419 9 -22401156.384 8  16597479.520    16597483.435        2367.937
      1846.973
 88  3 26  5  7 53.0800000  0  4G 6G 9G11G13
  39820459.861 9 -63617740.661 8  15556044.132    15556046.842       -1543.708
     -1205.729
  17700079.722 9 -68443225.949 8  15183253.056    15183256.444        1389.556
      1078.228
  25959074.410 8 -62043019.064 9  15517072.384    15517075.895        -661.840
      -517.732
   -749119.042 9 -22406697.125 8  16596126.823    16596130.753        2375.058
      1857.729
 88  3 26  5  7 56.0800000  0  4G 6G 9G11G13
  39825111.559 9 -63614115.957 8  15556928.895    15556931.884       -1548.660
     -1202.280
  17695945.251 8 -68446447.609 8  15182467.370    15182469.067        1369.221
      1078.769
  25961077.501 8 -62041458.211 8  15517453.255    15517457.342        -669.328
      -508.337
   -756225.404 9 -22412234.543 8  16594772.622    16594777.820        2383.734
      1844.295
 88  3 26  5  7 59.0800000  0  4G 6G 9G11G13
  39829768.795 9 -63610486.949 9  15557815.901    15557818.471       -1539.059
     -1198.751
  17691815.913 8 -68449665.280 8  15181680.752    15181683.983        1368.376
      1074.183
  25963084.971 9 -62039893.938 9  15517835.355    15517838.850        -661.537
      -518.720
   -763327.493 9 -22417768.633 8  16593422.220    16593426.231        2382.339
      1842.331
 88  3 26  5  8  2.0800000  0  4G 6G 9G11G13
  39834431.555 9 -63606853.624 9  15558703.305    15558705.378       -1562.416
     -1214.925
  17687691.646 9 -68452878.984 8  15180895.933    15180898.328        1382.666
      1066.074
  25965096.847 9 -62038326.246 9  15518218.561    15518222.273        -686.249
      -522.082
   -770425.320 9 -22423299.406 9  16592071.806    16592075.727        2372.451
      1849.204
 88  3 26  5  8  5.0800000  0  4G 6G 9G11G13
  39839099.823 9 -63603216.024 7  15559591.077    15559594.378       -1555.079
     -1231.535
  17683572.563 8 -68456088.667 8  15180113.467    15180114.496        1378.734
      1066.814
  25967113.127 8 -62036755.122 9  15518601.815    15518605.611        -671.648
      -526.873
   -777518.889 9 -22428826.854 9  16590721.967    16590726.201        2376.278
      1847.625
 88  3 26  5  8  8.0800000  0  4G 6G 9G11G13
  39843773.635 9 -63599574.097 8  15560481.102    15560483.074       -1561.020
     -1227.229
  17679458.589 8 -68459294.347 9  15179330.086    15179331.285        1377.155
      1071.809
  25969133.794 9 -62035180.581 8  15518987.408    15518990.520        -672.055
      -516.832
   -784608.187 9 -22434350.973 8  16589373.105    16589376.841        2371.733
      1858.779
 88  3 26  5  8 11.0800000  0  4G 6G 9G11G13
  39848452.955 8 -63595927.873 7  15561371.860    15561373.535       -1555.111
     -1217.933
  17675349.719 8 -68462496.062 8  15178548.265    15178549.605        1358.735
      1070.014
  25971158.843 9 -62033602.614 9  15519371.446    15519375.488        -682.892
      -523.946
   -791693.186 9 -22439871.753 8  16588023.742    16588028.781        2345.896
      1839.361
 88  3 26  5  8 14.0800000  0  4G 6G 9G11G13
  39853137.798 9 -63592277.355 8  15562262.769    15562265.081       -1559.146
     -1224.644
  17671245.993 8 -68465693.775 8  15177766.560    15177768.200        1361.334
      1072.412
  25973188.289 8 -62032021.229 8  15519758.362    15519761.916        -673.873
      -520.877
   -798773.943 9 -22445389.216 8  16586677.394    16586680.849        2364.134
      1837.360
 88  3 26  5  8 17.0800000  0  4G 6G 9G11G13
  39857828.133 8 -63588622.535 8  15563155.252    15563158.288       -1567.750
     -1226.359
  17667147.420 9 -68468887.467 8  15176986.685    15176990.386        1354.612
      1069.318
  25975222.111 8 -62030436.430 9  15520145.119    15520149.372        -678.937
      -538.617
   -805850.432 9 -22450903.358 9  16585330.449    16585334.943        2354.963
      1841.784
 88  3 26  5  8 20.0800000  0  4G 6G 9G11G13
  39862524.015 9 -63584963.411 8  15564048.552    15564052.403       -1560.430
     -1223.649
  17663053.919 9 -68472077.203 8  15176207.630    15176209.838        1362.347
      1051.515
  25977260.316 8 -62028848.215 9  15520532.858    15520536.454        -687.844
      -541.544
   -812922.676 8 -22456414.196 8  16583984.329    16583989.272        2357.858
      1841.728
 88  3 26  5  8 23.0800000  0  4G 6G 9G11G13
  39867225.407 9 -63581299.992 7  15564943.411    15564946.270       -1567.886
     -1232.933
  17658965.544 9 -68475262.950 9  15175430.206    15175432.142        1364.747
      1064.365
  25979302.900 8 -62027256.586 8  15520921.252    15520925.404        -675.683
      -536.834
   -819990.631 9 -22461921.685 9  16582639.963    16582643.545        2371.709
      1826.039
 88  3 26  5  8 26.0800000  0  4G 6G 9G11G13
  39871932.323 9 -63577632.262 9  15565839.908    15565841.336       -1572.742
     -1213.844
  17654882.287 9 -68478444.708 9  15174653.334    15174654.726        1355.433
      1058.251
  25981349.877 8 -62025661.541 8  15521311.945    15521315.411        -666.999
      -528.669
   -827054.312 9 -22467425.860 9  16581295.601    16581298.841        2366.582
      1840.343
 88  3 26  5  8 29.0800000  0  4G 6G 9G11G13
  39876644.761 9 -63573960.236 8  15566736.287    15566737.384       -1578.548
     -1207.046
  17650804.185 9 -68481622.446 9  15173877.293    15173879.420        1348.392
      1063.004
  25983401.215 8 -62024063.094 9  15521701.685    15521704.613        -699.024
      -524.083
   -834113.717 9 -22472926.680 9  16579952.233    16579955.867        2358.129
      1837.167
 88  3 26  5  8 32.0800000  0  4G 6G 9G11G13
  39881362.718 9 -63570283.912 8  15567633.662    15567635.725       -1558.572
     -1220.431
  17646731.239 8 -68484796.161 8  15173101.824    15173103.896        1346.127
      1059.574
  25985456.930 8 -62022461.230 8  15522092.522    15522095.876        -681.425
      -528.234
   -841168.822 9 -22478424.161 9  16578609.419    16578614.612        2344.102
      1821.813
 88  3 26  5  8 35.0800000  0  4G 6G 9G11G13
  39886086.245 9 -63566603.241 9  15568532.259    15568535.158       -1576.331
     -1240.868
  17642663.428 9 -68487965.893 9  15172328.025    15172329.780        1355.936
      1066.789
  25987517.044 9 -62020855.956 9  15522484.072    15522488.543        -690.795
      -531.614
   -848219.646 9 -22483918.314 9  16577267.275    16577271.838        2363.599
      1828.363
 88  3 26  5  8 38.0800000  0  4G 6G 9G11G13
  39890815.254 9 -63562918.301 8  15569432.968    15569435.175       -1579.034
     -1222.394
  17638600.822 8 -68491131.560 8  15171555.906    15171557.356        1348.966
      1053.789
  25989581.531 8 -62019247.263 8  15522878.026    15522881.409        -699.040
      -538.033
   -855266.180 9 -22489409.109 9  16575926.729    16575930.672        2351.861
      1835.148
 88  3 26  5  8 41.0800000  0  4G 6G 9G11G13
  39895549.768 9 -63559229.069 8  15570333.911    15570335.797       -1570.422
     -1232.367
  17634543.368 8 -68494293.208 8  15170782.421    15170785.047        1361.286
      1061.625
  25991650.378 9 -62017635.175 8  15523271.196    15523275.106        -677.772
      -536.834
   -862308.440 9 -22494896.579 8  16574587.126    16574590.758        2347.595
      1824.025
 88  3 26  5  8 44.0800000  0  4G 6G 9G11G13
  39900289.835 9 -63555535.514 9  15571235.338    15571237.765       -1587.200
     -1216.100
  17630491.073 8 -68497450.845 8  15170012.684    15170013.570        1358.551
      1066.664
  25993723.594 9 -62016019.669 9  15523665.437    15523669.662        -677.581
      -533.553
   -869346.387 9 -22500380.691 8  16573247.754    16573251.702        2365.577
      1832.265
 88  3 26  5  8 47.0800000  0  4G 6G 9G11G13
  39905035.427 9 -63551837.643 8  15572139.289    15572140.318       -1582.503
     -1229.304
  17626443.934 9 -68500604.452 8  15169241.896    15169243.927        1353.934
      1051.155
  25995801.188 9 -62014400.771 8  15524061.321    15524064.305        -704.941
      -528.588
   -876380.064 9 -22505861.469 8  16571908.756    16571913.859        2339.868
      1837.739
 88  3 26  5  8 50.0800000  0  4G 6G 9G11G13
  39909786.562 9 -63548135.468 9  15573043.218    15573044.209       -1587.040
     -1231.410
  17622401.921 8 -68503754.078 8  15168472.820    15168475.370        1332.993
      1055.119
  25997883.162 9 -62012778.452 8  15524456.933    15524461.172        -699.311
      -553.431
   -883409.440 9 -22511338.903 8  16570571.144    16570575.553        2337.419
      1832.420
 88  3 26  5  8 53.0800000  0  4G 6G 9G11G13
  39914543.216 9 -63544428.975 8  15573947.254    15573950.437       -1575.733
     -1232.262
  17618365.108 8 -68506899.646 8  15167703.948    15167706.558        1339.205
      1033.098
  25999969.506 8 -62011152.728 9  15524854.596    15524857.991        -695.260
      -548.671
   -890434.534 9 -22516813.011 9  16569233.610    16569238.650        2369.157
      1813.574
 88  3 26  5  8 56.0800000  0  4G 6G 9G11G13
  39919305.381 9 -63540718.198 8  15574853.768    15574856.172       -1582.479
     -1227.900
  17614333.416 8 -68510041.218 8  15166938.019    15166938.741        1345.202
      1046.588
  26002060.201 9 -62009523.612 9  15525252.486    15525256.353        -689.407
      -541.631
   -897455.338 9 -22522283.760 8  16567898.746    16567902.092        2336.271
      1847.358
 88  3 26  5  8 59.0800000  0  4G 6G 9G11G13
  39924073.049 9 -63537003.136 8  15575761.778    15575763.676       -1573.739
     -1225.445
  17610306.885 9 -68513178.767 8  15166171.682    15166173.905        1337.276
      1057.493
  26004155.253 9 -62007891.103 9  15525650.856    15525654.709        -694.861
      -549.025
   -904471.862 9 -22527751.169 8  16566562.864    16566567.284        2352.403
      1825.945
 88  3 26  5  9  2.0800000  0  4G 6G 9G11G13
  39928846.236 9 -63533283.777 9  15576670.213    15576672.854       -1596.036
     -1235.549
  17606285.529 8 -68516312.301 9  15165405.287    15165407.970        1340.673
      1045.730
  26006254.648 9 -62006255.213 8  15526050.191    15526053.532        -709.933
      -541.904
   -911484.117 8 -22533215.264 8  16565228.565    16565232.600        2330.737
      1813.903
 88  3 26  5  9  5.0800000  0  4G 6G 9G11G13
  39933624.945 8 -63529560.104 8  15577578.639    15577580.443       -1581.323
     -1238.171
  17602269.323 8 -68519441.807 8  15164642.537    15164643.402        1335.609
      1042.766
  26008358.400 9 -62004615.923 8  15526450.396    15526454.809        -720.356
      -556.364
   -918492.125 8 -22538676.052 8  16563895.409    16563900.568        2348.201
      1832.271
 88  3 26  5  9  8.0800000  0  4G 6G 9G11G13
  39938409.142 9 -63525832.157 8  15578488.590    15578491.412       -1601.681
     -1243.795
  17598258.273 8 -68522567.291 8  15163878.680    15163879.583        1342.882
      1037.963
  26010466.487 9 -62002973.244 9  15526851.797    15526855.691        -691.560
      -557.420
   -925495.838 9 -22544133.482 8  16562562.007    16562567.124        2327.555
      1828.555
 88  3 26  5  9 11.0800000  0  4G 6G 9G11G13
  39943198.854 8 -63522099.919 8  15579401.013    15579403.340       -1594.983
     -1243.956
  17594252.438 9 -68525688.725 9  15163115.570    15163117.745        1337.674
      1046.762
  26012578.928 8 -62001327.193 8  15527254.551    15527256.975        -695.499
      -537.803
   -932495.248 9 -22549587.567 9  16561230.325    16561234.448        2328.680
      1827.747
 88  3 26  5  9 14.0800000  0  4G 6G 9G11G13
  39947994.092 9 -63518363.374 8  15580313.164    15580316.100       -1597.144
     -1237.450
  17590251.713 8 -68528806.181 9  15162354.600    15162356.466        1354.125
      1044.668
  26014695.716 8 -61999677.749 9  15527657.875    15527661.084        -698.203
      -555.717
   -939490.389 9 -22555038.320 8  16559898.530    16559903.694        2341.869
      1811.386
 88  3 26  5  9 17.0800000  0  4G 6G 9G11G13
  39952794.829 8 -63514622.548 8  15581226.094    15581228.677       -1591.929
     -1251.991
  17586256.160 9 -68531919.597 8  15161595.464    15161596.649        1326.303
      1042.226
  26016816.847 8 -61998024.910 9  15528060.488    15528063.083        -702.581
      -543.948
   -946481.246 9 -22560485.736 8  16558569.064    16558573.600        2329.254
      1819.874
 88  3 26  5  9 20.0800000  0  4G 6G 9G11G13
  39957601.053 9 -63510877.431 8  15582141.470    15582143.977       -1602.487
     -1243.416
  17582265.781 8 -68535028.981 8  15160834.566    15160836.793        1318.384
      1025.299
  26018942.332 8 -61996368.690 9  15528465.601    15528467.654        -717.939
      -549.690
   -953467.796 9 -22565929.800 9  16557239.684    16557243.704        2334.014
      1819.067
 88  3 26  5  9 23.0800000  0  4G 6G 9G11G13
  39962412.796 8 -63507128.027 8  15583056.332    15583060.091       -1611.721
     -1255.476
  17578280.556 8 -68538134.350 8  15160076.469    15160077.520        1320.362
      1043.083
  26021072.167 9 -61994709.078 9  15528869.374    15528872.768        -693.745
      -551.579
   -960450.072 9 -22571370.529 8  16555911.357    16555914.987        2321.822
      1822.478
 88  3 26  5  9 26.0800000  0  4G 6G 9G11G13
  39967230.065 9 -63503374.319 9  15583974.091    15583975.548       -1611.410
     -1243.925
  17574300.554 9 -68541235.640 8  15159320.034    15159320.770        1331.558
      1037.578
  26023206.360 9 -61993046.072 8  15529276.889    15529280.202        -724.223
      -548.696
   -967428.057 9 -22576807.908 7  16554583.442    16554587.189        2340.896
      1818.017
 88  3 26  5  9 29.0800000  0  4G 6G 9G11G13
  39972052.838 9 -63499616.311 9  15584891.504    15584894.207       -1595.031
     -1259.870
  17570325.709 9 -68544332.927 8  15158562.627    15158564.647        1337.818
      1033.334
  26025344.889 9 -61991379.695 9  15529683.861    15529685.512        -715.706
      -557.519
   -974401.770 9 -22582241.974 8  16553255.875    16553259.836        2336.606
      1803.625
 88  3 26  5  9 32.0800000  0  4G 6G 9G11G13
  39976881.103 9 -63495854.023 8  15585810.959    15585813.475       -1614.791
     -1265.717
  17566356.047 8 -68547426.170 8  15157807.423    15157808.880        1329.166
      1044.531
  26027487.748 8 -61989709.921 9  15530090.857    15530094.497        -712.979
      -550.193
   -981371.190 9 -22587672.688 9  16551929.746    16551934.555        2336.415
      1819.471
 88  3 26  5  9 35.0800000  0  4G 6G 9G11G13
  39981714.897 9 -63492087.428 8  15586730.557    15586732.110       -1611.594
     -1247.454
  17562391.613 8 -68550515.347 8  15157052.555    15157054.685        1330.657
      1030.034
  26029634.946 9 -61988036.775 8  15530500.148    15530503.415        -718.641
      -562.907
   -988336.351 9 -22593100.083 8  16550605.038    16550608.164        2315.610
      1800.388
 88  3 26  5  9 38.0800000  0  4G 6G 9G11G13
  39986554.219 9 -63488316.533 8  15587651.451    15587653.903       -1604.799
     -1253.743
  17558432.360 9 -68553600.476 8  15156299.117    15156301.112        1321.558
      1017.470
  26031786.486 8 -61986360.254 9  15530909.015    15530912.854        -705.420
      -555.363
   -995297.205 9 -22598524.111 8  16549279.682    16549284.541        2312.914
      1807.584
 88  3 26  5  9 41.0800000  0  4G 6G 9G11G13
  39991399.065 9 -63484541.338 7  15588573.277    15588574.817       -1597.758
     -1253.923
  17554478.293 8 -68556681.566 8  15155547.446    15155549.338        1300.833
      1014.146
  26033942.384 9 -61984680.332 9  15531318.566    15531322.634        -711.504
      -560.595
  -1002253.756 9 -22603944.811 8  16547955.862    16547959.776        2323.249
      1810.647
 88  3 26  5  9 44.0800000  0  4G 6G 9G11G13
  39996249.423 9 -63480761.833 7  15589496.554    15589498.286       -1608.723
     -1290.746
  17550529.474 8 -68559758.571 8  15154795.408    15154797.782        1316.590
      1019.794
  26036102.642 8 -61982997.016 9  15531731.445    15531734.069        -716.057
      -561.341
  -1009206.002 9 -22609362.133 8  16546632.839    16546637.609        2325.298
      1797.144
 88  3 26  5  9 47.0800000  0  4G 6G 9G11G13
  40001105.310 8 -63476978.032 7  15590420.756    15590422.463       -1632.104
     -1265.909
  17546585.865 8 -68562831.502 8  15154045.704    15154046.063        1321.590
      1021.844
  26038267.225 8 -61981310.323 8  15532142.276    15532146.311        -704.112
      -581.244
  -1016153.942 9 -22614776.102 8  16545310.830    16545314.600        2311.798
      1796.747
 88  3 26  5  9 50.0800000  0  4G 6G 9G11G13
  40005966.727 9 -63473189.911 8  15591345.734    15591347.741       -1631.338
     -1264.027
  17542647.475 8 -68565900.379 8  15153295.872    15153298.292        1322.762
      1019.924
  26040436.169 9 -61979620.225 9  15532554.802    15532559.044        -721.592
      -546.347
  -1023097.565 9 -22620186.717 9  16543989.149    16543993.765        2314.469
      1811.567
 88  3 26  5  9 53.0800000  0  4G 6G 9G11G13
  40010833.657 9 -63469397.503 8  15592270.896    15592273.546       -1619.305
     -1256.402
  17538714.253 8 -68568965.227 8  15152547.325    15152549.163        1320.490
      1003.967
  26042609.462 8 -61977926.751 7  15532968.703    15532971.368        -719.829
      -574.085
  -1030036.873 9 -22625593.963 8  16542669.080    16542673.195        2309.055
      1807.988
 88  3 26  5  9 56.0800000  0  4G 6G 9G11G13
  40015706.098 9 -63465600.791 8  15593198.564    15593201.110       -1613.978
     -1276.752
  17534786.284 8 -68572025.974 8  15151800.224    15151801.940        1324.836
      1026.672
  26044787.081 8 -61976229.907 8  15533383.749    15533387.043        -734.885
      -582.772
  -1036971.873 9 -22630997.853 9  16541349.169    16541353.166        2325.418
      1796.548
 88  3 26  5  9 59.0800000  0  4G 6G 9G11G13
  40020584.061 8 -63461799.786 9  15594126.787    15594128.626       -1625.644
     -1258.627
  17530863.563 8 -68575082.643 8  15151053.547    15151055.408        1297.643
      1018.657
  26046969.048 9 -61974529.676 9  15533797.921    15533801.945        -707.772
      -564.031
  -1043902.563 9 -22636398.380 9  16540030.449    16540034.241        2308.122
      1802.234
 88  3 26  5 10  2.0800000  0  4G 6G 9G11G13
  40025467.558 9 -63457994.462 8  15595055.426    15595058.047       -1595.525
     -1271.166
  17526946.043 9 -68578135.258 8  15150308.215    15150309.844        1320.968
      1012.045
  26049155.328 9 -61972826.073 9  15534214.541    15534217.539        -722.142
      -552.890
  -1050828.956 9 -22641795.578 8  16538712.711    16538716.375        2297.077
      1795.647
 88  3 26  5 10  5.0800000  0  4G 6G 9G11G13
  40030356.543 9 -63454184.865 8  15595986.960    15595989.073       -1645.070
     -1282.612
  17523033.739 9 -68581183.809 8  15149564.736    15149565.375        1301.654
      1028.276
  26051345.938 9 -61971119.106 9  15534630.899    15534634.154        -747.660
      -573.694
  -1057751.030 9 -22647189.393 8  16537395.338    16537398.378        2307.021
      1793.646
 88  3 26  5 10  8.0800000  0  4G 6G 9G11G13
  40035251.057 9 -63450370.959 9  15596918.266    15596919.875       -1640.237
     -1269.625
  17519126.661 9 -68584228.288 8  15148819.839    15148821.937        1289.079
      1016.097
  26053540.862 8 -61969408.780 9  15535048.756    15535051.636        -732.516
      -569.034
  -1064668.813 8 -22652579.864 7  16536079.376    16536083.320        2311.583
      1808.621
 88  3 26  5 10 11.0800000  0  4G 6G 9G11G13
  40040151.052 9 -63446552.781 8  15597851.003    15597853.285       -1635.373
     -1283.892
  17515224.798 9 -68587268.694 7  15148077.166    15148079.170        1299.836
      1017.097
  26055740.108 9 -61967695.070 9  15535467.281    15535470.716        -713.171
      -576.465
  -1071582.277 9 -22657966.984 8  16534763.388    16534767.365        2314.126
      1790.415
 88  3 26  5 10 14.0800000  0  4G 6G 9G11G13
  40045056.542 8 -63442730.334 8  15598783.623    15598785.532       -1630.261
     -1261.404
  17511328.137 8 -68590305.048 8  15147336.007    15147338.647        1300.243
      1011.809
  26057943.674 8 -61965978.012 9  15535887.073    15535890.279        -696.775
      -575.483
  -1078491.442 9 -22663350.733 8  16533448.693    16533452.328        2301.631
      1799.437
 88  3 26  5 10 17.0800000  0  4G 6G 9G11G13
  40049967.567 8 -63438903.557 8  15599719.296    15599721.021       -1631.713
     -1282.637
  17507436.736 8 -68593337.304 8  15146595.262    15146597.322        1294.693
      1002.060
  26060151.550 8 -61964257.589 8  15536307.194    15536310.650        -731.528
      -561.819
  -1085396.284 9 -22668731.125 8  16532134.603    16532138.465        2293.999
      1781.927
 88  3 26  5 10 20.0800000  0  4G 6G 9G11G13
  40054884.084 9 -63435072.507 8  15600653.107    15600656.010       -1634.799
     -1282.531
  17503550.555 8 -68596365.498 9  15145856.318    15145857.839        1300.825
      1016.271
  26062363.735 9 -61962533.805 9  15536727.338    15536731.218        -723.107
      -581.467
  -1092296.780 9 -22674108.130 8  16530820.983    16530824.767        2296.782
      1791.807
 88  3 26  5 10 23.0800000  0  4G 6G 9G11G13
  40059806.080 9 -63431237.182 8  15601590.432    15601592.633       -1620.589
     -1272.894
  17499669.604 8 -68599389.617 8  15145117.288    15145118.504        1301.455
       995.001
  26064580.192 8 -61960806.687 8  15537149.805    15537152.644        -750.196
      -580.877
  -1099193.001 9 -22679481.810 9  16529509.000    16529513.671        2300.857
      1788.315
 88  3 26  5 10 26.0800000  0  4G 6G 9G11G13
  40064733.602 9 -63427397.573 8  15602528.398    15602530.799       -1647.980
     -1272.825
  17495793.844 9 -68602409.697 8  15144379.636    15144381.661        1279.262
      1025.076
  26066800.958 9 -61959076.227 8  15537572.209    15537574.962        -743.441
      -573.122
  -1106084.932 9 -22684852.131 8  16528197.847    16528201.604        2287.516
      1786.208
 88  3 26  5 10 29.0800000  0  4G 6G 9G11G13
  40069666.576 9 -63423553.685 8  15603466.231    15603468.935       -1641.505
     -1295.680
  17491923.287 9 -68605425.708 8  15143643.676    15143644.852        1289.390
       993.273
  26069025.979 9 -61957342.436 8  15537995.725    15537998.420        -740.722
      -579.007
  -1112972.583 9 -22690219.120 8  16526887.079    16526891.244        2280.738
      1788.855
 88  3 26  5 10 32.0800000  0  4G 6G 9G11G13
  40074605.044 9 -63419705.532 8  15604406.364    15604408.460       -1649.089
     -1275.131
  17488057.991 9 -68608437.626 8  15142907.297    15142909.052        1305.442
      1015.233
  26071255.291 8 -61955605.307 9  15538419.930    15538423.368        -744.063
      -580.200
  -1119855.931 9 -22695582.760 9  16525576.869    16525582.003        2297.213
      1775.937
 88  3 26  5 10 35.0800000  0  4G 6G 9G11G13
  40079549.011 9 -63415853.094 8  15605348.022    15605349.073       -1651.920
     -1279.443
  17484197.959 8 -68611445.454 8  15142173.672    15142174.971        1282.284
       996.387
  26073488.890 9 -61953864.840 9  15538844.318    15538848.258        -755.283
      -583.064
  -1126734.988 9 -22700943.070 8  16524268.033    16524272.748        2299.342
      1794.081
 88  3 26  5 10 38.0800000  0  4G 6G 9G11G13
  40084498.460 9 -63411996.376 8  15606289.139    15606291.456       -1647.207
     -1282.575
  17480343.041 9 -68614449.270 8  15141439.313    15141441.782        1299.820
      1013.033
  26075726.768 9 -61952121.039 9  15539270.693    15539274.547        -746.735
      -584.711
  -1133609.748 9 -22706300.030 9  16522959.418    16522963.852        2299.214
      1780.405
 88  3 26  5 10 41.0800000  0  4G 6G 9G11G13
  40089453.384 9 -63408135.396 8  15607232.689    15607235.563       -1649.400
     -1301.514
  17476493.444 8 -68617448.965 8  15140706.920    15140708.369        1271.320
       994.895
  26077968.937 9 -61950373.894 8  15539697.247    15539700.928        -730.874
      -575.024
  -1140480.195 9 -22711653.610 8  16521652.806    16521656.735        2282.109
      1792.776
 88  3 26  5 10 44.0800000  0  4G 6G 9G11G13
  40094413.811 9 -63404270.132 8  15608176.281    15608177.165       -1656.752
     -1277.722
  17472649.053 9 -68620444.590 9  15139974.468    15139976.979        1265.108
      1012.828
  26080215.377 9 -61948623.420 9  15540124.398    15540128.195        -729.486
      -569.114
  -1147346.342 9 -22717003.846 8  16520345.947    16520349.081        2285.323
      1787.097
 88  3 26  5 10 47.0800000  0  4G 6G 9G11G13
  40099379.756 9 -63400400.575 8  15609121.551    15609124.152       -1651.433
     -1295.145
  17468809.885 8 -68623436.160 8  15139244.591    15139246.521        1279.214
      1005.931
  26082466.109 9 -61946869.592 8  15540553.107    15540556.431        -750.913
      -587.414
  -1154208.179 9 -22722350.728 8  16519040.018    16519043.810        2296.567
      1788.576
 88  3 26  5 10 50.0800000  0  4G 6G 9G11G13
  40104351.150 8 -63396526.763 9  15610067.952    15610068.880       -1655.516
     -1299.855
  17464975.970 9 -68626423.617 8  15138515.631    15138517.605        1274.446
      1011.598
  26084721.142 8 -61945112.425 8  15540981.950    15540985.561        -751.471
      -578.236
  -1161065.682 9 -22727694.241 9  16517735.264    16517739.147        2291.264
      1776.552
 88  3 26  5 10 53.0800000  0  4G 6G 9G11G13
  40109328.062 9 -63392648.647 8  15611014.295    15611017.064       -1667.350
     -1291.187
  17461147.301 9 -68629407.003 8  15137786.259    15137789.087        1292.053
       992.963
  26086980.468 9 -61943351.910 8  15541412.175    15541416.116        -753.601
      -582.841
  -1167918.892 9 -22733034.383 8  16516431.139    16516434.897        2288.385
      1797.231
 88  3 26  5 10 56.0800000  0  4G 6G 9G11G13
  40114310.470 9 -63388766.250 9  15611962.195    15611964.500       -1663.323
     -1280.978
  17457323.922 9 -68632386.252 8  15137058.368    15137061.507        1280.187
      1000.220
  26089244.074 8 -61941588.067 9  15541842.515    15541846.096        -766.447
      -600.618
  -1174767.774 9 -22738371.173 8  16515127.943    16515131.362        2289.876
      1780.690
 88  3 26  5 10 59.0800000  0  4G 6G 9G11G13
  40119298.383 9 -63384879.562 8  15612911.913    15612913.892       -1650.867
     -1290.385
  17453505.719 8 -68635361.475 8  15136332.595    15136334.425        1263.521
       981.014
  26091511.951 9 -61939820.886 9  15542274.274    15542278.256        -750.642
      -591.068
  -1181612.321 9 -22743704.586 8  16513825.737    16513828.505        2301.072
      1790.496
 88  3 26  5 11  2.0800000  0  4G 6G 9G11G13
  40124291.774 9 -63380988.615 8  15613861.062    15613863.868       -1654.496
     -1297.320
  17449692.792 9 -68638332.585 7  15135607.093    15135608.151        1269.956
       998.313
  26093784.101 8 -61938050.372 8  15542706.990    15542710.386        -759.701
      -598.605
  -1188452.593 9 -22749034.663 8  16512523.053    16512527.940        2277.269
      1777.876
 88  3 26  5 11  5.0800000  0  4G 6G 9G11G13
  40129290.652 9 -63377093.380 8  15614813.042    15614815.443       -1668.594
     -1309.468
  17445885.160 7 -68641299.568 7  15134882.591    15134884.272        1286.144
      1004.812
  26096060.536 8 -61936276.529 9  15543139.794    15543143.263        -757.022
      -584.860
  -1195288.548 9 -22754361.369 8  16511223.363    16511226.596        2273.712
      1765.951
 88  3 26  5 11  8.0800000  0  4G 6G 9G11G13
  40134295.071 8 -63373193.843 7  15615766.535    15615767.788       -1674.216
     -1297.308
  17442082.827 8 -68644262.423 8  15134159.317    15134160.088        1269.007
       998.027
  26098341.260 8 -61934499.343 9  15543573.886    15543577.912        -760.666
      -586.811
  -1202120.192 9 -22759684.726 8  16509922.779    16509927.115        2290.530
      1791.024
 88  3 26  5 11 11.0800000  0  4G 6G 9G11G13
  40139304.967 8 -63369290.034 8  15616719.392    15616721.456       -1669.296
     -1293.356
  17438285.740 9 -68647221.194 8  15133435.706    15133438.257        1262.253
       985.935
  26100626.264 9 -61932718.825 8  15544007.962    15544011.645        -770.602
      -589.763
  -1208947.476 9 -22765004.683 7  16508623.712    16508627.929        2282.795
      1763.267
 88  3 26  5 11 14.0800000  0  4G 6G 9G11G13
  40144320.362 8 -63365381.941 8  15617673.726    15617675.848       -1666.991
     -1293.418
  17434493.956 9 -68650175.834 9  15132714.611    15132717.328        1254.590
       985.071
  26102915.548 9 -61930934.964 8  15544444.339    15544448.235        -748.657
      -591.801
  -1215770.426 9 -22770321.261 8  16507325.835    16507328.245        2273.122
      1761.105
 88  3 26  5 11 17.0800000  0  4G 6G 9G11G13
  40149341.281 9 -63361469.529 8  15618628.981    15618629.844       -1665.827
     -1293.958
  17430707.418 9 -68653126.387 9  15131994.488    15131995.964        1284.390
       991.130
  26105209.115 8 -61929147.765 8  15544880.293    15544884.091        -769.828
      -594.013
  -1222589.068 9 -22775634.493 8  16506028.135    16506031.262        2261.830
      1772.103
 88  3 26  5 11 20.0800000  0  4G 6G 9G11G13
  40154367.732 9 -63357552.807 7  15619584.965    15619587.123       -1681.034
     -1298.768
  17426926.181 8 -68656072.786 8  15131273.367    15131276.965        1266.886
       987.022
  26107506.980 9 -61927357.217 8  15545318.225    15545321.345        -750.929
      -603.396
  -1229403.345 9 -22780944.307 8  16504731.350    16504734.749        2280.331
      1772.675
 88  3 26  5 11 23.0800000  0  4G 6G 9G11G13
  40159399.661 9 -63353631.832 8  15620542.416    15620545.105       -1686.465
     -1312.438
  17423150.242 8 -68659015.085 8  15130556.016    15130556.979        1259.278
       982.480
  26109809.135 8 -61925563.327 9  15545756.644    15545759.511        -758.951
      -592.397
  -1236213.277 9 -22786250.744 8  16503434.647    16503438.455        2264.366
      1782.971
 88  3 26  5 11 26.0800000  0  4G 6G 9G11G13
  40164437.137 9 -63349706.531 8  15621502.115    15621503.693       -1680.069
     -1291.349
  17419379.584 8 -68661953.256 8  15129837.275    15129840.368        1248.992
       992.907
  26112115.579 9 -61923766.096 9  15546195.761    15546199.371        -763.720
      -599.344
  -1243018.873 9 -22791553.806 8  16502140.241    16502144.072        2258.896
      1780.280
 88  3 26  5 11 29.0800000  0  4G 6G 9G11G13
  40169480.084 9 -63345776.954 9  15622460.368    15622462.228       -1679.551
     -1305.137
  17415614.229 7 -68664887.300 9  15129121.552    15129123.951        1259.103
       978.155
  26114426.315 9 -61921965.526 9  15546635.287    15546637.912        -769.940
      -594.628
  -1249820.111 9 -22796853.465 8  16500846.102    16500850.395        2266.854
      1771.867
 88  3 26  5 11 32.0800000  0  4G 6G 9G11G13
  40174528.584 9 -63341843.063 8  15623421.821    15623424.380       -1686.305
     -1322.094
  17411854.207 8 -68667817.184 8  15128406.205    15128408.657        1251.328
       978.205
  26116741.333 9 -61920161.611 8  15547075.405    15547078.572        -761.671
      -594.423
  -1256617.000 9 -22802149.737 7  16499553.032    16499555.936        2265.275
      1764.876
 88  3 26  5 11 35.0800000  0  4G 6G 9G11G13
  40179582.608 8 -63337904.871 8  15624383.578    15624385.423       -1681.369
     -1306.945
  17408099.504 8 -68670742.929 8  15127692.015    15127694.637        1253.808
       968.667
  26119060.626 9 -61918354.365 8  15547517.541    15547520.464        -766.838
      -594.908
  -1263409.531 9 -22807442.615 8  16498259.932    16498264.395        2269.956
      1757.637
 88  3 26  5 11 38.0800000  0  4G 6G 9G11G13
  40184642.122 8 -63333962.396 8  15625347.063    15625348.391       -1688.546
     -1305.995
  17404350.136 8 -68673664.516 8  15126978.593    15126980.401        1246.519
       974.303
  26121384.212 8 -61916543.789 9  15547959.667    15547961.749        -785.522
      -599.251
  -1270197.764 9 -22812732.132 8  16496967.870    16496971.539        2268.800
      1764.727
 88  3 26  5 11 41.0800000  0  4G 6G 9G11G13
  40189707.143 9 -63330015.632 8  15626309.862    15626312.922       -1692.485
     -1308.760
  17400606.014 8 -68676582.007 8  15126265.348    15126267.795        1250.467
       980.945
  26123712.047 8 -61914729.882 8  15548401.904    15548404.984        -775.602
      -605.931
  -1276981.613 9 -22818018.249 8  16495677.467    16495681.132        2258.306
      1776.894
